     2              OBSERVATION DATA    GPS                 RINEX VERSION / TYPE
ASRINEXO V2.4.4 UX USGS 20-MAY-96 12:17                     PGM / RUN BY / DATE
                                                            COMMENT
Contact: kwendt@isdmnl.wr.usgs.gov (Ph: 415-329-4866)       COMMENT
Contact: kwendt@isdmnl.wr.usgs.gov (Ph: 415-329-4866)       COMMENT
Contact: kwendt@isdmnl.wr.usgs.gov (Ph: 415-329-4866)       COMMENT
Contact: kwendt@isdmnl.wr.usgs.gov (Ph: 415-329-4866)       COMMENT
Original Marker Name: brek Break_1977_USGS                  COMMENT
Campaign Name: USGS Parkfield                               COMMENT
4-Character Station Name: BREK                              COMMENT
6-Character Antenna Code: ASHGD3                            COMMENT
Vertical Measurement Point: EGP                             COMMENT
Vertical Offset to Rinex Ref. Point: 0.0594                 COMMENT
Radial Measurement Point: EGP                               COMMENT
Radial Offset to Rinex Ref. Point: 0.1837                   COMMENT
Antenna Height from Field Measurement: 1.6220 m             COMMENT
Additional Antenna Identification Info.:                    COMMENT
The Whopper (700718AB)                                      COMMENT
Original XYZ: -2622806.0000 -4459506.3600 3718395.8200      COMMENT
New XYZ position is based on association with SCEC monument COMMENT
E1F1N2K1+0011. Position of that monument is believed to be  COMMENT
valid to within 1 m horizontally; vertical accuracy         COMMENT
should be no worse than 3-times this value.                 COMMENT
                                                            COMMENT
Revised Rinex header created by UCSD GPS archive for        COMMENT
GSAC on 11-Jul-2000 (2000:193) 00:38:57 GMT                 COMMENT
For assistance contact dagnew@ucsd.edu                      COMMENT
or anderson@python.ucsd.edu                                 COMMENT
                                                            COMMENT
BREAK 1977                                                  MARKER NAME
JMS US GEOLOGICAL SURVEY                                    OBSERVER / AGENCY
707 ASHTECH Z-XII3 1F00                                     REC # / TYPE / VERS
416 ASHTECH GEODETIC III                                    ANT # / TYPE
 -2622964.7150 -4459586.5838  3718437.7135                  APPROX POSITION XYZ
        1.5522        0.0000        0.0000                  ANTENNA: DELTA H/E/N
     1     1     0                                          WAVELENGTH FACT L1/2
     5    C1    L1    L2    P1    P2                        # / TYPES OF OBSERV
    30                                                      INTERVAL
  1996     5    13    15    53    0.000000                  TIME OF FIRST OBS
  1996     5    13    22    30   30.000000                  TIME OF LAST OBS
                                                            END OF HEADER
 96  5 13 15 53  0.0000000  0  6 26  2 19 16 31  7
  23510639.877      -47863.95619
  20200862.118      -19260.21119
  20331364.157       20049.33819
  23505370.558       24379.26819
  22836251.829       42192.74019
  21751099.797      -51297.37819    -22729.13159                  21751108.2034
 96  5 13 15 53 30.0000000  0  8 26  2 19 18 16 31 27  7
  23492566.158     -142857.484 9    -79711.19359                  23492573.3254
  20195982.110      -44915.575 9    -29264.86559                  20195986.9184
  20339323.389       61872.21159     35101.97659  20339323.8624   20339329.2754
  23585650.994      106160.02519
  23514631.305       73063.845 9     48450.39759                  23514636.4654
  22853124.572      130847.667 9     88223.88659                  22853127.7064
  19282644.176      -20028.27819    -12383.50659                  19282650.3394
  21731090.892     -156471.86159   -104683.25049  21731087.6244   21731094.3114
 96  5 13 15 54  0.0000000  0  6 26  2 19 16 31  7
  24373883.350     -237772.37559   -153670.83149  24373882.4354   24373887.6984
  21090486.313      -70528.99059    -49223.35949  21090485.0724   21090490.4154
  21246677.653      103798.34449     67771.66449  21246679.5524   21246685.3264
  24423285.547      121809.26859     86433.77749  24423282.8254   24423289.1594
  23769386.517      219602.56859    157383.50049  23769390.2064   23769394.9514
  22610454.567     -261619.71849   -186616.60949  22610455.7304   22610462.3814
 96  5 13 15 54 30.0000000  0  8 26  2 19 18 16 31 27  7
  24355846.740     -332577.09959   -227544.61759  24355841.9464   24355847.5784
  21085625.472      -96074.52659    -69128.96959  21085623.6174   21085629.0564
  21254682.135      145860.51059    100547.34759  21254683.6154   21254689.2774
  24525577.915      319286.68059    222345.66859  24525577.4664   24525585.5194
  24432577.057      170675.40159    124511.22859  24432581.4534   24432588.8864
  23786309.430      308517.96459    226668.18159  23786309.4744   23786314.4454
  20175213.552      -55805.47859    -40261.86349  20175215.1134   20175219.3134
  22590458.678     -366728.20959   -268519.30359  22590454.8234   22590461.6604
 96  5 13 15 55  0.0000000  0  8 26  2 19 18 16 31 27  7
  24337830.805     -427223.82349   -301295.28049  24337830.9314   24337838.2714
  21080785.628     -121494.91449    -88937.06649  21080785.9354   21080791.3354
  21262718.832      188084.75749    133449.33649  21262718.9964   21262724.4544
  24545821.427      425693.59359    305260.02359  24545826.2334   24545832.2874
  24441913.534      219706.48049    162717.20449  24441912.6784   24441919.1374
  23803268.853      397627.29149    296103.97449  23803267.4454   23803271.8324
  20171873.878      -73362.52659    -53942.69459  20171873.8664   20171878.3094
  22570471.070     -471734.21849   -350342.13549  22570472.9304   22570479.3484
 96  5 13 15 55 30.0000000  0  8 26  2 19 18 16 31 27  7
  24319869.974     -521598.40149   -374833.88849  24319872.1924   24319878.2734
  21075996.348     -146667.74649   -108552.25549  21075996.1894   21076001.3984
  21270807.559      230591.28949    166571.27249  21270807.9094   21270812.9184
  24566083.154      532149.35949    388212.47149  24566084.5764   24566090.6374
  24451297.157      269019.01449    201142.51149  24451296.6304   24451303.1304
  23820283.528      487055.08449    365787.91549  23820284.7654   23820289.8324
  20168604.279      -90541.38749    -67328.81849  20168604.5754   20168608.9874
  22550534.262     -576504.22049   -431981.05649  22550535.7224   22550542.5124
 96  5 13 15 56  0.0000000  0  8 26  2 19 18 16 31 27  7
  24302001.696     -615517.41049   -448017.51249  24301998.5634   24302006.3784
  21071287.160     -171414.60249   -127835.52449  21071287.3164   21071292.5414
  21278983.108      273556.31449    200050.48649  21278983.5804   21278989.1624
  24586391.380      638854.19949    471358.98149  24586389.8534   24586395.8504
  24460768.911      318795.99149    239929.68859  24460768.3714   24460775.1224
  23837397.828      576971.28149    435852.42049  23837395.3584   23837399.6114
  20165442.840     -107154.71649    -80274.27249  20165443.2194   20165447.7334
  22530679.139     -680860.81749   -513297.86149  22530677.2754   22530685.2534
 96  5 13 15 56 30.0000000  0  8 26  2 19 18 16 31 27  7
  24284245.854     -708839.65549   -520736.11349  24284241.8354   24284247.1454
  21066687.693     -195587.45049   -146671.50249  21066687.4024   21066692.4844
  21287274.168      317128.37749    234002.70449  21287275.4714   21287281.0044
  24606768.350      745938.97149    554801.52749  24606767.3414   24606774.0494
  24470356.061      369169.10649    279181.40549  24470354.2374   24470361.5014
  23854620.634      667496.94149    506391.85849  23854621.5534   23854626.8584
  20162417.927     -123055.05349    -92664.15149  20162417.6334   20162422.2364
  22510925.594     -784650.34449   -594172.78449  22510926.4354   22510933.6434
 96  5 13 15 57  0.0000000  0  8 26  2 19 18 16 31 27  7
  24266600.898     -801528.47149   -592961.14249  24266603.5774   24266608.6234
  21062206.396     -219137.78049   -165022.40749  21062205.7324   21062211.0054
  21295694.592      361378.42149    268483.22049  21295695.6094   21295701.2714
  24627221.845      853440.09349    638568.51149  24627223.1144   24627231.5994
  24480058.778      420174.28549    318925.61749  24480060.3864   24480066.6234
  23871969.695      758666.19149    577432.77849  23871971.4074   23871977.2374
  20159536.119     -138195.43049   -104461.86449  20159536.7204   20159540.7714
  22491293.630     -887812.59849   -674558.93149  22491295.3164   22491302.3924
 96  5 13 15 57 30.0000000  0  8 26  2 19 18 16 31 27  7
  24249078.589     -893618.35849   -664719.47049  24249079.3334   24249085.1324
  21057832.966     -242119.98649   -182930.60949  21057832.2724   21057837.7654
  21304241.287      406285.32649    303475.58849  21304241.4964   21304247.1194
  24647747.944      961301.13549    722615.96649  24647749.5704   24647756.4224
  24489876.510      471760.01449    359122.24049  24489875.7604   24489883.8434
  23889434.934      850435.65349    648941.39749  23889434.0644   23889439.1134
  20156791.269     -152623.98349   -115704.88349  20156791.3164   20156795.7824
  22471771.963     -990404.88249   -754500.93149  22471773.2214   22471778.8964
 96  5 13 15 58  0.0000000  0  8 26  2 19 18 16 31 27  7
  24231643.559     -985243.27849   -736115.47649  24231643.4224   24231650.0074
  21053536.386     -264694.03549   -200520.76749  21053536.9034   21053541.8424
  21312883.701      451702.75449    338865.76049  21312884.3084   21312889.7154
  24668309.825     1069349.77049    806809.55449  24668309.2004   24668318.5544
  24499772.697      523764.47549    399645.13849  24499773.5444   24499780.5954
  23906980.434      942640.78149    720789.50249  23906980.8824   23906984.8884
  20154148.985     -166509.81549   -126525.01549  20154148.6644   20154153.1904
  22452329.514    -1092582.38749   -834119.73849  22452329.3754   22452335.5594
 96  5 13 15 58 30.0000000  0  8 26  2 19 18 16 31 27  7
  24214282.963    -1076487.83549   -807215.09249  24214280.5994   24214286.3504
  21049301.785     -286952.48149   -217865.00349  21049301.3514   21049306.5674
  21321604.266      497530.35349    374575.54449  21321604.5904   21321610.1224
  24688888.544     1177476.56349    891064.07749  24688887.7594   24688893.0224
  24509730.162      576084.02549    440413.55249  24509728.3714   24509737.3114
  23924587.757     1035180.57349    792898.38949  23924589.5244   23924594.8054
  20151590.401     -179954.69649   -137001.55249  20151590.5094   20151594.7714
  22432950.063    -1194421.19449   -913474.61149  22432950.4724   22432956.0114
 96  5 13 15 58 59.9990000  0  8 26  2 19 18 16 31 27  7
  24196980.480    -1167389.88749   -878047.82249  24196982.9034   24196988.4324
  21045118.186     -308936.39349   -234995.31249  21045117.9084   21045123.3384
  21330391.645      543712.37749    410561.51449  21330393.1064   21330398.6014
  24709466.242     1285623.00649    975333.90949  24709467.1074   24709473.7354
  24519735.494      628667.03749    481387.26949  24519734.8574   24519742.6444
  23942254.692     1128010.51949    865233.36749  23942255.5784   23942260.5984
  20149104.299     -193018.04149   -147180.78049  20149104.7114   20149109.0954
  22413626.500    -1295962.03649   -992597.29949  22413627.7234   22413633.8454
 96  5 13 15 59 29.9990000  0  8 26  2 19 18 16 31 27  7
  24179744.955    -1257986.30849   -948642.39049  24179742.2714   24179748.4284
  21040977.739     -330696.84049   -251951.50649  21040976.8904   21040982.1044
  21339239.031      590198.94849    446784.78749  21339239.2144   21339244.6264
  24730041.192     1393744.13049   1059583.99649  24730040.8344   24730047.4384
  24529784.942      681486.98849    522545.62049  24529786.6274   24529794.7394
  23959969.731     1221100.04249    937770.59349  23959969.0394   23959974.2084
  20146685.881     -205732.95549   -157088.51149  20146685.0954   20146689.5974
  22394352.173    -1397253.28849  -1071525.51649  22394352.0884   22394358.7784
 96  5 13 15 59 59.9990000  0  8 26  2 19 18 16 31 27  7
  24162539.891    -1348380.26349  -1019079.21549  24162542.3514   24162545.7684
  21036863.882     -352314.18049   -268796.18549  21036863.0644   21036868.2484
  21348123.583      636893.33449    483169.98149  21348125.0834   21348130.0004
  24750596.217     1501761.00249   1143752.87349  24750596.6174   24750602.9004
  24539868.565      734454.89649    563819.25649  24539867.0494   24539873.4654
  23977715.417     1314352.73549   1010434.97549  23977714.1294   23977719.7004
  20144318.174     -218169.24549   -166779.13649  20144318.4774   20144322.9354
  22375111.642    -1498366.62149  -1150315.09949  22375110.7734   22375117.4914
 96  5 13 16  0 29.9990000  0  8 26  2 19 18 16 31 27  7
  24145369.559    -1438619.75049  -1089395.66049  24145369.6174   24145374.6384
  21032774.641     -373802.00349   -285539.93749  21032774.3074   21032779.3844
  21357044.992      683766.44049    519694.44349  21357044.7734   21357050.1104
  24771127.465     1609659.87749   1227829.76549  24771128.4584   24771136.8144
  24549970.467      787546.76949    605189.47549  24549970.2774   24549976.5784
  23995487.350     1407751.42249   1083213.09349  23995487.7404   23995493.1774
  20142001.737     -230344.96549   -176266.70749  20142001.6274   20142005.7864
  22355898.120    -1599321.68949  -1228981.35649  22355900.4214   22355906.5034
 96  5 13 16  0 59.9990000  0  8 26  2 19 18 16 31 27  7
  24128241.887    -1528618.30449  -1159524.36049  24128243.4914   24128248.7234
  21028726.920     -395071.46549   -302113.54449  21028726.9064   21028732.0524
  21366017.199      730924.70349    556441.12049  21366018.6874   21366023.8824
  24791656.221     1717534.29549   1311887.61849  24791656.7194   24791665.4314
  24560116.907      840870.57349    646740.42449  24560117.2194   24560124.1494
  24013308.319     1501396.57649   1156183.29649  24013308.3764   24013314.1794
  20139755.104     -242151.57349   -185466.66449  20139754.9474   20139759.1524
  22336734.392    -1700039.73949  -1307462.92049  22336733.8494   22336740.4764
 96  5 13 16  1 29.9990000  0  8 26  2 19 16 31 27  7 15
  24111167.567    -1618341.80349  -1229438.74849  24111168.6054   24111174.5904
  21024726.332     -416095.16249   -318495.63949  21024726.2674   21024731.3594
  21375055.448      778415.04549    593446.55549  21375055.3354   21375061.0434
  24570316.276      894470.80849    688506.77949  24570315.8634   24570324.9584
  24031186.215     1595334.56149   1229381.65949  24031183.6434   24031189.2744
  20137586.153     -253546.69349   -194345.99849  20137586.6414   20137590.9314
  22317618.892    -1800487.71449  -1385734.03849  22317619.6104   22317625.1434
  24575809.569    -1166559.05859   -894443.76059  24575807.4154   24575814.8294
 96  5 13 16  1 59.9990000  0  8 26  2 19 16 31 27  7 15
  24094134.811    -1707858.59349  -1299192.05649  24094134.4814   24094139.9794
  21020760.767     -436932.86749   -334732.80549  21020760.9224   21020765.9734
  21384140.102      826155.94049    630647.22749  21384140.6404   21384146.1804
  24580553.226      948260.07449    730420.42949  24580552.0654   24580559.7744
  24049101.962     1689491.87349   1302750.94549  24049102.1294   24049106.9334
  20135481.579     -264610.82249   -202967.40049  20135481.1054   20135485.3464
  22298541.667    -1900741.24449  -1463853.65049  22298541.8914   22298548.3544
  24562686.540    -1235509.62349   -948171.41349  24562685.4674   24562692.9854
 96  5 13 16  2 29.9990000  0  8 26  2 19 16 31 27  7 15
  24077143.740    -1797132.70549  -1368756.25249  24077145.4234   24077151.9704
  21016832.951     -457576.67349   -350818.87349  21016832.7524   21016837.6664
  21393273.326      874150.90349    668045.87349  21393273.6264   21393279.2664
  24590826.764     1002250.42949    772490.75949  24590825.7834   24590832.8844
  24067060.806     1783874.70149   1376295.95349  24067061.1604   24067068.5334
  20133439.546     -275341.79449   -211329.19849  20133439.4084   20133443.3084
  22279503.048    -2000788.09649  -1541812.21049  22279504.0024   22279509.9054
  24549606.461    -1304242.79649  -1001729.66249  24549605.4314   24549613.2804
 96  5 13 16  2 59.9990000  0  8 26  2 19 16 31 27  7 15
  24060215.564    -1886116.80749  -1438094.47949  24060213.4084   24060217.6574
  21012944.549     -478010.97949   -366741.70549  21012944.2044   21012948.8534
  21402463.210      922442.11849    705675.36449  21402463.8284   21402468.6374
  24601143.602     1056464.15949    814735.15249  24601142.9544   24601150.7434
  24085070.630     1878510.88149   1450038.37849  24085071.3394   24085077.3624
  20131466.248     -285711.68449   -219409.64349  20131465.8154   20131469.8514
  22260508.888    -2100601.17549  -1619588.60749  22260509.4094   22260515.8944
  24536577.572    -1372724.79549  -1055092.18149  24536574.6434   24536582.7014
 96  5 13 16  3 29.9990000  0  8 26  2 19 16 31 27  7 15
  24043332.102    -1974817.80149  -1507212.10049  24043334.0094   24043338.4884
  21009092.204     -498252.32149   -382514.17649  21009092.0254   21009097.3834
  21411703.655      970998.31649    743511.33149  21411703.1664   21411708.5564
  24611494.575     1110861.32549    857122.49749  24611494.9534   24611501.1504
  24103121.921     1973362.76349   1523948.88349  24103120.7024   24103127.2384
  20129554.750     -295748.53449   -227230.57149  20129555.6294   20129560.1574
  22241558.761    -2200184.94549  -1697186.32149  22241559.4614   22241565.9594
  24523588.486    -1440967.41049  -1108268.18849  24523588.5664   24523594.6804
 96  5 13 16  3 59.9990000  0  8 26  2 19 16 31 27  7 15
  24026514.744    -2063211.70449  -1576090.43849  24026513.0074   24026518.7314
  21005280.338     -518286.87349   -398125.50849  21005279.7154   21005285.3854
  21420993.291     1019818.11649    781552.70449  21420993.5154   21420998.8954
  24621880.607     1165436.54949    899648.57049  24621878.9444   24621888.7664
  24121207.396     2068412.23149   1598013.36249  24121208.1044   24121213.4944
  20127713.788     -305428.65249   -234773.52249  20127713.7714   20127718.1924
  22222657.408    -2299519.09649  -1774589.53249  22222656.5934   22222663.1954
  24510653.634    -1508957.49549  -1161247.39549  24510649.8724   24510657.3004
 96  5 13 16  4 29.9990000  0  8 26  2 19 16 31 27  7 15
  24009754.448    -2151272.30449  -1644709.06249  24009755.8374   24009761.2604
  21001511.282     -538094.89049   -413560.32049  21001510.6254   21001515.9284
  21430340.223     1068931.05949    819822.49849  21430339.5214   21430344.7994
  24632304.322     1220214.89449    942332.95349  24632303.6944   24632312.2324
  24139335.128     2163678.68749   1672246.89749  24139336.6194   24139341.7984
  20125944.467     -314727.31249   -242019.24249  20125944.4184   20125948.4964
  22203808.353    -2398572.92849  -1851774.30149  22203807.5824   22203814.3604
  24497763.430    -1576669.17249  -1214009.66049  24497764.6374   24497770.3564
 96  5 13 16  4 59.9990000  0  8 26  2 19 16 31 27  7 15
  23993064.152    -2238989.01549  -1713059.72449  23993063.8434   23993069.2424
  20997788.006     -557659.60249   -428805.54949  20997787.8154   20997792.8764
  21439745.388     1118357.15249    858336.30649  21439745.0544   21439750.1244
  24642768.937     1275217.25449    985191.87549  24642770.1364   24642778.4794
  24157512.638     2259186.58649   1746668.59349  24157511.0614   24157515.9754
  20124251.710     -323621.19349   -248949.55149  20124251.9514   20124256.1174
  22185014.734    -2497324.60049  -1928723.62649  22185015.3334   22185022.0854
  24484937.629    -1644076.80749  -1266535.01549  24484936.9974   24484944.4304
 96  5 13 16  5 29.9990000  0  8 26  2 19 16 31 27  7 15
  23976439.880    -2326362.88549  -1781143.24549  23976436.7014   23976442.7184
  20994111.442     -576980.74749   -443860.98249  20994110.8184   20994116.1164
  21449207.302     1168085.93249    897085.97349  21449207.7724   21449213.0484
  24653282.679     1330444.10649   1028225.71349  24653279.9114   24653287.6884
  24175730.857     2354927.89849   1821272.15049  24175729.6884   24175734.6644
  20122638.916     -332097.02449   -255554.10149  20122639.1454   20122643.7354
  22166279.589    -2595772.18849  -2005435.99849  22166282.1814   22166288.1304
  24472169.282    -1711177.94349  -1318821.55449  24472168.0534   24472175.8274
 96  5 13 16  5 59.9990000  0  8 26  2 19 16 31 27  7 15
  23959882.725    -2413360.70349  -1848933.73249  23959882.2784   23959885.4824
  20990487.334     -596024.95449   -458700.61749  20990486.8644   20990491.8614
  21458738.510     1218170.65049    936113.00049  21458738.6834   21458744.1274
  24663839.088     1385937.08849   1071466.94849  24663841.7364   24663847.1884
  24194003.653     2450959.84149   1896102.19149  24194004.5694   24194010.3804
  20121114.803     -340107.84049   -261796.30249  20121114.6804   20121118.9794
  22147611.770    -2693882.13849  -2081885.28549  22147611.9834   22147618.2454
  24459461.875    -1777933.35649  -1370838.67449  24459465.1304   24459473.1444
 96  5 13 16  6 29.9990000  0  8 26  2 19 16 31 27  7 15
  23943389.826    -2500019.20149  -1916459.81549  23943391.3864   23943397.9884
  20986913.895     -614802.76149   -473332.66949  20986913.9534   20986918.6134
  21468338.426     1268615.03349    975420.27949  21468338.3874   21468343.7304
  24674448.546     1441688.38349   1114909.45149  24674449.5044   24674456.0524
  24212334.979     2547280.05949   1971156.86349  24212334.8514   24212338.5674
  20119674.775     -347675.47149   -267693.17049  20119674.6784   20119678.9374
  22129005.012    -2791665.50549  -2158080.08849  22129004.3904   22129010.8394
  24446824.867    -1844354.44749  -1422595.29149  24446826.4374   24446833.8954
 96  5 13 16  6 59.9990000  0  8 26  2 19 16 31 27  7 15
  23926968.834    -2586326.06249  -1983711.89749  23926967.6334   23926972.2254
  20983392.851     -633305.03249   -487750.02149  20983392.9334   20983397.6854
  21478008.961     1319437.96549   1015022.53349  21478009.6494   21478014.9274
  24685108.332     1497700.35749   1158555.08349  24685108.5734   24685115.0054
  24230721.358     2643897.64849   2046443.23849  24230721.8004   24230725.6124
  20118322.254     -354781.64349   -273230.46149  20118322.2854   20118326.8984
  22110460.928    -2889110.84849  -2234011.50249  22110461.4944   22110467.8504
  24434252.118    -1910426.96849  -1474080.26949  24434253.9394   24434260.3964
 96  5 13 16  7 29.9990000  0  8 26  2 19 16 31 27  7 15
  23910617.960    -2672243.56049  -2050660.58349  23910619.4174   23910623.9984
  20979931.252     -651497.49349   -501925.95249  20979930.5924   20979935.7094
  21487757.462     1370667.97649   1054941.99549  21487758.6184   21487763.9144
  24695818.067     1553979.16349   1202408.62949  24695816.6554   24695826.2684
  24249165.227     2740822.91849   2121969.38149  24249163.3514   24249169.2254
  20117063.856     -361394.77749   -278383.55749  20117063.9784   20117068.3274
  22091986.549    -2986196.44749  -2309662.58149  22091986.3864   22091992.7024
  24421751.914    -1976126.88349  -1525274.90049  24421750.6624   24421756.9884
 96  5 13 16  7 59.9990000  0  8 26  2 19 16 31 27  7 15
  23894348.289    -2757743.50249  -2117283.89649  23894348.8884   23894354.2424
  20976536.063     -669337.37149   -515827.15149  20976536.1874   20976540.9684
  21497586.638     1422317.86049   1095188.62749  21497587.3324   21497592.4874
  24706579.573     1610542.54849   1246483.89849  24706579.6704   24706588.2814
  24267670.011     2838067.14749   2197744.05649  24267667.7854   24267673.2244
  20115901.581     -367502.69049   -283142.98149  20115901.8524   20115906.2354
  22073583.043    -3082902.08449  -2385017.59349  22073583.5374   22073589.8474
  24409324.333    -2041430.62749  -1576160.83649  24409324.5334   24409330.6734
 96  5 13 16  8 29.9990000  0  7 26  2 19 31 27  7 15
  23878155.591    -2842830.57049  -2183585.48249  23878157.6834   23878162.5294
  20973206.454     -686834.66049   -529461.39549  20973206.2434   20973211.3964
  21507492.085     1474368.91049   1135747.86249  21507492.2344   21507497.6704
  24286229.829     2935601.79449   2273745.02649  24286230.7444   24286234.3524
  20114831.461     -373126.10049   -287524.87449  20114831.9274   20114836.2444
  22055250.398    -3179241.47449  -2460087.22649  22055251.2194   22055257.8364
  24396970.310    -2106346.49449  -1626744.52749  24396970.9724   24396978.6114
 96  5 13 16  8 59.9990000  0  7 26  2 19 31 27  7 15
  23862048.584    -2927457.12349  -2249528.22949  23862053.1444   23862057.2744
  20969943.091     -703982.15049   -542823.07449  20969943.4134   20969948.2744
  21517474.100     1526828.53649   1176625.46549  21517474.5274   21517480.4004
  24304847.278     3033431.50749   2349975.92049  24304846.1104   24304850.5284
  20113855.444     -378251.37749   -291518.60849  20113856.5064   20113860.6694
  22036989.742    -3275200.42749  -2534860.41049  22036990.9794   22036997.8024
  24384692.836    -2170854.05649  -1677010.06249  24384694.1534   24384702.5804
 96  5 13 16  9 29.9990000  0  7 26  2 19 31 27  7 15
  23846037.497    -3011622.80349  -2315111.84849  23846036.8514   23846041.7304
  20966745.586     -720785.89649   -555916.90049  20966745.6984   20966750.9654
  21527535.152     1579695.52949   1217820.49849  21527534.9824   21527540.4824
  24323516.776     3131545.15649   2426428.06649  24323516.6234   24323522.8784
  20112974.522     -382885.24249   -295129.43349  20112974.5744   20112979.0684
  22018807.009    -3370760.39649  -2609322.70349  22018806.2764   22018813.1504
  24372497.307    -2234947.86549  -1726953.22149  24372497.6944   24372505.1074
 96  5 13 16  9 59.9990000  0  7 26  2 19 31 27  7 15
  23830108.268    -3095322.25049  -2380332.16049  23830108.9134   23830114.3584
  20963613.546     -737245.18449   -568742.32049  20963613.8484   20963619.0994
  21537676.447     1632988.37149   1259347.35649  21537676.6114   21537682.2314
  24342243.569     3229958.32849   2503113.58949  24342243.6674   24342249.9894
  20112185.404     -387032.23849   -298360.87149  20112185.5634   20112189.9384
  22000704.124    -3465890.67849  -2683450.17449  22000703.9644   22000710.6524
  24360381.325    -2298612.79249  -1776562.16049  24360382.4054   24360389.8974
 96  5 13 16 10 29.9990000  0  7 26  2 19 31 27  7 15
  23814267.304    -3178567.54449  -2445198.61549  23814268.5494   23814273.0924
  20960542.819     -753383.32549   -581317.48849  20960542.8234   20960548.0504
  21547898.603     1686704.27349   1301203.87849  21547898.8604   21547904.0734
  24361027.926     3328660.43949   2580024.25949  24361025.9054   24361032.5174
  20111486.919     -390703.94549   -301221.95449  20111486.9074   20111491.0084
  21982684.637    -3560573.74249  -2757229.16649  21982686.2824   21982692.5064
  24348349.641    -2361854.56549  -1825841.42949  24348348.5344   24348354.3734
 96  5 13 16 10 59.9990000  0  7 26  2 19 31 27  7 15
  23798512.944    -3261359.14949  -2509711.51149  23798513.8474   23798517.7434
  20957534.387     -769195.57449   -593638.71449  20957533.9374   20957538.9814
  21558198.782     1740834.55649   1343383.28349  21558199.1604   21558204.3934
  24379866.233     3427648.94749   2657158.11649  24379863.3494   24379869.1024
  20110879.679     -393893.74049   -303707.51849  20110879.7684   20110884.0104
  21964755.123    -3654802.37949  -2830654.05449  21964755.7614   21964761.4294
  24336395.137    -2424674.30249  -1874791.76149  24336394.7844   24336400.8814
 96  5 13 16 11 29.9990000  0  7 26  2 19 31 27  7 15
  23782844.878    -3343695.18549  -2573869.43949  23782845.5184   23782850.3994
  20954592.275     -784655.12349   -605685.11349  20954592.1844   20954596.9704
  21568580.769     1795394.39449   1385897.41749  21568581.2474   21568586.9804
  24398759.020     3526945.49049   2734531.98849  24398757.7574   24398764.6414
  20110368.875     -396574.67749   -305796.57449  20110369.8054   20110373.7354
  21946912.217    -3748566.69849  -2903717.14449  21946912.5414   21946918.2894
  24324521.526    -2487056.05649  -1923400.85449  24324523.1084   24324530.4004
 96  5 13 16 11 59.9990000  0  7 26  2 19 31 27  7 15
  23767266.398    -3425573.43449  -2637670.65249  23767264.5954   23767270.1764
  20951719.312     -799750.26349   -617447.55149  20951719.0294   20951724.0044
  21579046.054     1850385.64349   1428747.72449  21579045.6754   21579051.3224
  24417714.337     3626568.51149   2812160.24649  24417716.8204   24417721.5664
  20109960.501     -398723.10949   -307470.69949  20109961.0834   20109965.3634
  21929154.452    -3841885.81049  -2976433.31649  21929154.4154   21929160.6524
  24312738.918    -2548992.21349  -1971662.74849  24312737.8804   24312744.6104
 96  5 13 16 12 29.9990000  0  6 26  2 19 27  7 15
  23751768.863    -3506999.99749  -2701119.89949  23751769.2204   23751775.0414
  20948914.758     -814495.72349   -628937.52149  20948913.3694   20948918.3524
  21589589.435     1905794.23849   1471923.23449  21589589.8834   21589595.1324
  20109653.851     -400334.26749   -308726.16449  20109654.3744   20109658.9354
  21911476.770    -3934781.11149  -3048819.24649  21911476.7424   21911483.2034
  24301035.163    -2610485.89649  -2019579.84249  24301036.0374   24301041.4364
 96  5 13 16 12 59.9990000  0  6 26  2 19 27  7 15
  23736357.125    -3587985.50149  -2764225.46449  23736358.3234   23736364.9424
  20946168.546     -828923.69349   -640180.09149  20946168.1134   20946173.2604
  21600211.180     1961607.71649   1515414.23149  21600211.1074   21600215.9914
  20109448.796     -401411.19549   -309565.33849  20109449.6234   20109453.7974
  21893873.006    -4027287.56049  -3120902.17549  21893873.7864   21893879.5024
  24289417.115    -2671545.25049  -2067158.50149  24289416.0734   24289422.9944
 96  5 13 16 13 29.9990000  0  6 26  2 19 27  7 15
  23721031.613    -3668528.37249  -2826986.12449  23721031.7084   23721037.2684
  20943480.268     -843045.12849   -651183.80449  20943480.7634   20943486.0094
  21610911.541     2017841.50249   1559232.74149  21610911.7414   21610917.1764
  20109348.922     -401938.84049   -309976.50849  20109349.2324   20109353.6214
  21876347.215    -4119385.37949  -3192666.69149  21876348.3104   21876354.0934
  24277879.465    -2732156.24649  -2114387.82749  24277882.2214   24277890.1894
 96  5 13 16 13 59.9990000  0  6 26  2 19 27  7 15
  23705785.643    -3748635.80749  -2889407.48249  23705788.1074   23705792.9524
  20940848.453     -856877.74449   -661962.46649  20940848.6354   20940853.8664
  21621689.597     2074479.16749   1603365.95649  21621689.6764   21621694.7774
  20109349.510     -401935.92149   -309974.25549  20109349.5344   20109353.9194
  21858900.949    -4211067.11749  -3264106.98249  21858901.2444   21858907.8364
  24266432.125    -2792324.71249  -2161272.35949  24266432.8414   24266439.9334
 96  5 13 16 14 29.9990000  0  6 26  2 19 27  7 15
  23690627.630    -3828294.54549  -2951479.21749  23690629.7264   23690634.8484
  20938270.995     -870423.36349   -672517.49549  20938271.0244   20938276.2934
  21632542.859     2131511.78049   1647806.92749  21632542.7724   21632547.5644
  20109447.153     -401424.74149   -309575.93449  20109447.0654   20109451.3314
  21841535.966    -4302316.95749  -3335210.73349  21841537.0034   21841543.0444
  24255066.815    -2852052.57749  -2207813.50149  24255066.5774   24255073.6864
 96  5 13 16 14 59.9990000  0  6 26  2 19 27  7 15
  23675556.700    -3907497.72549  -3013195.95249  23675557.6874   23675562.9464
  20935750.806     -883665.13949   -682835.76449  20935750.9934   20935756.0124
  21643470.514     2188937.90249   1692554.51949  21643470.6634   21643475.6424
  20109642.059     -400399.51549   -308777.07049  20109642.1584   20109646.5214
  21824255.929    -4393129.98649  -3405974.10549  21824256.1614   21824261.9944
  24243787.796    -2911336.06449  -2254008.42249  24243785.6694   24243792.8464
 96  5 13 16 15 29.9990000  0  6 26  2 19 27  7 15
  23660570.918    -3986253.02249  -3074563.70649  23660570.2234   23660576.1184
  20933290.720     -896593.28349   -692909.64249  20933291.0744   20933295.8224
  21654470.742     2246744.27349   1737598.41749  21654470.6784   21654476.3264
  20109931.163     -398881.80349   -307594.45049  20109931.0114   20109935.5824
  21807055.467    -4483519.50049  -3476407.47349  21807055.3904   21807061.4694
  24232586.592    -2970192.70149  -2299870.76449  24232585.0504   24232593.2874
 96  5 13 16 15 59.9990000  0  6 26  2 19 27  7 15
  23645675.401    -4064532.49549  -3135560.67249  23645674.1934   23645680.5134
  20930895.970     -909178.35849   -702716.19949  20930895.7614   20930900.7924
  21665542.275     2304926.24049   1782934.97949  21665542.2754   21665547.9674
  20110311.489     -396883.86149   -306037.62249  20110310.9814   20110315.6414
  21789933.169    -4573493.61749  -3546517.15449  21789934.3834   21789939.5844
  24221467.304    -3028616.96049  -2345396.15849  24221467.1974   24221474.4594
 96  5 13 16 16 29.9990000  0  6 26  2 19 27  7 15
  23630867.757    -4142342.63849  -3196191.95249  23630868.4894   23630873.6464
  20928564.033     -921433.10049   -712265.35049  20928563.9664   20928568.7164
  21676683.973     2363478.08249   1828559.75649  21676684.3964   21676689.6124
  20110781.921     -394412.08849   -304111.57649  20110782.0084   20110786.1894
  21772887.856    -4663070.78649  -3616317.51349  21772888.0284   21772893.8134
  24210429.547    -3086613.15549  -2390587.98349  24210430.3924   24210438.9134
 96  5 13 16 16 59.9990000  0  6 26  2 19 27  7 15
  23616150.293    -4219681.70749  -3256456.16049  23616150.4884   23616155.2704
  20926296.071     -933346.71949   -721548.69449  20926296.9204   20926301.8774
  21687901.169     2422421.01349   1874489.27349  21687901.1434   21687905.9294
  20111347.193     -391440.16249   -301795.79549  20111347.1894   20111351.3974
  21755919.538    -4752237.61849  -3685798.13649  21755920.2064   21755926.1194
  24199480.965    -3144162.93349  -2435431.97949  24199480.7894   24199486.8224
 96  5 13 16 17 29.9990000  0  6 26  2 19 27  7 15
  23601514.103    -4296592.61749  -3316386.72449  23601515.3874   23601520.7674
  20924084.828     -944971.44949   -730606.92049  20924084.9284   20924089.8134
  21699184.711     2481718.65349   1920695.19149  21699185.1074   21699190.0984
  20111999.723     -388013.63749   -299125.79649  20111999.3884   20112003.4144
  21739025.153    -4841017.78949  -3754977.45349  21739025.7954   21739031.9624
  24188606.417    -3201303.68449  -2479957.24649  24188607.0444   24188614.3044
 96  5 13 16 17 59.9990000  0  6 26  2 19 27  7 15
  23586957.731    -4373082.49349  -3375989.22349  23586960.3104   23586964.4954
  20921926.764     -956317.68049   -739448.14649  20921925.5154   20921930.7954
  21710536.629     2541373.35649   1967179.33349  21710537.2354   21710542.3004
  20112740.203     -384120.78749   -296092.41949  20112739.7054   20112744.3184
  21722206.792    -4929401.17549  -3823847.59949  21722207.2704   21722213.0654
  24177811.228    -3258024.13249  -2524154.98549  24177813.1194   24177819.7114
 96  5 13 16 18 29.9990000  0  6 26  2 19 27  7 15
  23572480.771    -4449173.99949  -3435281.29449  23572479.8054   23572484.6074
  20919813.994     -967414.91749   -748095.34649  20919814.3074   20919818.7234
  21721957.346     2601388.97349   2013944.72449  21721957.6734   21721962.8404
  20113570.719     -379754.15549   -292689.85649  20113571.2554   20113575.4624
  21705463.886    -5017387.13549  -3892408.06149  21705463.7174   21705469.6104
  24167095.975    -3314331.28349  -2568030.67849  24167097.9964   24167105.8014
 96  5 13 16 18 59.9990000  0  6 26  2 19 27  7 15
  23558073.549    -4524871.84649  -3494266.60349  23558074.8524   23558079.0724
  20917747.072     -978275.46449   -756558.11649  20917747.2074   20917752.1564
  21733445.147     2661754.03149   2060982.40249  21733444.6574   21733450.4994
  20114490.199     -374919.90749   -288922.93249  20114491.2424   20114495.7124
  21688794.828    -5104977.80249  -3960660.50449  21688795.8904   21688801.3554
  24156458.672    -3370239.27849  -2611595.32849  24156459.4364   24156467.0384
 96  5 13 16 19 29.9990000  0  6 26  2 19 27  7 15
  23543745.486    -4600158.29649  -3552931.34849  23543748.7324   23543752.3874
  20915725.073     -988901.74349   -764838.34149  20915725.0234   20915729.9344
  21744998.767     2722471.01549   2108294.29149  21744998.6234   21745003.9574
  20115500.734     -369612.98449   -284787.66749  20115500.6174   20115505.3054
  21672202.118    -5192177.35449  -4028608.18049  21672202.2794   21672208.2644
  24145897.494    -3425744.01849  -2654845.75849  24145897.0224   24145904.5884
 96  5 13 16 19 59.9990000  0  6 26  2 19 27  7 15
  23529499.153    -4675033.08649  -3611275.32549  23529500.3324   23529504.5544
  20913744.284     -999307.76849   -772946.94149  20913744.6494   20913750.3004
  21756617.019     2783521.99749   2155866.43949  21756616.7784   21756621.5734
  20116597.936     -363844.51449   -280292.76249  20116598.8184   20116603.1034
  21655678.705    -5279008.77249  -4096268.98749  21655678.7734   21655685.0794
  24135410.528    -3480855.97349  -2697790.11149  24135409.3774   24135416.2984
 96  5 13 16 20 29.9990000  0  6 26  2 19 27  7 15
  23515329.739    -4749495.48349  -3669297.95349  23515330.9474   23515334.9024
  20911803.280    -1009509.78949   -780896.57349  20911803.3114   20911808.9204
  21768293.728     2844886.96249   2203683.24949  21768294.1054   21768299.1844
  20117780.420     -357632.52249   -275452.27049  20117780.3704   20117785.0184
  21639224.171    -5365472.66049  -4163643.41749  21639225.5064   21639231.3294
  24124995.324    -3535587.35549  -2740437.91049  24124994.6064   24125000.6994
 96  5 13 16 20 59.9990000  0  6 26  2 19 27  7 15
  23501238.060    -4823546.13149  -3726999.75149  23501238.7994   23501243.6994
  20909903.396    -1019498.51749   -788680.00749  20909902.7614   20909907.8624
  21780028.886     2906556.40649   2251737.31449  21780029.8654   21780034.5124
  20119048.110     -350973.06849   -270263.10949  20119047.9684   20119052.3184
  21622840.182    -5451572.46849  -4230734.14749  21622840.6954   21622846.9084
  24114653.260    -3589931.97849  -2782784.32649  24114653.2684   24114659.1714
 96  5 13 16 21 29.9990000  0  6 26  2 19 27  7 15
  23487227.827    -4897183.25949  -3784379.31449  23487226.2824   23487231.1274
  20908044.370    -1029263.49049   -796289.08349  20908044.3484   20908049.3194
  21791822.441     2968534.52249   2300031.91849  21791823.0774   21791828.8464
  20120398.851     -343870.53449   -264728.67349  20120399.4594   20120403.8564
  21606525.801    -5537311.41449  -4297543.68749  21606525.9414   21606531.5644
  24104386.866    -3643882.82849  -2824823.89949  24104386.7664   24104392.9154
 96  5 13 16 21 59.9990000  0  6 26  2 19 27  7 15
  23473287.177    -4970430.77049  -3841455.29149  23473288.5594   23473292.3764
  20906228.263    -1038809.89949   -803727.85049  20906228.3044   20906233.2084
  21803671.854     3030798.79749   2348549.49249  21803672.1284   21803677.5014
  20121830.449     -336350.04149   -258868.55949  20121830.6784   20121835.2074
  21590277.484    -5622697.70649  -4364078.43249  21590277.7184   21590282.4924
  24094189.367    -3697451.98349  -2866566.07949  24094192.2414   24094199.3844
 96  5 13 16 22 29.9990000  0  6 26  2 19 27  7 15
  23459418.733    -5043308.70349  -3898243.27549  23459419.5534   23459424.9324
  20904454.949    -1048127.63449   -810988.42649  20904454.7854   20904459.6674
  21815572.907     3093342.75949   2397285.00549  21815573.9714   21815578.9904
  20123340.047     -328419.52749   -252688.95149  20123339.9064   20123344.3734
  21574092.004    -5707750.79249  -4430353.53149  21574092.0264   21574098.0694
  24084068.934    -3750646.06549  -2908015.93449  24084071.2194   24084077.1474
 96  5 13 16 22 59.9990000  0  6 26  2 19 27  7 15
  23445619.237    -5115822.96649  -3954747.88549  23445621.0764   23445626.3554
  20902725.037    -1057215.55949   -818069.93949  20902725.4744   20902730.6114
  21827526.730     3156162.68349   2446235.55549  21827527.7294   21827533.5154
  20124924.514     -320089.23349   -246197.82949  20124924.9164   20124929.4044
  21557965.245    -5792492.60049  -4496386.08149  21557966.2394   21557972.1634
  24074020.300    -3803473.67649  -2949180.25949  24074017.8704   24074025.6034
 96  5 13 16 23 29.9990000  0  6 26  2 19 27  7 15
  23431894.133    -5187951.76949  -4010952.13349  23431895.4864   23431899.6324
  20901041.088    -1066069.03549   -824968.75149  20901040.7824   20901045.9784
  21839535.699     3219268.24349   2495408.68349  21839536.4514   21839542.1414
  20126584.675     -311366.78749   -239401.13549  20126584.9474   20126589.1824
  21541901.599    -5876913.26449  -4562168.39049  21541901.0584   21541907.5864
  24064034.752    -3855929.31649  -2990054.74649  24064035.7094   24064042.7914
 96  5 13 16 23 59.9990000  0  6 26  2 19 27  7 15
  23418239.747    -5259707.20949  -4066865.45949  23418240.5054   23418245.2264
  20899396.269    -1074709.65949   -831701.71149  20899396.8164   20899401.9994
  21851596.411     3282643.94249   2544792.30549  21851596.6904   21851602.1004
  20128319.848     -302249.22449   -232296.54749  20128319.9284   20128324.8084
  21525896.532    -5961014.83449  -4627702.05549  21525897.4454   21525903.3864
  24054124.787    -3908019.53649  -3030644.46549  24054122.6114   24054130.0514
 96  5 13 16 24 29.9990000  0  6 26  2 19 27  7 15
  23404659.239    -5331077.96949  -4122479.03249  23404658.1214   23404663.2664
  20897791.427    -1083147.76149   -838276.86049  20897791.2434   20897796.1214
  21863709.342     3346298.45849   2594393.17949  21863708.9434   21863715.1424
  20130132.960     -292720.88949   -224871.88249  20130133.2684   20130137.7884
  21509956.723    -6044780.50249  -4692973.98449  21509957.3234   21509963.3764
  24044282.889    -3959737.95149  -3070944.46749  24044281.0764   24044288.8944
 96  5 13 16 24 59.9990000  0  6 26  2 19 27  7 15
  23391148.636    -5402071.52449  -4177798.68249  23391149.1864   23391154.5524
  20896215.254    -1091428.03649   -844729.01949  20896215.3254   20896220.1714
  21875871.043     3410212.09249   2644195.96149  21875872.0724   21875877.7304
  20132020.927     -282803.40849   -217143.98649  20132020.7174   20132024.5764
  21494080.656    -6128206.35249  -4757981.11149  21494081.6094   21494088.0084
  24034508.808    -4011102.64649  -3110968.85449  24034506.8374   24034513.2044
 96  5 13 16 25 29.9990000  0  6 26  2 19 27  7 15
  23377707.963    -5472701.33049  -4232834.87849  23377708.7494   23377714.3644
  20894667.409    -1099565.71149   -851070.07149  20894666.6334   20894671.2934
  21888082.793     3474377.29049   2694194.75949  21888082.9514   21888088.0544
  20133982.319     -272493.66249   -209110.43249  20133982.3674   20133986.7004
  21478273.749    -6211276.35449  -4822710.95649  21478274.0214   21478280.2214
  24024801.852    -4062109.07349  -3150714.05649  24024801.2754   24024808.2334
 96  5 13 16 25 59.9990000  0  6 26  2 19 27  7 15
  23364334.775    -5542977.75949  -4287595.72949  23364335.7324   23364340.6454
  20893143.449    -1107566.40949   -857304.38949  20893144.0504   20893149.4274
  21900341.768     3538796.54949   2744391.53849  21900341.5044   21900346.7184
  20136021.507     -261778.62349   -200761.06549  20136021.3184   20136025.7254
  21462534.979    -6293984.67249  -4887158.96949  21462535.0704   21462540.9484
  24015165.718    -4112751.86649  -3190175.93349  24015162.2464   24015170.7634
 96  5 13 16 26 29.9990000  0  6 26  2 19 27  7 15
  23351031.227    -5612894.92049  -4342076.61749  23351031.0224   23351036.1364
  20891647.660    -1115428.41449   -863430.63349  20891648.2304   20891653.0964
  21912647.196     3603471.69949   2794787.72149  21912648.0434   21912653.5124
  20138133.939     -250674.89249   -192108.82849  20138134.1724   20138138.8444
  21446861.542    -6376346.74549  -4951337.18349  21446862.3924   21446868.1784
  24005594.482    -4163034.65949  -3229357.28449  24005594.5544   24005601.9424
 96  5 13 16 26 59.9990000  0  6 26  2 19 27  7 15
  23337793.838    -5682460.22549  -4396283.33849  23337793.7784   23337798.2954
  20890176.695    -1123159.70749   -869455.02449  20890176.9284   20890182.1184
  21925002.854     3668395.75349   2845377.85449  21925002.9584   21925008.4224
  20140320.328     -239191.13349   -183160.45649  20140319.6544   20140323.8704
  21431251.099    -6458383.27149  -5015261.72649  21431251.0984   21431256.7034
  23996095.428    -4212963.27849  -3268262.64949  23996094.0874   23996100.5114
 96  5 13 16 27 29.9990000  0  6 26  2 19 27  7 15
  23324619.972    -5751682.12649  -4450222.46249  23324621.1694   23324626.8414
  20888732.047    -1130754.40749   -875372.98249  20888732.0364   20888736.8884
  21937404.864     3733566.36849   2896160.10449  21937404.8104   21937410.3664
  20142576.345     -227331.07849   -173918.87149  20142576.3964   20142581.2214
  21415698.223    -6540116.26749  -5078949.74649  21415697.9474   21415703.5774
  23986658.355    -4262540.06349  -3306893.86349  23986659.9414   23986667.3074
 96  5 13 16 27 59.9990000  0  6 26  2 19 27  7 15
  23311515.730    -5820548.45449  -4503884.53149  23311516.5174   23311521.2394
  20887315.412    -1138201.19249   -881175.67549  20887314.7054   20887319.6674
  21949854.724     3798992.49349   2947141.45149  21949855.1124   21949860.0824
  20144901.801     -215107.87249   -164394.29649  20144902.4514   20144906.9714
  21400199.387    -6621562.10949  -5142414.01449  21400199.5264   21400204.6634
  23977290.447    -4311768.00749  -3345253.27249  23977292.0174   23977298.4654
 96  5 13 16 28 29.9990000  0  6 26  2 19 27  7 15
  23298476.495    -5889068.23249  -4557276.55549  23298477.0584   23298481.6634
  20885925.537    -1145504.63049   -886866.66749  20885924.9514   20885929.7544
  21962349.954     3864655.96449   2998307.75049  21962350.5304   21962355.7654
  20147293.517     -202543.25549   -154603.70349  20147293.5104   20147297.8764
  21384753.652    -6702726.06149  -5205658.62449  21384754.3664   21384759.5344
  23967991.050    -4360655.92249  -3383347.70449  23967988.5914   23967995.2574
 96  5 13 16 28 59.9990000  0  6 26  2 19 27  7 15
  23285501.745    -5957251.35149  -4610406.25049  23285502.2964   23285507.7274
  20884560.228    -1152677.22049   -892455.70149  20884560.1294   20884564.7794
  21974889.146     3930546.84949   3049651.25149  21974889.1284   21974894.1044
  20149749.985     -189637.03649   -144546.93149  20149749.7964   20149754.0114
  21369365.648    -6783586.09549  -5268666.41449  21369367.2574   21369372.3754
  23958753.129    -4409203.14549  -3421176.66449  23958750.1894   23958756.6464
 96  5 13 16 29 29.9990000  0  6 26  2 19 27  7 15
  23272593.537    -6025080.65349  -4663260.25449  23272595.5184   23272599.4454
  20883224.465    -1159694.50749   -897923.72549  20883224.5894   20883229.3224
  21987472.784     3996674.28249   3101179.08649  21987472.6164   21987478.3064
  20152272.893     -176377.25749   -134214.64949  20152272.7834   20152277.0754
  21354041.982    -6864119.93449  -5331420.02949  21354042.0594   21354047.7964
  23949578.569    -4457387.62949  -3458722.98549  23949581.4904   23949587.7324
 96  5 13 16 29 59.9990000  0  6 26  2 19 27  7 15
  23259748.994    -6092576.31449  -4715854.28049  23259749.6494   23259755.5684
  20881915.061    -1166576.93249   -903286.65949  20881914.9564   20881919.7864
  22000096.115     4063009.80949   3152869.06149  22000095.7434   22000101.0694
  20154863.113     -162766.37649   -123608.78449  20154862.8314   20154867.2394
  21338778.136    -6944330.72749  -5393921.91849  21338778.5724   21338784.0544
  23940477.188    -4505221.83849  -3495996.36349  23940478.7274   23940485.6434
 96  5 13 16 30 29.9990000  0  6 26  2 19 27  7 15
  23246968.887    -6159743.24349  -4768192.14849  23246969.6204   23246974.1894
  20880626.958    -1173348.00049   -908562.82349  20880626.8454   20880631.3574
  22012754.406     4129530.79649   3204703.54849  22012754.3204   22012759.8334
  20157524.415     -148780.35049   -112710.59849  20157524.2784   20157528.8284
  21323575.550    -7024217.52349  -5456171.34549  21323576.2844   21323581.5724
  23931441.018    -4552705.94549  -3532996.92849  23931442.8344   23931449.6274
 96  5 13 16 30 59.9990000  0  6 26  2 19 27  7 15
  23234245.921    -6226594.57949  -4820284.10149  23234247.0944   23234252.1164
  20879356.169    -1180028.26949   -913768.23349  20879355.4674   20879360.2384
  22025444.195     4196216.79149   3256666.61649  22025444.7374   22025450.1534
  20160256.694     -134423.27649   -101523.27349  20160256.4034   20160260.9624
  21308430.855    -7103805.90849  -5518188.24049  21308431.2674   21308436.7124
  23922469.034    -4599857.20849  -3569738.14449  23922469.5224   23922477.0204
 96  5 13 16 31 29.9990000  0  6 26  2 19 27  7 15
  23221593.845    -6293099.08649  -4872105.78949  23221591.7784   23221597.5784
  20878110.079    -1186575.35349   -918869.86049  20878109.5314   20878114.8844
  22038172.966     4263102.68249   3308785.44949  22038172.7524   22038178.2784
  20163065.269     -119663.82749    -90022.41449  20163065.3084   20163069.5434
  21293343.734    -7183088.41849  -5579966.79149  21293344.1254   21293349.7014
  23913568.162    -4646648.30249  -3606198.71149  23913565.3944   23913572.6864
 96  5 13 16 31 59.9990000  0  6 26  2 19 27  7 15
  23209005.754    -6359243.12349  -4923646.60049  23209005.5644   23209011.3374
  20876889.120    -1192989.35049   -923867.78649  20876889.0204   20876894.3684
  22050939.362     4330196.24549   3361066.09849  22050939.8944   22050945.7254
  20165952.133     -104495.42949    -78202.90049  20165951.6294   20165956.1924
  21278317.363    -7262058.67849  -5641502.03149  21278316.3614   21278322.2654
  23904734.885    -4693077.02749  -3642376.93449  23904731.2724   23904737.5424
 96  5 13 16 32 29.9990000  0  6 26  2 19 27  7 15
  23196485.882    -6425028.91749  -4974908.25549  23196488.5264   23196492.4404
  20875689.778    -1199292.34649   -928779.21249  20875689.4214   20875694.5454
  22063745.217     4397488.65649   3413501.69449  22063745.1424   22063750.9554
  20168906.620      -88963.60849    -66100.19649  20168907.0654   20168911.6984
  21263344.248    -7340736.27049  -5702809.22449  21263344.9754   21263350.7054
  23895965.222    -4739163.25349  -3678288.23649  23895959.8314   23895967.3924
 96  5 13 16 32 59.9990000  0  6 26  2 19 27  7 15
  23184041.596    -6490432.47949  -5025872.06949  23184042.2794   23184046.2984
  20874517.079    -1205455.38349   -933581.57949  20874516.8964   20874521.4804
  22076596.211     4465019.50949   3466123.08349  22076596.0674   22076601.4814
  20171928.918      -73084.59849    -53726.95649  20171928.5454   20171933.2074
  21248433.221    -7419099.55549  -5763871.50149  21248433.0414   21248438.7694
  23887260.077    -4784888.61149  -3713918.37149  23887260.1194   23887266.3504
 96  5 13 16 33 29.9990000  0  6 26  2 19 27  7 15
  23171670.797    -6555437.14849  -5076525.06149  23171671.8254   23171676.6004
  20873369.488    -1211484.14549   -938279.31949  20873369.6354   20873374.2894
  22089493.605     4532792.01649   3518932.78249  22089493.0994   22089498.3274
  20175015.043      -56864.59049    -41088.00149  20175015.4814   20175020.1464
  21233579.364    -7497149.20049  -5824689.38749  21233580.9384   21233586.6474
  23878625.740    -4830247.78049  -3749263.13749  23878628.6734   23878634.6954
 96  5 13 16 33 59.9990000  0  6 26  2 19 27  7 15
  23159374.552    -6620060.02449  -5126880.55149  23159374.2054   23159379.8594
  20872242.840    -1217406.27549   -942893.96449  20872242.5424   20872247.3224
  22102430.386     4600777.12449   3571908.15049  22102429.5514   22102434.8214
  20178163.031      -40321.39749    -28197.20749  20178163.2454   20178168.0304
  21218787.736    -7574889.21049  -5885265.99549  21218786.9354   21218792.8524
  23870065.021    -4875253.62649  -3784332.60749  23870064.4824   23870071.5094
 96  5 13 16 34 29.9990000  0  6 26  2 19 27  7 15
  23147149.056    -6684301.97049  -5176939.22449  23147148.9984   23147153.4814
  20871139.743    -1223203.68049   -947411.42149  20871139.2654   20871144.1984
  22115410.378     4668985.48849   3625057.47149  22115409.4544   22115414.9164
  20181376.137      -23438.13849    -15041.43349  20181376.0124   20181381.0354
  21204054.670    -7652303.25549  -5945588.61249  21204055.9684   21204061.5374
  23861572.091    -4919891.08949  -3819115.01849  23861569.8654   23861577.1064
 96  5 13 16 34 59.9990000  0  6 26  2 19 27  7 15
  23134992.583    -6748184.33349  -5226717.69449  23134993.2944   23134997.2694
  20870060.894    -1228873.93849   -951829.80649  20870060.4824   20870065.5184
  22128428.510     4737402.61149   3678369.47149  22128428.7354   22128434.9584
  20184658.663       -6188.30149     -1600.02949  20184659.0234   20184663.7344
  21189385.089    -7729395.14349  -6005660.20249  21189385.3854   21189391.2364
  23853145.691    -4964158.91049  -3853609.39349  23853145.7834   23853151.7134
 96  5 13 16 35 29.9990000  0  6 26  2 19 27  7 15
  23122904.261    -6811706.41249  -5276215.42049  23122905.0094   23122910.3584
  20869008.643    -1234400.19449   -956135.98649  20869008.9164   20869014.1314
  22141486.108     4806027.53549   3731843.38949  22141487.7424   22141493.3714
  20188017.629       11464.12749     12155.07349  20188018.1714   20188022.5144
  21174779.794    -7806144.46349  -6065464.84749  21174780.6394   21174786.2104
  23844796.667    -5008042.16449  -3887804.10549  23844795.4434   23844801.1914
 96  5 13 16 35 59.9990000  0  6 26  2 19 27  7 15
  23110881.617    -6874891.99149  -5325450.92549  23110881.3214   23110885.7394
  20867984.806    -1239781.18049   -960328.95949  20867984.6694   20867990.1874
  22154585.961     4874855.37349   3785475.41749  22154585.4634   22154590.3724
  20191452.740       29512.53649     26218.73449  20191452.4904   20191457.1094
  21160243.588    -7882538.98049  -6124993.02049  21160243.1644   21160248.6654
  23836516.830    -5051545.90249  -3921703.08149  23836517.0054   23836522.5354
 96  5 13 16 36 29.9990000  0  6 26  2 19 27  7 15
  23098920.209    -6937745.99749  -5374428.07249  23098920.4694   23098925.1004
  20866983.077    -1245045.57149   -964431.08449  20866983.0344   20866987.9844
  22167719.468     4943874.36849   3839256.39649  22167718.9804   22167724.9654
  20194958.038       47932.92849     40572.25749  20194958.0684   20194962.4234
  21145768.046    -7958608.23149  -6184267.73949  21145767.7674   21145773.3164
  23828304.090    -5094693.29749  -3955324.40049  23828306.4874   23828312.2754
 96  5 13 16 36 59.9990000  0  6 26  2 19 27  7 15
  23087013.517    -7000306.88249  -5423176.81449  23087016.2924   23087020.1584
  20865991.002    -1250262.11149   -968495.93149  20865990.7204   20865995.3284
  22180881.151     5013038.58449   3893150.54149  22180880.8714   22180887.0304
  20198521.069       66657.08649     55162.49249  20198520.9944   20198525.8484
  21131344.407    -8034402.62049  -6243328.28949  21131344.6644   21131349.9824
  23820151.480    -5137537.50949  -3988709.47649  23820153.0404   23820158.9514
 96  5 13 16 37 29.9990000  0  6 26  2 19 27  7 15
  23075183.144    -7062487.89849  -5471629.53649  23075183.1574   23075187.5164
  20865018.824    -1255367.40449   -972474.08749  20865018.6454   20865023.5894
  22194084.301     5082418.83449   3947213.02649  22194084.2444   22194089.2894
  20202151.545       85733.86549     70027.49549  20202151.3814   20202155.8114
  21116988.186    -8109847.20749  -6302116.25749  21116988.2394   21116993.4064
  23812067.135    -5180006.61649  -4021802.25749  23812070.8794   23812077.6564
 96  5 13 16 37 59.9990000  0  6 26  2 19 27  7 15
  23063430.139    -7124240.60149  -5519748.51949  23063431.0674   23063436.2864
  20864075.891    -1260323.42749   -976335.92849  20864075.7094   20864080.4614
  22207332.452     5152045.08049   4001467.18949  22207333.1354   22207337.8604
  20205854.616      105196.32749     85193.02649  20205854.9894   20205859.4874
  21102702.540    -8184912.08649  -6360608.35349  21102703.8114   21102708.7924
  23804068.393    -5222056.28949  -4054568.20849  23804069.7834   23804075.1024
 96  5 13 16 38 29.9990000  0  6 26  2 19 27  7 15
  23051751.922    -7185615.92549  -5567573.44549  23051752.3214   23051757.6204
  20863153.634    -1265172.70349   -980114.59249  20863152.9934   20863157.9764
  22220621.757     5221876.22949   4055881.01849  22220622.2284   22220626.9994
  20209626.034      125015.58349    100636.58649  20209626.2474   20209630.8514
  21088480.842    -8259653.52549  -6418848.42049  21088481.0974   21088486.6654
  23796141.059    -5263726.56249  -4087038.52149  23796139.7804   23796145.9544
 96  5 13 16 38 59.9990000  0  6 26  2 19 27  7 15
  23040141.171    -7246628.90049  -5615116.00549  23040142.1184   23040147.1024
  20862255.815    -1269888.39649   -983789.16549  20862255.7244   20862260.4894
  22233948.862     5291909.93549   4110452.68949  22233949.1214   22233953.7734
  20213468.401      145210.11349    116372.56849  20213469.3574   20213473.9394
  21074321.945    -8334053.77449  -6476822.62649  21074323.1194   21074328.5504
  23788285.311    -5305000.60149  -4119200.08549  23788285.5704   23788292.4544
 96  5 13 16 39 29.9990000  0  6 26  2 19 27  7 15
  23028594.533    -7307311.33849  -5662401.01849  23028594.4334   23028599.7964
  20861381.667    -1274482.81649   -987369.24049  20861381.6744   20861386.5244
  22247306.874     5362106.60549   4165151.35249  22247307.2744   22247312.2464
  20217382.878      165776.12849    132398.01949  20217383.0204   20217387.6124
  21060224.755    -8408144.80049  -6534555.87549  21060223.7974   21060229.4174
  23780502.948    -5345897.48849  -4151067.76349  23780503.1434   23780510.0624
 96  5 13 16 39 59.9990000  0  6 26  2 19 27  7 15
  23017116.658    -7367628.13049  -5709401.11749  23017116.6634   23017121.8144
  20860536.556    -1278927.62049   -990832.73349  20860535.9624   20860540.2914
  22260704.139     5432512.18849   4220012.79949  22260704.1854   22260710.4034
  20221375.123      186756.22649    148746.12049  20221375.2554   20221379.7094
  21046189.085    -8481899.31649  -6592026.91049  21046188.5624   21046194.5424
  23772798.148    -5386385.38249  -4182616.73849  23772798.8774   23772804.8084
 96  5 13 16 40 29.9990000  0  6 26  2 19 27  7 15
  23005704.493    -7427592.60649  -5756126.67249  23005705.4054   23005710.0874
  20859710.915    -1283265.77449   -994213.12049  20859710.4154   20859714.5924
  22274140.555     5503121.87449   4275033.28749  22274140.8004   22274146.7944
  20225440.113      208115.99749    165390.07449  20225439.9114   20225444.4274
  21032212.778    -8555342.57149  -6649255.40049  21032213.0044   21032218.3494
  23765165.634    -5426490.19049  -4213867.19749  23765166.6924   23765173.1254
 96  5 13 16 40 59.9990000  0  6 26  2 19 27  7 15
  22994369.365    -7487170.83749  -5802551.27249  22994368.5594   22994373.8494
  20858902.526    -1287514.56849   -997523.88049  20858901.6794   20858906.1274
  22287614.989     5573930.33749   4330208.65649  22287615.3244   22287621.4124
  20229571.168      229828.94149    182309.22949  20229571.6444   20229576.4914
  21018296.532    -8628471.04249  -6706238.60949  21018297.5454   21018302.7474
  23757606.622    -5466211.82949  -4244819.07949  23757608.7864   23757614.4404
 96  5 13 16 41 29.9990000  0  6 26  2 19 27  7 15
  22983112.314    -7546330.65149  -5848649.82949  22983110.8444   22983115.9664
  20858108.488    -1291688.09349  -1000775.98349  20858107.4204   20858112.3994
  22301128.914     5644949.68649   4385548.35449  22301130.3494   22301135.9174
  20233771.550      251900.14149    199507.55449  20233771.7764   20233776.5984
  21004442.967    -8701276.66649  -6762970.24349  21004442.9964   21004448.3344
  23750123.173    -5505543.91449  -4275467.42549  23750122.8184   23750129.9284
 96  5 13 16 41 59.9990000  0  6 26  2 19 27  7 15
  22971933.535    -7605065.45149  -5894417.20949  22971934.2624   22971939.0554
  20857326.402    -1295791.23549  -1003973.24949  20857326.7284   20857331.5314
  22314684.850     5716183.83249   4441055.42449  22314685.4504   22314691.8804
  20238038.251      274315.90849    216974.36449  20238037.5584   20238041.9904
  20990651.500    -8773748.94249  -6819442.12749  20990651.7674   20990657.0194
  23742712.730    -5544483.87249  -4305810.23049  23742713.6354   23742718.7874
 96  5 13 16 42 29.9990000  0  6 26  2 19 27  7 15
  22960838.334    -7663370.66049  -5939849.83949  22960839.4354   22960844.2564
  20856561.519    -1299808.80549  -1007103.83449  20856561.9354   20856566.8694
  22328278.598     5787616.29249   4496717.03049  22328278.5164   22328284.9724
  20242371.620      297089.43549    234719.94949  20242371.4084   20242375.8244
  20976927.149    -8845867.03349  -6875638.02949  20976927.8034   20976933.7744
  23735382.062    -5583018.57249  -4335837.23049  23735380.5744   23735386.4764
 96  5 13 16 42 59.9990000  0  6 26  2 19 27  7 15
  22949821.313    -7721256.28549  -5984955.51849  22949823.4694   22949828.5954
  20855817.125    -1303726.25349  -1010156.39649  20855816.7714   20855821.7104
  22341905.547     5859224.55249   4552515.62849  22341905.9454   22341911.5704
  20246776.715      320237.38849    252757.29349  20246776.0654   20246780.5164
  20963274.134    -8917615.80649  -6931546.14149  20963274.5704   20963280.3804
  23728124.014    -5621144.76749  -4365545.91349  23728125.7764   23728131.6584
 96  5 13 16 43 29.9990000  0  6 26  2 19 27  7 15
  22938882.745    -7778752.58249  -6029757.83249  22938882.2694   22938887.1754
  20855091.783    -1307537.96349  -1013126.56649  20855091.5184   20855096.5044
  22355563.541     5930997.26549   4608442.36649  22355563.7854   22355568.5654
  20251251.869      343756.13349    271083.57549  20251251.6404   20251256.2884
  20949689.254    -8989006.00149  -6987174.84549  20949689.7714   20949695.6444
  23720948.828    -5658872.15749  -4394943.83549  23720945.9554   23720952.1384
 96  5 13 16 43 59.9990000  0  6 26  2 19 27  7 15
  22928016.562    -7835852.51449  -6074251.27049  22928016.5164   22928022.2554
  20854393.012    -1311212.90749  -1015990.16449  20854392.2034   20854396.7284
  22369255.439     6002952.19349   4664511.09449  22369255.7784   22369261.8674
  20255800.172      367659.04749    289709.22049  20255800.2484   20255804.7994
  20936176.291    -9060019.73249  -7042510.20549  20936175.8344   20936181.7214
  23713849.795    -5696179.51649  -4424014.44649  23713846.8834   23713853.1374
 96  5 13 16 44 29.9990000  0  6 26  2 19 27  7 15
  22917221.820    -7892579.05249  -6118453.77549  22917221.8674   22917226.6784
  20853713.884    -1314777.64149  -1018767.89849  20853714.0804   20853718.5824
  22382980.633     6075076.00449   4720711.41149  22382981.0954   22382986.9014
  20260418.150      391927.26449    308619.50949  20260418.0554   20260423.0444
  20922729.027    -9130681.94349  -7097571.65549  20922729.5464   20922735.5244
  23706822.709    -5733086.02649  -4452772.73149  23706822.9914   23706829.2544
 96  5 13 16 44 59.9990000  0  6 26  2 19 27  7 15
  22906500.009    -7948916.33749  -6162352.96549  22906501.0194   22906505.9094
  20853059.967    -1318211.32949  -1021443.51049  20853060.2094   20853065.1824
  22396746.377     6147415.30549   4777079.64449  22396746.1044   22396751.8484
  20265108.518      416575.71349    327826.07149  20265108.6334   20265113.0784
  20909351.907    -9200979.10949  -7152348.65149  20909352.1714   20909358.0754
  23699881.353    -5769566.84949  -4481199.29949  23699880.6824   23699886.6294
 96  5 13 16 45 29.9990000  0  6 26  2 19 27  7 15
  22895853.742    -8004869.44249  -6205952.78749  22895853.7444   22895858.4864
  20852428.321    -1321531.47349  -1024030.63649  20852428.4694   20852433.3954
  22410552.151     6219963.79749   4833610.87449  22410552.0694   22410556.5984
  20269868.003      441587.96649    347316.13249  20269868.4354   20269872.8194
  20896042.410    -9270922.37949  -7206849.88249  20896042.8764   20896048.1604
  23693016.837    -5805630.05449  -4509300.45649  23693018.8894   23693024.3804
 96  5 13 16 45 59.9990000  0  6 26  2 19 27  7 15
  22885278.748    -8060434.66449  -6249250.37449  22885280.3504   22885284.9424
  20851817.760    -1324743.59149  -1026533.59749  20851817.2784   20851822.0214
  22424398.054     6292724.77049   4890307.66949  22424398.4214   22424403.4324
  20274700.532      466976.18349    367099.14849  20274699.7404   20274704.1634
  20882801.822    -9340501.94549  -7261067.70949  20882801.8234   20882807.4584
  23686238.162    -5841267.39949  -4537069.75249  23686237.1814   23686242.6864
 96  5 13 16 46 29.9990000  0  6 26  2 19 27  7 15
  22874780.909    -8115607.47449  -6292242.17949  22874780.9874   22874785.9064
  20851226.523    -1327851.71849  -1028955.52249  20851225.9424   20851230.6034
  22438285.080     6365698.17549   4947169.99949  22438284.7854   22438289.8674
  20279601.802      492740.77649    387175.43449  20279602.3604   20279606.8404
  20869630.924    -9409716.84049  -7315001.37349  20869630.8084   20869636.2404
  23679539.928    -5876477.22349  -4564505.94149  23679536.6874   23679542.3604
 96  5 13 16 46 59.9990000  0  6 26  2 19 27  7 15
  22864356.515    -8170388.34349  -6334928.58649  22864356.5704   22864361.4624
  20850657.377    -1330845.40749  -1031288.27549  20850656.3734   20850661.1364
  22452209.413     6438874.82349   5004190.71449  22452209.2234   22452214.3264
  20284574.886      518875.45249    407540.08349  20284575.6044   20284580.4014
  20856528.966    -9478565.61049  -7368649.74549  20856529.5084   20856534.6594
  23672918.410    -5911263.60349  -4591612.16849  23672917.0054   23672923.4714
 96  5 13 16 47 29.9990000  0  6 26  2 19 27  7 15
  22854009.722    -8224759.29049  -6377295.57449  22854009.9294   22854015.1794
  20850110.683    -1333719.06049  -1033527.49249  20850109.7974   20850114.4194
  22466171.140     6512248.48149   5061364.93349  22466171.2924   22466177.5014
  20289619.274      545379.57849    428192.62449  20289619.6144   20289624.0804
  20843497.450    -9547051.49149  -7422015.34849  20843497.0594   20843502.2734
  23666378.054    -5945625.18449  -4618387.36549  23666378.7564   23666384.3944
 96  5 13 16 47 59.9990000  0  6 26  2 19 27  7 15
  22843742.805    -8278714.24549  -6419338.40149  22843743.0864   22843747.8484
  20849588.754    -1336456.74249  -1035660.75949  20849588.4544   20849593.2244
  22480175.193     6585835.47849   5118705.39649  22480175.4064   22480180.7244
  20294736.033      572267.99249    449144.62149  20294736.1574   20294740.3354
  20830532.481    -9615177.29249  -7475100.36649  20830533.0074   20830538.3694
  23659921.467    -5979555.40249  -4644826.44349  23659921.3454   23659928.3244
 96  5 13 16 48 29.9990000  0  6 26  2 19 27  7 15
  22833554.655    -8332244.61649  -6461050.38549  22833556.9294   22833560.9614
  20849095.982    -1339046.71749  -1037678.92849  20849095.9384   20849100.5034
  22494220.192     6659637.18549   5176213.16049  22494220.0744   22494225.1294
  20299926.950      599549.12749    470402.63349  20299927.5584   20299931.8944
  20817637.681    -9682943.87249  -7527905.47849  20817637.4404   20817642.8874
  23653545.741    -6013052.90349  -4670928.36849  23653546.9664   23653554.5934
 96  5 13 16 48 59.9990000  0  6 26  2 19 27  7 15
  22823451.679    -8385345.16649  -6502427.44049  22823451.7364   22823456.8844
  20848629.750    -1341498.55249  -1039589.45449  20848629.1274   20848633.9314
  22508303.214     6733644.29749   5233880.98649  22508303.4204   22508309.6094
  20305194.705      627225.08649    491968.30949  20305194.3474   20305198.8164
  20804809.256    -9750351.87749  -7580431.18449  20804810.1754   20804815.6704
  23647256.805    -6046122.18649  -4696696.59749  23647254.8524   23647259.8284
 96  5 13 16 49 29.9990000  0  6 26  2 19 27  7 15
  22813427.552    -8438012.82949  -6543467.18349  22813430.1064   22813433.9114
  20848185.926    -1343832.76749  -1041408.33049  20848185.1844   20848189.7674
  22522423.235     6807845.93849   5291700.37949  22522422.7414   22522427.7344
  20310537.311      655303.76349    513847.78949  20310537.5504   20310542.0374
  20792051.586    -9817399.04149  -7632675.70949  20792051.6124   20792057.1544
  23641043.683    -6078764.03549  -4722131.74549  23641043.1074   23641048.5144
 96  5 13 16 49 59.9990000  0  6 26  2 19 27  7 15
  22803482.983    -8490276.79849  -6584192.37049  22803483.7084   22803488.8864
  20847758.332    -1346072.82949  -1043153.84049  20847758.3214   20847763.4254
  22536575.389     6882216.35449   5349651.29649  22536574.7834   22536580.4644
  20315955.162      683775.23649    536033.33349  20315955.2234   20315959.8804
  20779362.256    -9884082.44849  -7684636.79349  20779362.3344   20779367.9854
  23634913.336    -6110992.58849  -4747244.86649  23634909.7764   23634915.7794
 96  5 13 16 50 29.9990000  0  6 26  2 19 27  7 15
  22793619.656    -8542116.03849  -6624586.57949  22793619.5524   22793623.5984
  20847351.912    -1348211.53049  -1044820.36849  20847351.7514   20847356.5264
  22550758.804     6956756.34149   5407734.35149  22550758.8834   22550765.7654
  20321450.043      712647.53649    558531.19949  20321449.9434   20321454.0024
  20766745.921    -9950381.08849  -7736298.05249  20766746.0074   20766751.7934
  23628858.883    -6142785.84149  -4772018.78449  23628860.2334   23628865.8534
 96  5 13 16 50 59.9990000  0  6 26  2 19 27  7 15
  22783833.001    -8593540.98449  -6664657.97449  22783834.1094   22783838.2744
  20846960.855    -1350267.00549  -1046422.04249  20846960.5284   20846965.2074
  22564974.547     7031457.05549   5465942.64649  22564974.4264   22564979.5484
  20327015.822      741899.81449    581325.15749  20327016.4194   20327020.5084
  20754200.489   -10016304.96549  -7787667.29449  20754201.3384   20754206.4304
  23622894.847    -6174148.80249  -4796457.43449  23622891.7464   23622898.3524
 96  5 13 16 51 29.9990000  0  6 26  2 19 27  7 15
  22774123.936    -8644566.14149  -6704417.84049  22774124.1124   22774128.5604
  20846587.300    -1352231.44849  -1047952.78949  20846586.8874   20846591.8414
  22579220.646     7106317.35649   5524275.27049  22579219.8494   22579225.2784
  20332656.273      771535.21349    604417.63949  20332655.7764   20332660.1554
  20741728.659   -10081846.30649  -7838738.45749  20741728.9164   20741734.4124
  23617008.557    -6205072.61349  -4820553.88449  23617007.4084   23617012.6754
 96  5 13 16 51 59.9990000  0  6 26  2 19 27  7 15
  22764490.051    -8695195.37549  -6743869.19249  22764489.7074   22764494.4304
  20846231.612    -1354096.87649  -1049406.38149  20846231.9844   20846236.7194
  22593496.504     7181344.84149   5582738.19249  22593497.7874   22593502.8684
  20338367.784      801555.58549    627810.11349  20338368.1994   20338372.8714
  20729329.077   -10147007.08949  -7889513.07249  20729329.3874   20729334.7104
  23611213.805    -6235549.09249  -4844301.75849  23611208.2024   23611213.1794
 96  5 13 16 52 29.9990000  0  6 26  2 19 27  7 15
  22754928.348    -8745429.46549  -6783012.63849  22754930.2764   22754935.6084
  20845895.301    -1355866.33949  -1050785.19049  20845894.7764   20845900.2204
  22607806.748     7256541.21849   5641332.70749  22607807.4974   22607813.5414
  20344150.242      831943.11649    651488.69149  20344150.9094   20344155.7404
  20717000.029   -10211796.33349  -7939998.17749  20717000.5404   20717006.0174
  23605493.297    -6265584.18849  -4867705.70049  23605491.8794   23605497.8404
 96  5 13 16 52 59.9990000  0  6 26  2 19 27  7 15
  22745446.413    -8795263.89149  -6821844.66649  22745447.3434   22745451.7664
  20845577.157    -1357538.11649  -1052087.88049  20845576.8144   20845582.0484
  22622153.694     7331933.00149   5700079.48149  22622154.1004   22622159.0574
  20350003.637      862700.61449    675455.56749  20350003.3934   20350008.5134
  20704745.645   -10276192.08749  -7990176.66949  20704746.2834   20704751.8804
  23599861.031    -6295173.07349  -4890761.96949  23599862.3504   23599866.8634
 96  5 13 16 53 29.9990000  0  6 26  2 19 27  7 15
  22736044.104    -8844672.23449  -6860344.67549  22736045.2194   22736049.6784
  20845279.074    -1359104.90549  -1053308.76549  20845278.9404   20845283.6684
  22636540.438     7407534.56949   5758989.72449  22636540.6594   22636545.9014
  20355928.558      893836.10649    699716.98149  20355928.8074   20355933.0984
  20692568.857   -10340182.10249  -8040038.99849  20692569.0754   20692574.5354
  23594320.354    -6324304.31949  -4913461.63849  23594318.0544   23594323.5044
 96  5 13 16 53 59.9990000  0  6 26  2 19 27  7 15
  22726723.801    -8893644.95349  -6898505.23149  22726725.7534   22726730.2534
  20844998.334    -1360577.05449  -1054455.89749  20844998.7724   20845003.8614
  22650965.677     7483347.93849   5818065.02149  22650966.7254   22650973.7444
  20361920.495      925322.87049    724252.09549  20361920.1364   20361924.9534
  20680462.848   -10403797.35949  -8089609.31149  20680463.7384   20680468.8414
  23588859.054    -6352993.04849  -4935816.46949  23588858.9564   23588864.5604
 96  5 13 16 54 29.9990000  0  6 26  2 19 27  7 15
  22717488.670    -8942181.90549  -6936326.23149  22717489.6604   22717493.7684
  20844736.377    -1361958.14949  -1055532.07949  20844735.9374   20844740.7294
  22665431.545     7559362.06249   5877296.74149  22665432.1604   22665437.8154
  20367974.610      957142.82349    749046.83749  20367975.4044   20367979.9124
  20668428.125   -10467046.81249  -8138894.58049  20668427.8474   20668432.7464
  23583485.039    -6381250.95049  -4957835.60149  23583482.0814   23583486.6314
 96  5 13 16 54 59.9990000  0  6 26  2 19 27  7 15
  22708335.652    -8990284.96349  -6973809.13649  22708335.8764   22708340.6534
  20844491.330    -1363247.67149  -1056536.91149  20844490.7454   20844495.3714
  22679932.633     7635566.48649   5936676.75849  22679933.2204   22679939.7564
  20374095.907      989305.63849    774108.75049  20374095.9754   20374100.1704
  20656457.755   -10529947.55549  -8187908.12949  20656458.2804   20656463.1814
  23578186.655    -6409076.27449  -4979517.66949  23578186.9234   23578191.9384
 96  5 13 16 55 29.9990000  0  6 26  2 19 27  7 15
  22699267.721    -9037939.87449  -7010942.83249  22699267.5424   22699272.8394
  20844268.394    -1364417.78549  -1057448.69549  20844267.9134   20844272.5974
  22694469.318     7711951.62049   5996197.56049  22694470.0124   22694475.2414
  20380288.203     1021842.63949    799462.22849  20380287.7574   20380291.8014
  20644554.841   -10592499.04149  -8236649.52649  20644555.0374   20644559.9884
  23572978.720    -6436447.95849  -5000846.25749  23572977.3984   23572983.1604
 96  5 13 16 55 59.9990000  0  6 26  2 19 27  7 15
  22690278.875    -9085178.95649  -7047752.51449  22690277.8934   22690282.9084
  20844066.719    -1365476.77649  -1058273.89049  20844066.1714   20844071.5244
  22709031.369     7788479.40449   6055829.52849  22709031.6924   22709037.8024
  20386550.381     1054752.21049    825106.03049  20386550.2244   20386554.4994
  20632717.402   -10654705.19449  -8285121.83049  20632717.4914   20632722.8534
  23567853.312    -6463382.06949  -5021833.86649  23567851.4554   23567858.1234
 96  5 13 16 56 29.9990000  0  6 26  2 19 27  7 15
  22681368.189    -9132000.80249  -7084237.07149  22681368.3354   22681372.8944
  20843886.740    -1366423.04349  -1059011.24849  20843886.4414   20843891.4454
  22723619.619     7865143.51049   6115567.72349  22723619.9264   22723626.9124
  20392889.255     1088064.47049    851063.61049  20392889.2484   20392893.8534
  20620951.622   -10716529.60749  -8333296.68049  20620952.7034   20620957.6284
  23562812.558    -6489862.67349  -5042468.08549  23562812.9684   23562819.3254
 96  5 13 16 56 59.9990000  0  6 26  2 19 27  7 15
  22672540.148    -9178393.14949  -7120386.95849  22672540.8324   22672544.4554
  20843727.236    -1367262.32849  -1059665.24649  20843726.6594   20843731.5524
  22738233.570     7941942.56949   6175411.07649  22738235.2414   22738241.2944
  20399307.281     1121794.55849    877346.77349  20399307.7974   20399312.2184
  20609261.779   -10777966.60049  -8381169.63349  20609261.5624   20609266.9694
  23557858.784    -6515882.69849  -5062743.42549  23557861.3854   23557867.2234
 96  5 13 16 57 29.9990000  0  6 26  2 19 27  7 15
  22663795.453    -9224349.47149  -7156197.08449  22663794.8694   22663799.4424
  20843586.536    -1368005.37749  -1060244.25149  20843585.4764   20843590.0704
  22752875.096     8018874.09149   6235357.64149  22752875.5514   22752880.7034
  20405803.242     1155927.27149    903943.67249  20405803.1924   20405807.3234
  20597645.245   -10839009.40949  -8428735.44049  20597645.7774   20597650.8354
  23552999.347    -6541450.49249  -5082666.37849  23552996.3884   23553002.0114
 96  5 13 16 57 59.9990000  0  6 26  2 19 27  7 15
  22655138.125    -9269842.42749  -7191646.14749  22655137.9204   22655142.9404
  20843466.854    -1368622.68649  -1060725.28349  20843467.6924   20843472.5954
  22767551.458     8095991.70249   6295449.21749  22767549.6344   22767556.2984
  20412378.196     1190477.15049    930865.63249  20412377.8764   20412382.0414
  20586110.044   -10899629.72349  -8475972.03249  20586110.0724   20586115.0984
  23548220.149    -6566540.29349  -5102216.86649  23548220.8644   23548227.7274
 96  5 13 16 58 29.9990000  0  6 26  2 19 27  7 15
  22646563.607    -9314895.74649  -7226752.63749  22646564.6194   22646568.5354
  20843370.765    -1369139.29749  -1061127.84349  20843369.5124   20843374.4774
  22782260.448     8173295.17449   6355685.61849  22782260.8364   22782265.9264
  20419024.402     1225402.55349    958080.21549  20419023.8214   20419028.4184
  20574648.309   -10959860.49249  -8522905.07649  20574648.4794   20574653.3574
  23543532.238    -6591175.53049  -5121413.14549  23543534.2684   23543539.4684
 96  5 13 16 58 59.9990000  0  6 26  2 19 27  7 15
  22638075.877    -9359499.56249  -7261508.86549  22638076.9644   22638082.0774
  20843297.588    -1369521.94449  -1061426.01349  20843296.7704   20843301.7114
  22797014.048     8250821.24849   6416095.47649  22797013.8204   22797019.3524
  20425741.503     1260708.44949    985591.27249  20425742.1684   20425746.7794
  20563264.260   -11019685.72949  -8569522.12449  20563264.1844   20563268.9534
  23538939.652    -6615335.17749  -5140238.81949  23538936.5754   23538942.7824
 96  5 13 16 59 29.9990000  0  6 26  2 19 27  7 15
  22629669.522    -9403681.83949  -7295936.62649  22629668.7844   22629674.1084
  20843249.716    -1369769.11949  -1061618.62349  20843249.8544   20843254.6584
  22811808.132     8328568.92449   6476678.02849  22811807.4994   22811814.2944
  20432531.394     1296385.48549   1013391.52549  20432531.5164   20432535.9714
  20551956.113   -11079107.54849  -8615824.82549  20551956.4914   20551961.7994
  23534429.287    -6639025.59549  -5158698.87149  23534428.6054   23534434.2564
 96  5 13 16 59 59.9990000  0  6 26  2 19 27  7 15
  22621340.462    -9447454.05549  -7330044.85249  22621339.7894   22621344.3464
  20843226.339    -1369891.45149  -1061713.95149  20843226.0084   20843231.1534
  22826643.950     8406531.88249   6537428.31149  22826644.0414   22826649.9064
  20439391.411     1332433.41849   1041480.79249  20439391.5524   20439396.1494
  20540725.565   -11138123.69449  -8661811.41149  20540725.9834   20540731.6124
  23530004.235    -6662249.57849  -5176795.48449  23530008.9664   23530015.6954
 96  5 13 17  0 29.9990000  0  6 26  2 19 27  7 15
  22613087.608    -9490813.76849  -7363831.64449  22613088.2994   22613093.1904
  20843220.420    -1369921.71849  -1061737.54049  20843220.6114   20843225.6864
  22841512.405     8484675.25449   6598319.18549  22841513.2574   22841521.0284
  20446318.751     1368836.23649   1069846.59749  20446318.6174   20446323.1784
  20529569.607   -11196744.55249  -8707489.97949  20529570.5824   20529576.2754
  23525672.789    -6685020.35049  -5194538.93349  23525675.9644   23525681.4434
 96  5 13 17  0 59.9990000  0  6 26  2 19 27  7 15
  22604919.361    -9533738.46649  -7397279.46449  22604919.8354   22604924.8074
  20843233.826    -1369853.53949  -1061684.42749  20843233.5634   20843238.1364
  22856417.360     8562993.51949   6659346.33349  22856416.7564   22856424.1174
  20453316.242     1405613.44849   1098504.14349  20453316.8324   20453321.7924
  20518491.645   -11254964.16749  -8752855.89449  20518491.6684   20518497.1144
  23521431.311    -6707325.30749  -5211919.40649  23521431.6314   23521438.3064
 96  5 13 17  1 29.9990000  0  6 26  2 19 27  7 15
  22596837.870    -9576203.76349  -7430369.30949  22596838.8864   22596843.7654
  20843264.012    -1369698.90949  -1061563.94449  20843262.9384   20843267.8124
  22871351.392     8641476.52249   6720501.83349  22871352.2674   22871358.7604
  20460386.408     1442765.01849   1127453.39749  20460386.4104   20460391.6724
  20507488.662   -11312784.86649  -8797910.96749  20507489.1474   20507494.5254
  23517278.153    -6729162.84049  -5228935.65449  23517276.2284   23517281.8184
 96  5 13 17  1 59.9990000  0  6 26  2 19 27  7 15
  22588848.365    -9618194.95049  -7463089.72249  22588848.6194   22588854.0054
  20843306.834    -1369465.12049  -1061381.78349  20843307.1774   20843312.4454
  22886317.316     8720117.23549   6781780.25249  22886317.1254   22886323.8414
  20467526.643     1480285.58649   1156690.18049  20467526.5584   20467531.4324
  20496561.625   -11370208.89049  -8842656.94249  20496561.6944   20496567.0504
  23513210.707    -6750527.47949  -5245583.42449  23513210.0334   23513216.7994
 96  5 13 17  2 29.9990000  0  6 26  2 19 27  7 15
  22580950.502    -9659700.84549  -7495431.98149  22580950.0194   22580955.1524
  20843373.480    -1369121.51149  -1061114.04649  20843372.8364   20843377.6204
  22901313.016     8798926.27349   6843189.81949  22901313.3924   22901320.0644
  20474739.650     1518192.30949   1186227.86749  20474740.1994   20474744.8274
  20485710.756   -11427230.85349  -8887089.61549  20485710.5674   20485716.0334
  23509239.948    -6771396.12649  -5261844.70749  23509240.0584   23509245.1974
 96  5 13 17  2 59.9990000  0  6 26  2 19 27  7 15
  22573136.768    -9700758.25249  -7527424.77049  22573137.4794   22573142.6574
  20843459.866    -1368666.31449  -1060759.36349  20843459.4444   20843464.1194
  22916339.103     8877888.49849   6904718.74649  22916339.2494   22916345.9234
  20482025.629     1556476.75649   1216059.87749  20482025.6144   20482030.1814
  20474933.615   -11483863.20349  -8931218.70449  20474934.0074   20474939.4184
  23505357.786    -6791783.57049  -5277731.01249  23505359.9274   23505365.6754
 96  5 13 17  3 29.9990000  0  6 26  2 19 27  7 15
  22565407.564    -9741376.78049  -7559075.58649  22565408.4184   22565412.8514
  20843565.458    -1368111.10749  -1060326.74249  20843565.2194   20843570.0984
  22931393.823     8956992.05049   6966357.81449  22931392.6294   22931399.3934
  20489383.815     1595141.53549   1246188.24049  20489383.4884   20489387.9474
  20464230.210   -11540111.43449  -8975048.47549  20464230.3194   20464235.9724
  23501570.939    -6811695.97349  -5293247.14549  23501570.9264   23501577.0324
 96  5 13 17  3 59.9990000  0  6 26  2 19 27  7 15
  22557755.285    -9781594.38949  -7590413.99349  22557755.2224   22557759.9794
  20843684.945    -1367484.18749  -1059838.24149  20843684.4674   20843689.2234
  22946466.074     9036204.22249   7028081.50649  22946466.8624   22946472.9054
  20496809.020     1634161.55449   1276593.40749  20496808.6314   20496812.9644
  20453592.875   -11596010.62149  -9018606.26149  20453593.3164   20453598.5894
  23497865.303    -6831167.08349  -5308419.44549  23497865.4634   23497870.8504
 96  5 13 17  4 29.9990000  0  6 26  2 19 27  7 15
  22550187.589    -9821363.60549  -7621402.99849  22550187.1294   22550191.6554
  20843827.068    -1366737.44149  -1059256.37249  20843826.9014   20843831.5124
  22961568.411     9115569.18949   7089924.25749  22961569.9044   22961576.5104
  20504310.946     1673581.90449   1307310.53349  20504310.0764   20504314.7604
  20443032.385   -11651507.10249  -9061850.25149  20443032.4744   20443037.9544
  23494249.623    -6850155.83749  -5323215.86249  23494252.0194   23494258.6184
 96  5 13 17  4 59.9990000  0  6 26  2 19 27  7 15
  22542710.540    -9860651.05049  -7652016.60749  22542710.5954   22542715.3604
  20843991.589    -1365870.85649  -1058581.12449  20843991.2444   20843996.0054
  22976705.787     9195106.77649   7151901.52449  22976705.8604   22976711.8074
  20511892.921     1713427.03149   1338358.65149  20511892.5524   20511897.2574
  20432552.629   -11706576.75749  -9104761.64849  20432552.8994   20432558.4234
  23490735.079    -6868648.13349  -5337625.46049  23490732.5344   23490737.9704
 96  5 13 17  5 29.9990000  0  6 26  2 19 27  7 15
  22535318.689    -9899496.35549  -7682285.69549  22535318.9134   22535323.3884
  20844166.399    -1364953.24649  -1057866.11349  20844165.8794   20844170.8654
  22991864.585     9274772.99849   7213979.03149  22991865.6074   22991871.7784
  20519543.798     1753637.31049   1369691.30949  20519544.2674   20519549.2534
  20422143.714   -11761276.04249  -9147384.44749  20422143.7774   20422149.1784
  23487297.642    -6886695.73449  -5351688.49949  23487298.4384   23487303.8094
 96  5 13 17  5 59.9990000  0  6 26  2 19 27  7 15
  22528014.160    -9937881.38949  -7712196.12649  22528014.2934   22528019.0614
  20844356.815    -1363954.94149  -1057088.22049  20844356.1654   20844361.3714
  23007057.101     9354606.53949   7276186.90549  23007056.8744   23007063.0584
  20527269.611     1794234.29449   1401325.29749  20527269.5514   20527274.3334
  20411810.253   -11815577.40849  -9189697.18149  20411810.6334   20411815.9134
  23483955.550    -6904268.54049  -5365381.57749  23483954.6034   23483960.5154
 96  5 13 17  6 29.9990000  0  6 26  2 19 27  7 15
  22520797.041    -9975812.14449  -7741752.57349  22520796.2774   22520800.9504
  20844562.364    -1362868.54649  -1056241.69749  20844562.7404   20844568.0164
  23022280.878     9434609.06949   7338526.46249  23022281.4914   23022288.1414
  20535069.843     1835225.11349   1433266.17249  20535069.9354   20535074.6464
  20401553.726   -11869478.79149  -9231698.23449  20401553.3744   20401558.5754
  23480700.944    -6921361.69549  -5378700.91349  23480701.3364   23480706.9634
 96  5 13 17  6 59.9990000  0  6 26  2 19 27  7 15
  22513662.227   -10013288.31049  -7770954.79249  22513665.1484   22513669.1634
  20844787.850    -1361691.60049  -1055324.60449  20844787.1884   20844792.3374
  23037540.000     9514789.29149   7401004.47449  23037539.3014   23037544.3734
  20542948.226     1876624.87049   1465525.69149  20542948.1624   20542952.2844
  20391370.267   -11922989.30049  -9273394.71649  20391370.8604   20391376.2254
  23477539.537    -6937967.92249  -5391640.82549  23477541.7014   23477547.1094
 96  5 13 17  7 29.9990000  0  6 26  2 19 27  7 15
  22506617.637   -10050327.51449  -7799816.52149  22506616.8464   22506620.8314
  20845030.030    -1360416.34649  -1054330.91049  20845029.8114   20845034.5474
  23052828.539     9595139.91749   7463615.28749  23052829.6024   23052834.7104
  20550899.934     1918410.16749   1498085.63049  20550899.8754   20550904.1204
  20381262.232   -11976112.13949  -9314789.11549  20381262.1634   20381267.0104
  23474474.217    -6954087.76449  -5404201.72049  23474474.1334   23474479.6694
 96  5 13 17  7 59.9990000  0  6 26  2 19 27  7 15
  22499651.122   -10086923.68449  -7828333.02949  22499652.7124   22499657.7434
  20845297.906    -1359013.13149  -1053237.50549  20845296.8504   20845301.9554
  23068151.530     9675658.71149   7526357.12649  23068151.9484   23068157.6464
  20558926.313     1960590.15449   1530953.12749  20558926.1074   20558930.5744
  20371230.720   -12028827.34249  -9355865.87549  20371230.7344   20371235.5444
  23471503.427    -6969709.92449  -5416374.81649  23471502.1764   23471505.2774
 96  5 13 17  8 29.9990000  0  6 26  2 19 27  7 15
  22492774.852   -10123068.53049  -7856497.85549  22492774.8014   22492779.4554
  20845589.779    -1357474.27749  -1052038.41049  20845589.2374   20845594.5464
  23083503.714     9756340.02249   7589225.62849  23083505.1304   23083511.1884
  20567023.303     2003141.41049   1564109.92449  20567023.5324   20567027.8894
  20361278.726   -12081123.78949  -9396616.33249  20361279.0654   20361284.2124
  23468623.456    -6984838.17849  -5428163.04249  23468622.7464   23468629.8834
 96  5 13 17  8 59.9990000  0  6 26  2 19 27  7 15
  22485981.201   -10158772.69349  -7884319.29649  22485980.5294   22485985.4634
  20845903.890    -1355824.12449  -1050752.58749  20845903.5134   20845908.6464
  23098886.628     9837169.45649   7652209.51849  23098886.0974   23098892.5974
  20575184.481     2046029.90849   1597529.51949  20575184.4524   20575189.2004
  20351404.941   -12133010.52349  -9437047.53849  20351405.2294   20351410.5554
  23465835.634    -6999485.03249  -5439576.16549  23465835.6324   23465841.7264
 96  5 13 17  9 29.9990000  0  6 26  2 19 27  7 15
  22479273.170   -10194019.01149  -7911783.97549  22479273.5734   22479277.9174
  20846241.433    -1354049.03549  -1049369.41949  20846241.4274   20846246.1774
  23114296.777     9918156.86849   7715316.53149  23114297.5904   23114304.1584
  20583410.152     2089251.68649   1631208.80549  20583409.7234   20583414.2354
  20341613.496   -12184464.27649  -9477141.35349  20341613.7234   20341619.1214
  23463140.067    -7013638.91349  -5450605.16749  23463142.1214   23463147.4344
 96  5 13 17  9 59.9990000  0  6 26  2 19 27  7 15
  22472655.803   -10228790.94749  -7938879.01449  22472656.2914   22472660.9334
  20846601.989    -1352153.12349  -1047892.08849  20846602.3134   20846606.8804
  23129740.058     9999309.23849   7778552.06449  23129741.2094   23129747.2054
  20591699.848     2132815.65649   1665154.72749  20591699.6334   20591704.3714
  20331903.690   -12235487.25149  -9516899.50749  20331904.1824   20331909.6914
  23460543.419    -7027300.80949  -5461250.79149  23460543.3094   23460547.2844
 96  5 13 17 10 29.9990000  0  6 26  2 19 27  7 15
  22466133.428   -10263069.38849  -7965589.50349  22466133.6824   22466137.9644
  20846982.724    -1350153.70449  -1046334.11349  20846982.6724   20846987.3574
  23145216.446    10080631.04949   7841919.64049  23145215.6184   23145222.2604
  20600055.103     2176723.44849   1699368.55549  20600054.6664   20600059.5974
  20322277.428   -12286076.99649  -9556320.07149  20322277.2874   20322282.5574
  23458037.485    -7040464.12249  -5471507.89249  23458037.2604   23458042.0024
 96  5 13 17 10 59.9990000  0  6 26  2 19 27  7 15
  22459702.077   -10296860.49549  -7991920.25249  22459703.1674   22459707.8154
  20847379.643    -1348072.01849  -1044712.02749  20847379.0944   20847383.3114
  23160718.676    10162097.55049   7905399.96749  23160718.9714   23160725.0594
  20608478.799     2220991.72749   1733863.29849  20608479.1014   20608483.7354
  20312730.323   -12336246.24249  -9595412.98449  20312730.8644   20312735.9004
  23455622.446    -7053140.70749  -5481385.74149  23455624.4564   23455630.8874
 96  5 13 17 11 29.9990000  0  6 26  2 19 27  7 15
  22453366.931   -10330146.53049  -8017857.43349  22453368.6604   22453374.0234
  20847796.336    -1345883.04649  -1043006.34849  20847795.4104   20847799.9324
  23176248.190    10243720.73049   7969002.37349  23176250.3854   23176257.6284
  20616979.805     2265662.84249   1768671.93849  20616979.4654   20616984.5234
  20303266.218   -12385984.84149  -9634170.31849  20303266.1214   20303270.8164
  23453307.330    -7065315.05249  -5490872.22449  23453308.0884   23453312.5304
 96  5 13 17 11 59.9990000  0  6 26  2 19 27  7 15
  22447126.668   -10362949.74049  -8043418.39249  22447126.6814   22447131.1554
  20848230.764    -1343601.74649  -1041228.72549  20848229.5624   20848234.3324
  23191810.803    10325483.82749   8032713.80449  23191810.2524   23191816.4144
  20625556.642     2310735.70049   1803793.61549  20625556.5584   20625561.6614
  20293881.048   -12435305.51849  -9672602.00349  20293880.8914   20293885.6654
  23451084.970    -7076994.63949  -5499973.19749  23451086.3404   23451091.3174
 96  5 13 17 12 29.9990000  0  6 26  2 19 27  7 15
  22440971.061   -10395297.64049  -8068624.57249  22440971.4564   22440975.4614
  20848680.538    -1341231.56749  -1039381.84649  20848680.5714   20848685.5814
  23207392.548    10407374.21549   8096524.41449  23207392.6944   23207399.0674
  20634212.786     2356221.30649   1839236.92449  20634212.3714   20634217.2544
  20284576.441   -12484199.81349  -9710701.44249  20284576.3954   20284580.9544
  23448958.975    -7088176.40049  -5508686.24249  23448957.1794   23448964.0654
 96  5 13 17 12 59.9990000  0  6 26  2 19 27  7 15
  22434901.024   -10427199.58049  -8093483.24249  22434900.6474   22434904.5634
  20849153.413    -1338750.10249  -1037448.24649  20849152.8874   20849157.8674
  23223005.250    10489415.36949   8160452.52049  23223004.2884   23223011.3514
  20642951.972     2402149.48749   1875025.10849  20642952.2254   20642957.7324
  20275352.788   -12532666.81549  -9748467.92449  20275353.0844   20275357.9114
  23446927.451    -7098846.31549  -5517000.47349  23446927.7144   23446933.8684
 96  5 13 17 13 29.9990000  0  6 26  2 19 27  7 15
  22428910.698   -10458675.80849  -8118010.19349  22428910.8884   22428915.7094
  20849646.224    -1336162.01549  -1035431.56949  20849645.6374   20849649.9974
  23238645.983    10571615.70849   8224504.63849  23238647.8264   23238653.6034
  20651771.997     2448498.56549   1911141.25849  20651772.2524   20651777.2244
  20266208.534   -12580720.38149  -9785912.25049  20266209.0304   20266213.6654
  23444993.802    -7109009.17549  -5524919.57949  23444993.7474   23444999.6094
 96  5 13 17 13 59.9990000  0  6 26  2 19 27  7 15
  22423001.180   -10489730.59849  -8142208.75449  22423001.0274   22423005.8944
  20850155.354    -1333480.34749  -1033341.96649  20850155.5014   20850160.3294
  23254320.334    10653968.51849   8288675.58149  23254319.1524   23254324.5894
  20660666.131     2495236.70849   1947560.56249  20660666.2964   20660670.9814
  20257142.859   -12628359.41249  -9823033.56549  20257143.6204   20257148.1484
  23443157.451    -7118673.08449  -5532449.87949  23443154.5674   23443160.0464
 96  5 13 17 14 29.9990000  0  6 26  2 19 27  7 15
  22417172.042   -10520361.16149  -8166076.74149  22417172.6954   22417177.0344
  20850683.617    -1330709.34849  -1031182.76149  20850683.3284   20850687.5804
  23270016.811    10736462.53549   8352956.53649  23270016.3324   23270022.4534
  20669631.534     2542349.26349   1984271.61349  20669631.3624   20669635.7874
  20248154.616   -12675595.61449  -9859840.97949  20248154.8324   20248159.8564
  23441407.561    -7127851.84649  -5539602.14649  23441407.6724   23441413.3244
 96  5 13 17 14 59.9990000  0  6 26  2 19 27  7 15
  22411435.463   -10550508.66649  -8189568.32849  22411435.1954   22411440.5574
  20851234.474    -1327812.36349  -1028925.38549  20851234.0844   20851239.1094
  23285749.947    10819137.75149   8417378.69649  23285749.7544   23285755.3504
  20678671.648     2589857.15249   2021290.71849  20678671.7294   20678676.8714
  20239247.801   -12722405.10949  -9896315.90349  20239247.1354   20239252.1944
  23439761.716    -7136511.07249  -5546349.57849  23439759.9764   23439765.1594
 96  5 13 17 15 29.9990000  0  6 26  2 19 27  7 15
  22405795.856   -10580140.71749  -8212658.25749  22405797.5824   22405801.6394
  20851812.389    -1324774.41749  -1026558.17049  20851812.4404   20851817.1474
  23301516.825    10901989.27949   8481938.24649  23301516.0814   23301521.7384
  20687785.463     2637752.46649   2058611.71849  20687786.0224   20687790.8864
  20230423.658   -12768770.16949  -9932444.51349  20230424.0264   20230429.4584
  23438212.662    -7144637.58049  -5552681.91749  23438213.3814   23438218.5714
 96  5 13 17 15 59.9990000  0  6 26  2 19 27  7 15
  22400252.163   -10609278.16849  -8235362.79149  22400252.4584   22400257.4854
  20852413.073    -1321623.14949  -1024102.65049  20852412.1574   20852416.7104
  23317307.885    10984975.59149   8546602.82149  23317307.5624   23317313.2584
  20696967.399     2685998.79849   2096206.23149  20696967.2604   20696972.1394
  20221679.971   -12814715.91849  -9968246.38549  20221680.8064   20221686.1594
  23436763.424    -7152257.72349  -5558619.69249  23436763.7334   23436768.8424
 96  5 13 17 16 29.9990000  0  6 26  2 19 27  7 15
  22394805.178   -10637899.70849  -8257665.31649  22394806.1704   22394811.0474
  20853039.915    -1318327.66549  -1021534.75549  20853039.3664   20853044.2254
  23333129.254    11068121.62449   8611391.83749  23333130.2854   23333136.6934
  20706221.644     2734630.13349   2134100.74649  20706221.2844   20706226.3584
  20213020.896   -12860221.83049 -10003705.52949  20213021.6444   20213026.2464
  23435414.741    -7159343.53649  -5564141.09049  23435414.6714   23435419.5854
 96  5 13 17 16 59.9990000  0  6 26  2 19 27  7 15
  22389454.570   -10666018.72549  -8279576.27449  22389454.9454   22389459.7044
  20853692.866    -1314896.94549  -1018861.48549  20853692.0674   20853696.6674
  23348979.083    11151417.14749   8676297.36749  23348979.8694   23348986.9394
  20715546.435     2783632.35949   2172284.27549  20715546.3674   20715551.2654
  20204443.543   -12905299.14649 -10038830.70049  20204443.8204   20204448.5004
  23434166.724    -7165904.73649  -5569253.69549  23434166.9594   23434171.3934
 96  5 13 17 17 29.9990000  0  6 26  2 19 27  7 15
  22384196.048   -10693656.02849  -8301111.85549  22384196.1414   22384200.0794
  20854370.037    -1311336.06249  -1016086.78249  20854369.5934   20854374.2554
  23364855.089    11234839.53249   8741301.74249  23364855.6664   23364862.1804
  20724938.204     2832988.62649   2210743.68049  20724938.4044   20724943.3034
  20195945.337   -12949957.39549 -10073629.32849  20195945.3874   20195950.2544
  23433014.879    -7171958.71449  -5573971.06749  23433014.6274   23433019.8574
 96  5 13 17 17 59.9990000  0  6 26  2 19 27  7 15
  22379027.599   -10720811.18249  -8322271.73049  22379028.3004   22379032.6114
  20855071.884    -1307643.97249  -1013209.83749  20855071.9904   20855076.6094
  23380755.839    11318407.44649   8806419.51149  23380757.5164   23380765.0694
  20734400.924     2882711.43749   2249488.70649  20734400.1834   20734405.4074
  20187528.746   -12994188.12349 -10108094.82149  20187528.5104   20187533.4704
  23431960.179    -7177498.13549  -5578287.49449  23431961.1524   23431966.3544
 96  5 13 17 18 29.9990000  0  6 26  2 19 27  7 15
  22373955.289   -10747468.70349  -8343043.84749  22373955.6104   22373960.5834
  20855800.668    -1303820.38949  -1010230.43949  20855800.0254   20855804.4934
  23396688.200    11402128.17249   8871656.36049  23396688.8904   23396697.0404
  20743935.561     2932820.57649   2288534.76149  20743935.5044   20743941.1574
  20179194.041   -13037985.05749 -10142222.29749  20179194.1144   20179199.1074
  23431006.164    -7182514.79349  -5582196.58349  23431006.4184   23431011.5804
 96  5 13 17 18 59.9990000  0  6 26  2 19 27  7 15
  22368974.760   -10773637.76849  -8363435.35049  22368975.7824   22368980.8634
  20856550.444    -1299881.46549  -1007161.15749  20856549.2514   20856554.0054
  23412645.262    11485988.95049   8937002.36649  23412647.5964   23412654.3304
  20753542.864     2983304.65949   2327872.98349  20753542.7924   20753547.8904
  20170941.220   -13081357.51449 -10176019.00549  20170940.7254   20170945.3534
  23430150.417    -7187018.32149  -5585705.82849  23430149.0664   23430154.9224
 96  5 13 17 19 29.9990000  0  6 26  2 19 27  7 15
  22364084.973   -10799342.27949  -8383464.85849  22364084.3314   22364089.0264
  20857316.176    -1295848.72449  -1004018.77549  20857316.8534   20857321.7524
  23428630.076    11569980.42649   9002450.18249  23428630.6284   23428636.6264
  20763217.254     3034149.53249   2367492.34549  20763218.2954   20763223.1154
  20162766.427   -13124308.36549 -10209487.19349  20162767.4394   20162772.1364
  23429386.452    -7191018.84049  -5588823.10349  23429388.7714   23429392.9804
 96  5 13 17 19 59.9990000  0  6 26  2 19 27  7 15
  22359284.085   -10824564.09049  -8403118.24049  22359285.4224   22359289.8914
  20858104.459    -1291715.55649  -1000798.14049  20858103.3314   20858108.1694
  23444642.342    11654128.95449   9068020.38749  23444643.0774   23444650.9374
  20772967.969     3085387.03249   2407417.64949  20772968.1024   20772973.3534
  20154680.043   -13166807.94049 -10242603.73049  20154680.2514   20154684.9724
  23428725.637    -7194490.17749  -5591528.04049  23428727.0544   23428732.0474
 96  5 13 17 20 29.9990000  0  6 26  2 19 27  7 15
  22354575.053   -10849316.96249  -8422406.21449  22354574.8774   22354579.4044
  20858908.124    -1287487.28249   -997503.39949  20858908.1304   20858913.1974
  23460683.153    11738428.36049   9133708.17149  23460684.6134   23460691.9724
  20782791.209     3137010.86749   2447643.98349  20782792.0324   20782796.8544
  20146678.256   -13208854.41849 -10275367.21649  20146679.1544   20146684.0724
  23428166.212    -7197439.64649  -5593826.31549  23428166.0094   23428171.4344
 96  5 13 17 20 59.9990000  0  6 26  2 19 27  7 15
  22349954.797   -10873600.58149  -8441328.53549  22349953.9714   22349958.2254
  20859735.202    -1283144.72849   -994119.61149  20859734.1944   20859739.5074
  23476760.003    11822900.82249   9199530.78049  23476761.0544   23476766.4304
  20792690.966     3189032.60649   2488180.37649  20792691.1974   20792696.4444
  20138766.254   -13250436.61349 -10307768.92049  20138765.9834   20138771.2234
  23427703.581    -7199858.00449  -5595710.76549  23427705.2804   23427710.1094
 96  5 13 17 21 29.9990000  0  6 26  2 19 27  7 15
  22345420.738   -10897418.13649  -8459887.68649  22345421.2934   22345426.2864
  20860580.132    -1278698.89949   -990655.34149  20860580.3924   20860584.9854
  23492865.528    11907536.84949   9265480.85049  23492864.8384   23492871.5624
  20802667.380     3241455.60649   2529029.44449  20802667.4414   20802671.6534
  20130937.683   -13291572.12349 -10339822.56249  20130938.0454   20130943.2314
  23427344.853    -7201752.24749  -5597186.79449  23427345.1294   23427350.7644
 96  5 13 17 21 59.9990000  0  6 26  2 19 27  7 15
  22340982.912   -10920740.13349  -8478060.69649  22340983.4674   22340988.0364
  20861450.654    -1274128.77549   -987094.22549  20861450.3114   20861455.1274
  23509004.405    11992343.43349   9331563.82649  23509002.7154   23509010.0264
  20812722.223     3294293.84049   2570202.07549  20812721.8984   20812726.5784
  20123194.186   -13332267.40649 -10371533.15949  20123194.4814   20123199.3534
  23427082.297    -7203114.91449  -5598248.60149  23427085.0814   23427092.0944
 96  5 13 17 22 29.9990000  0  6 26  2 19 27  7 15
  22336637.693   -10943576.51549  -8495855.29249  22336637.9434   22336642.4144
  20862344.303    -1269431.60249   -983434.11249  20862343.9274   20862349.0514
  23525171.177    12077299.82349   9397763.54549  23525171.6814   23525176.4024
  20822851.484     3347523.97349   2611680.07549  20822851.5354   20822856.4714
  20115525.940   -13372559.68549 -10402929.72849  20115526.7974   20115531.5354
  23426925.227    -7203966.60149  -5598912.23749  23426924.1904   23426929.2004
 96  5 13 17 22 59.9990000  0  6 26  2 19 27  7 15
  22332385.814   -10965915.96549  -8513262.67149  22332386.1694   22332391.3144
  20863263.871    -1264600.84149   -979669.90449  20863263.2074   20863268.0904
  23541362.290    12162394.52949   9464071.03149  23541363.7054   23541369.8514
  20833057.236     3401154.91249   2653470.39149  20833057.1624   20833062.1384
  20107934.649   -13412453.14549 -10434015.52949  20107935.2734   20107940.4614
  23426858.508    -7204300.55849  -5599172.46449  23426859.6434   23426865.6284
 96  5 13 17 23 29.9990000  0  6 26  2 19 27  7 15
  22328232.254   -10987747.87949  -8530274.56649  22328231.9194   22328236.5544
  20864207.146    -1259640.45849   -975804.68149  20864207.2884   20864212.2734
  23557581.336    12247617.05749   9530478.11949  23557580.3074   23557587.5584
  20843336.054     3455172.66349   2695562.11849  20843336.4364   20843341.7534
  20100420.802   -13451936.24349 -10464781.57349  20100421.7034   20100426.8974
  23426897.340    -7204114.20749  -5599027.26349  23426895.9904   23426901.8474
 96  5 13 17 23 59.9990000  0  6 26  2 19 27  7 15
  22324175.506   -11009072.48549  -8546891.16049  22324174.4114   22324179.2744
  20865175.400    -1254557.50949   -971843.96649  20865174.4954   20865179.2834
  23573820.703    12332961.26349   9596980.00349  23573820.1164   23573827.5804
  20853684.895     3509552.94549   2737936.33349  20853684.7404   20853689.4704
  20092990.359   -13490987.16449 -10495210.85549  20092990.5974   20092995.4694
  23427032.015    -7203410.14649  -5598478.65249  23427029.3964   23427035.9264
 96  5 13 17 24 29.9990000  0  6 26  2 19 27  7 15
  22320212.104   -11029902.17249  -8563122.10349  22320210.9094   22320215.6074
  20866162.449    -1249368.63349   -967800.70949  20866162.2064   20866166.7234
  23590085.922    12418431.47949   9663580.10049  23590086.2874   23590091.4534
  20864102.484     3564302.07449   2780597.96549  20864103.0994   20864107.8874
  20085646.407   -13529584.30049 -10525286.53749  20085646.1654   20085650.8094
  23427263.904    -7202178.25249  -5597518.75049  23427264.1214   23427269.6854
 96  5 13 17 24 59.9990000  0  6 26  2 19 27  7 15
  22316337.384   -11050255.53449  -8578981.88649  22316337.6434   22316342.6944
  20867162.758    -1244108.84549   -963702.19449  20867163.0044   20867167.7764
  23606372.021    12504015.32649   9730268.72849  23606371.8964   23606378.3624
  20874589.199     3619406.82249   2823536.70349  20874589.0684   20874594.6284
  20078389.007   -13567719.02749 -10555001.89649  20078388.9634   20078394.1614
  23427596.726    -7200428.86049  -5596155.58249  23427597.5954   23427602.9364
 96  5 13 17 25 29.9990000  0  6 26  2 19 27  7 15
  22312555.350   -11070120.15149  -8594460.81949  22312557.2074   22312562.1034
  20868179.460    -1238768.54249   -959540.93449  20868179.0644   20868184.0054
  23622681.368    12589722.00849   9797053.07349  23622681.3384   23622688.6004
  20885143.539     3674871.86849   2866756.18949  20885143.8724   20885149.1774
  20071222.960   -13605378.80049 -10584347.16149  20071222.7184   20071227.7324
  23428031.142    -7198157.59849  -5594385.80449  23428029.8624   23428033.7924
 96  5 13 17 25 59.9990000  0  6 26  2 19 27  7 15
  22308868.889   -11089496.62049  -8609559.38149  22308870.0574   22308874.6334
  20869215.152    -1233322.73049   -955297.45949  20869215.2644   20869219.8264
  23639020.239    12675569.71449   9863947.31149  23639018.5784   23639024.8574
  20895772.374     3730728.22049   2910280.59549  20895772.7894   20895777.7284
  20064145.917   -13642563.66449 -10613322.36949  20064146.4564   20064151.6334
  23428561.724    -7195349.93049  -5592198.03849  23428562.5464   23428569.6714
 96  5 13 17 26 29.9990000  0  6 26  2 19 27  7 15
  22305269.979   -11108413.43149  -8624299.76949  22305270.5094   22305274.4544
  20870273.865    -1227762.88349   -950965.13049  20870273.4614   20870277.6954
  23655381.604    12761546.57349   9930942.17249  23655379.1634   23655386.8794
  20906477.662     3786981.52549   2954114.30649  20906477.8784   20906482.2064
  20057155.815   -13679299.14449 -10641947.40949  20057156.2294   20057161.4054
  23429199.111    -7192018.73649  -5589602.30749  23429197.5824   23429204.5554
 96  5 13 17 26 59.9990000  0  6 26  2 19 27  7 15
  22301763.207   -11126837.91449  -8638656.53049  22301764.3484   22301768.7474
  20871359.538    -1222057.19149   -946519.15049  20871358.9624   20871364.0494
  23671765.173    12847656.16549   9998040.48149  23671766.0484   23671772.5504
  20917259.239     3843638.63649   2998262.67649  20917259.3614   20917264.0084
  20050251.840   -13715576.89949 -10670215.77749  20050252.8654   20050257.9724
  23429931.665    -7188156.51649  -5586592.81249  23429931.9414   23429938.5004
 96  5 13 17 27 29.9990000  0  6 26  2 19 27  7 15
  22298354.282   -11144759.04849  -8652621.06249  22298354.1584   22298358.9634
  20872477.096    -1216186.18449   -941944.35649  20872476.4364   20872481.0264
  23688180.373    12933912.31049  10065252.98449  23688179.1854   23688186.4594
  20928117.331     3900702.28849   3042727.82449  20928117.9834   20928122.7224
  20043435.389   -13751402.51549 -10698131.83249  20043435.0574   20043440.8024
  23430770.759    -7183755.31249  -5583163.32949  23430769.7074   23430775.8154
 96  5 13 17 27 59.9990000  0  6 26  2 19 27  7 15
  22295033.918   -11162203.21249  -8666213.92749  22295034.8854   22295039.2864
  20873622.371    -1210163.09749   -937251.06249  20873622.5284   20873627.4094
  23704618.921    13020300.96549  10132568.73549  23704618.9264   23704626.0034
  20939048.059     3958142.22649   3087486.18549  20939048.1844   20939053.3024
  20036698.127   -13786803.74649 -10725717.19949  20036698.6764   20036703.9584
  23431707.230    -7178831.28049  -5579326.44749  23431706.9154   23431712.5904
 96  5 13 17 28 29.9990000  0  6 26  2 19 27  7 15
  22291808.407   -11179151.26549  -8679420.22749  22291809.7874   22291814.7294
  20874795.731    -1204006.84649   -932454.00649  20874794.2454   20874798.7424
  23721083.193    13106805.28749  10199974.60049  23721080.5824   23721086.9724
  20950045.174     4015929.01149   3132514.80349  20950045.0084   20950050.2964
  20030041.077   -13821786.15049 -10752976.21449  20030041.4934   20030046.9864
  23432742.045    -7173391.32749  -5575087.55649  23432742.3334   23432748.9734
 96  5 13 17 28 59.9990000  0  6 26  2 19 27  7 15
  22288684.117   -11195573.62149  -8692216.88249  22288684.5194   22288689.8444
  20875989.693    -1197725.31049   -927559.31849  20875989.7314   20875994.1384
  23737564.811    13193441.19149  10267483.01849  23737565.8714   23737572.7874
  20961105.067     4074051.72649   3177805.19249  20961105.0564   20961110.5164
  20023466.125   -13856341.20649 -10779902.22149  20023466.1954   20023471.4594
  23433879.755    -7167424.04649  -5570437.76249  23433878.0214   23433883.6754
 96  5 13 17 29 29.9990000  0  6 26  2 19 27  7 15
  22285652.219   -11211502.38349  -8704628.92249  22285652.9904   22285658.2034
  20877205.608    -1191331.35649   -922577.03549  20877206.3904   20877211.1944
  23754078.752    13280206.25349  10335092.06949  23754077.0854   23754083.3344
  20972227.737     4132498.95349   3223348.45149  20972227.2704   20972232.7724
  20016967.806   -13890483.64049 -10806506.70949  20016969.0094   20016974.2064
  23435111.629    -7160935.90149  -5565382.09449  23435112.6904   23435119.8654
 96  5 13 17 29 59.9990000  0  6 26  2 19 27  7 15
  22282714.321   -11226949.25349  -8716665.45949  22282713.1934   22282718.2784
  20878442.347    -1184837.78749   -917517.12949  20878442.0494   20878446.6674
  23770607.522    13367072.28749  10402779.80249  23770607.6654   23770613.8604
  20983410.375     4191264.49949   3269139.75149  20983410.5524   20983414.8464
  20010550.100   -13924215.89749 -10832791.57649  20010549.6904   20010555.0204
  23436443.665    -7153937.73349  -5559929.00849  23436443.4704   23436450.1964
 96  5 13 17 30 29.9990000  0  7 26  2 19  9 27  7 15
  22279869.679   -11241897.81649  -8728313.70749  22279869.0944   22279874.0124
  20879698.363    -1178235.27449   -912372.32649  20879698.1044   20879702.7854
  23787162.881    13454067.59849  10470568.26449  23787160.9164   23787168.4604
  24388488.258    -4949396.81059  -3586350.56759  24388489.2944   24388495.7804
  20994659.033     4250378.82249   3315202.83049  20994659.2944   20994664.3104
  20004217.750   -13957497.68249 -10858725.42449  20004216.7814   20004221.3954
  23437878.031    -7146406.44949  -5554060.51249  23437876.8084   23437882.6784
 96  5 13 17 30 59.9990000  0  7 26  2 19  9 27  7 15
  22277112.286   -11256376.28949  -8739595.65049  22277114.5814   22277119.1244
  20880976.606    -1171520.10849   -907139.74349  20880976.1834   20880980.9314
  23803740.608    13541199.84849  10538463.42749  23803742.8154   23803748.9984
  24367343.858    -5060514.33449  -3672935.60749  24367343.3764   24367349.9834
  21005978.029     4309860.09249   3361551.84549  21005978.1024   21005983.9834
  19997968.186   -13990333.59549 -10884311.84149  19997967.8654   19997972.9174
  23439410.576    -7138344.92549  -5547778.84349  23439410.6794   23439417.2854
 96  5 13 17 31 29.9990000  0  7 26  2 19  9 27  7 15
  22274447.607   -11270380.85049  -8750508.31549  22274448.9894   22274454.0574
  20882280.737    -1164663.63149   -901797.04949  20882280.9744   20882285.7524
  23820349.851    13628467.92849  10606464.43549  23820348.9984   23820356.7084
  24346196.459    -5171648.27249  -3759533.44649  24346196.3084   24346200.6254
  21017371.810     4369734.34749   3408207.06749  21017371.9954   21017376.9094
  19991806.088   -14022714.37949 -10909543.60849  19991806.6554   19991810.9624
  23441047.195    -7129745.06649  -5541077.69149  23441047.2354   23441053.6244
 96  5 13 17 31 59.9990000  0  7 26  2 19  9 27  7 15
  22271874.874   -11283909.08649  -8761049.82049  22271874.9584   22271879.8924
  20883611.361    -1157673.18849   -896349.96649  20883611.1984   20883615.8654
  23836975.742    13715856.89149  10674559.62549  23836978.9744   23836986.0314
  24325038.738    -5282813.24749  -3846155.47049  24325041.4624   24325047.7694
  21028840.654     4430000.99549   3455168.05649  21028840.3484   21028845.4824
  19985729.917   -14054643.08149 -10934423.10649  19985730.6744   19985735.4604
  23442785.553    -7120618.93549  -5533966.44849  23442784.3154   23442790.5124
 96  5 13 17 32 29.9990000  0  7 26  2 19  9 27  7 15
  22269392.769   -11296952.68749  -8771213.68149  22269392.4704   22269397.9524
  20884966.033    -1150557.59949   -890805.36549  20884965.4534   20884969.8584
  23853633.965    13803375.73249  10742756.04449  23853633.6234   23853641.0964
  24303880.664    -5394013.35649  -3932804.87449  24303880.3394   24303887.7854
  21040383.987     4490664.62449   3502438.38549  21040384.0874   21040389.4574
  19979738.968   -14086126.36849 -10958955.52949  19979739.5544   19979744.6434
  23444622.129    -7110966.23849  -5526444.88849  23444621.7034   23444628.3544
 96  5 13 17 32 59.9990000  0  7 26  2 19  9 27  7 15
  22267004.091   -11309505.60749  -8780995.19349  22267004.2814   22267008.9704
  20886343.894    -1143314.10649   -885161.09149  20886343.6984   20886348.4634
  23870308.169    13891000.64749  10811035.10149  23870307.4314   23870315.4234
  24282714.194    -5505243.91049  -4019477.99549  24282713.4324   24282720.3304
  21052002.437     4551716.61849   3550011.32849  21052002.1324   21052007.2064
  19973828.877   -14117185.61749 -10983157.53349  19973828.7614   19973834.4264
  23446558.616    -7100794.96149  -5518519.25349  23446556.9194   23446563.0934
 96  5 13 17 33 29.9990000  0  7 26  2 19  9 27  7 15
  22264715.566   -11321529.99149  -8790364.85449  22264716.4394   22264721.2794
  20887752.594    -1135917.55349   -879397.55649  20887751.4984   20887755.8324
  23887004.865    13978751.68249  10879412.44949  23887007.0244   23887013.7854
  24261549.219    -5616470.14049  -4106147.75049  24261548.2314   24261555.1554
  21063698.590     4613179.00349   3597904.04249  21063698.0234   21063702.6484
  19968006.712   -14147782.28149 -11006999.07649  19968006.8624   19968012.1464
  23448597.841    -7090077.26249  -5510167.82149  23448596.5714   23448602.3154
 96  5 13 17 33 59.9990000  0  7 26  2 19  9 27  7 15
  22262524.798   -11333048.24449  -8799340.13649  22262523.6844   22262529.6644
  20889181.781    -1128399.38349   -873539.25549  20889182.0544   20889186.5624
  23903725.059    14066611.81849  10947874.79349  23903726.6624   23903732.9734
  24240382.588    -5727688.35449  -4192811.24949  24240383.4704   24240391.0094
  21075466.432     4675029.99149   3646099.56149  21075467.5274   21075472.8894
  19962269.538   -14177932.25149 -11030492.55049  19962269.6184   19962274.8514
  23450736.652    -7078825.14649  -5501399.98849  23450737.8074   23450744.2794
 96  5 13 17 34 29.9990000  0  7 26  2 19  9 27  7 15
  22260419.325   -11344110.57749  -8807960.14749  22260418.8234   22260424.4514
  20890629.121    -1120797.57049   -867615.77749  20890628.5944   20890633.0614
  23920454.672    14154535.49549  11016386.66449  23920457.0054   23920464.5124
  24219216.132    -5838929.46749  -4279492.59549  24219216.1734   24219222.0354
  21087300.093     4737211.14149   3694552.36849  21087300.2304   21087305.6454
  19956606.939   -14207690.85349 -11053681.05649  19956606.6404   19956612.0504
  23452973.482    -7067079.18849  -5492247.33649  23452974.0184   23452979.6454
 96  5 13 17 34 59.9990000  0  7 26  2 19  9 27  7 15
  22258403.398   -11354695.68549  -8816208.29249  22258405.0104   22258409.8174
  20892101.887    -1113061.69049   -861587.83649  20892100.7694   20892105.3194
  23937203.505    14242547.81849  11084967.60949  23937203.6864   23937211.8434
  24198048.783    -5950163.12049  -4366168.14249  24198048.6934   24198054.4434
  21099201.043     4799747.06649   3743281.63349  21099201.0314   21099206.3084
  19951025.658   -14237017.13249 -11076532.68849  19951025.6714   19951030.6384
  23455307.917    -7054810.58449  -5482687.42049  23455308.4554   23455314.4664
 96  5 13 17 35 29.9990000  0  8 26  2 19  4  9 27  7 15
  22256477.965   -11364821.43249  -8824098.49549  22256477.9154   22256483.1654
  20893594.904    -1105207.98149   -855468.07449  20893595.2704   20893599.8404
  23953967.158    14330635.27349  11153607.08249  23953967.0814   23953974.1364
  24297678.817    -4438523.93959  -3442245.66359  24297677.0684   24297683.9714
  24176875.687    -6061422.05349  -4452863.39049  24176876.2074   24176881.5694
  21111166.382     4862622.84349   3792275.72349  21111166.1834   21111170.9484
  19945526.135   -14265915.83949 -11099051.14849  19945526.5884   19945531.4384
  23457737.503    -7042034.12049  -5472731.77549  23457738.9054   23457745.1584
 96  5 13 17 35 59.9990000  0  8 26  2 19  4  9 27  7 15
  22254639.465   -11374478.45749  -8831623.46349  22254640.3054   22254645.1944
  20895113.024    -1097230.53949   -849251.90049  20895113.5884   20895117.9294
  23970746.215    14418805.90249  11222311.39249  23970746.6084   23970753.4644
  24275904.236    -4552933.07849  -3531395.51149  24275904.0734   24275912.2624
  24155700.345    -6172697.00649  -4539571.11449  24155700.5414   24155707.4524
  21123196.005     4925839.06449   3841535.07549  21123195.8074   21123200.6534
  19940110.158   -14294378.35549 -11121229.72049  19940110.2524   19940115.0764
  23460267.349    -7028738.29249  -5462371.42349  23460269.0884   23460275.4374
 96  5 13 17 36 29.9990000  0  8 26  2 19  4  9 27  7 15
  22252891.458   -11383669.91049  -8838785.65649  22252891.2274   22252896.6544
  20896653.374    -1089139.84849   -842947.47549  20896653.1174   20896657.4744
  23987537.035    14507059.85349  11291080.61649  23987540.3134   23987548.0694
  24254107.247    -4667468.36649  -3620643.62049  24254108.8284   24254116.5344
  24134516.182    -6284009.19849  -4626307.84949  24134519.0634   24134526.1224
  21135289.576     4989387.80849   3891053.54149  21135288.8514   21135293.6834
  19934775.933   -14322409.86149 -11143072.44149  19934776.2334   19934781.1744
  23462895.443    -7014934.97049  -5451615.62449  23462896.0924   23462902.0584
 96  5 13 17 36 59.9990000  0  8 26  2 19  4  9 27  7 15
  22251232.185   -11392387.35849  -8845578.48749  22251232.3284   22251237.3364
  20898213.152    -1080942.47449   -836559.92449  20898212.9894   20898217.5904
  24004351.814    14595409.73649  11359924.60149  24004352.9674   24004361.8674
  24232295.737    -4782114.10449  -3709977.85649  24232293.9514   24232301.6944
  24113329.225    -6395356.59449  -4713072.02149  24113330.6144   24113336.1844
  21147447.508     5053283.98949   3940842.72949  21147447.7034   21147452.7364
  19929527.820   -14349991.29249 -11164564.44849  19929527.5494   19929532.6494
  23465621.821    -7000615.65249  -5440457.75749  23465620.8364   23465627.0184
 96  5 13 17 37 29.9990000  0  8 26  2 19  4  9 27  7 15
  22249662.769   -11400630.53649  -8852001.76949  22249663.7214   22249668.8734
  20899790.530    -1072653.70749   -830101.15549  20899790.1644   20899794.8474
  24021184.835    14683863.58849  11428849.58249  24021185.9014   24021192.8814
  24210454.155    -4896872.37349  -3799399.75349  24210455.8204   24210462.9184
  24092140.833    -6506724.23749  -4799851.96249  24092138.6494   24092143.7644
  21159668.995     5117508.62949   3990887.85749  21159669.0664   21159674.2434
  19924360.831   -14377139.68949 -11185719.02649  19924361.6514   19924366.3534
  23468445.278    -6985782.78549  -5428899.71249  23468442.5334   23468448.5144
 96  5 13 17 37 59.9990000  0  8 26  2 19  4  9 27  7 15
  22248185.596   -11408393.08749  -8858050.52549  22248186.5114   22248191.8194
  20901386.307    -1064267.90349   -823566.77049  20901386.1714   20901390.5354
  24038042.314    14772440.01349  11497870.08249  24038040.3794   24038048.3134
  24188600.579    -5011733.37649  -3888901.72349  24188598.9074   24188604.9914
  24070948.983    -6618079.36049  -4886622.14549  24070948.3794   24070954.2764
  21171953.975     5182066.63549   4041192.75149  21171953.8724   21171959.5664
  19919276.271   -14403861.44249 -11206541.15749  19919276.3544   19919281.1564
  23471366.501    -6970429.89449  -5416936.44649  23471365.1854   23471370.2954
 96  5 13 17 38 29.9990000  0  8 26  2 19  4  9 27  7 15
  22246806.926   -11415644.91449  -8863701.31849  22246806.3894   22246811.9064
  20903008.347    -1055742.77449   -816923.82149  20903008.5954   20903012.6994
  24054925.319    14861167.91949  11567008.60949  24054926.0824   24054934.7454
  24166730.402    -5126663.21149  -3978457.30449  24166728.7044   24166733.2414
  24049767.842    -6729390.62249  -4973358.17249  24049765.6764   24049772.9854
  21184308.042     5246986.83249   4091779.87849  21184308.2024   21184313.6054
  19914278.355   -14430132.99949 -11227012.48549  19914277.0904   19914281.9954
  23474390.084    -6954530.98649  -5404547.70249  23474390.4674   23474396.6094
 96  5 13 17 38 59.9980000  0  8 26  2 19  4  9 27  7 15
  22245508.220   -11422460.11549  -8869011.87949  22245509.4884   22245514.7634
  20904644.755    -1047143.72449   -810223.27849  20904644.6704   20904649.3404
  24071818.456    14949959.64249  11636196.86449  24071820.9464   24071831.0714
  24144830.282    -5241735.28949  -4068123.72149  24144829.9614   24144837.5844
  24028581.602    -6840718.75549  -5060107.30949  24028582.1584   24028587.7404
  21196715.092     5312188.90849   4142586.64349  21196716.0204   21196720.9394
  19909350.032   -14456025.91649 -11247188.77249  19909349.9954   19909355.0454
  23477501.305    -6938160.85049  -5391791.78649  23477504.9664   23477510.5224
 96  5 13 17 39 29.9980000  0  8 26  2 19  4  9 27  7 15
  22244305.544   -11428789.62849  -8873943.98149  22244305.0734   22244310.8254
  20906305.671    -1038413.93749   -803420.86049  20906305.8244   20906310.3234
  24088738.393    15038855.27749  11705466.08149  24088738.4984   24088746.2304
  24122907.994    -5356926.89849  -4157883.30549  24122910.0354   24122916.6004
  24007401.210    -6952017.67149  -5146833.69549  24007401.8144   24007407.4264
  21209187.665     5377729.22449   4193656.98049  21209187.2824   21209192.9764
  19904500.718   -14481504.36049 -11267042.09449  19904501.3994   19904506.6644
  23480719.309    -6921274.74749  -5378633.79049  23480718.5754   23480726.1034
 96  5 13 17 39 59.9980000  0  8 26  2 19  4  9 27  7 15
  22243195.137   -11434624.28449  -8878490.48249  22243194.5974   22243200.1994
  20907996.694    -1029530.87849   -796499.01049  20907996.2904   20908000.8774
  24105673.857    15127851.05549  11774813.32449  24105674.1734   24105680.5724
  24100970.989    -5472215.91149  -4247718.79249  24100970.6544   24100978.0044
  23986231.516    -7063286.17249  -5233536.37749  23986228.8464   23986234.9274
  21221729.866     5443636.70149   4245013.41749  21221729.3794   21221734.6594
  19899738.569   -14506536.25249 -11286547.45649  19899738.1364   19899742.8094
  23484033.699    -6903854.80949  -5365059.83949  23484034.4674   23484040.1354
 96  5 13 17 40 29.9980000  0  8 26  2 19  4  9 27  7 15
  22242177.379   -11439963.25849  -8882650.73949  22242178.9284   22242183.9774
  20909718.563    -1020480.62849   -789446.88049  20909718.5624   20909723.0114
  24122626.089    15216941.28849  11844234.17749  24122627.0294   24122633.8344
  24079011.761    -5587604.34449  -4337631.76049  24079012.4334   24079020.2214
  23965058.708    -7174530.32249  -5320220.07549  23965059.7344   23965066.1484
  21234344.432     5509925.31249   4296666.83949  21234344.1134   21234348.3184
  19895060.540   -14531114.74349 -11305699.51849  19895061.1134   19895065.9704
  23487454.212    -6885893.70349  -5351064.16849  23487451.4554   23487457.7304
 96  5 13 17 40 59.9980000  0  8 26  2 19  4  9 27  7 15
  22241247.382   -11444851.04749  -8886459.42749  22241248.6994   22241254.0734
  20911463.125    -1011315.28449   -782305.07449  20911462.7134   20911467.2754
  24139589.199    15306090.08349  11913700.66449  24139591.9624   24139598.6704
  24057031.082    -5703122.65749  -4427645.94849  24057029.9334   24057036.6854
  23943885.171    -7285786.44849  -5406913.13449  23943887.5444   23943893.2544
  21247025.216     5576564.02549   4348593.07649  21247024.7404   21247029.7504
  19890463.602   -14555273.34449 -11324524.39449  19890463.6414   19890468.7974
  23490965.532    -6867430.81949  -5336677.52049  23490965.8064   23490970.0534
 96  5 13 17 41 29.9980000  0  8 26  2 19  4  9 27  7 15
  22240405.486   -11449282.38949  -8889912.43949  22240405.9584   22240410.6964
  20913228.871    -1002031.85349   -775071.25249  20913229.2064   20913233.8124
  24156569.925    15395309.01149  11983221.79649  24156569.8654   24156576.5864
  24035025.995    -5818747.53249  -4517743.11849  24035027.5584   24035034.2284
  23922714.986    -7397054.97449  -5493615.86649  23922714.4784   23922718.9354
  21259774.011     5643562.52549   4400799.67349  21259774.0734   21259779.2734
  19885947.956   -14579011.42349 -11343021.58249  19885946.6184   19885951.4774
  23494574.768    -6848461.77949  -5321896.44149  23494575.4194   23494581.4194
 96  5 13 17 41 59.9980000  0  8 26  2 19  4  9 27  7 15
  22239649.795   -11453253.43949  -8893006.77749  22239650.4134   22239654.7474
  20915016.811     -992638.55149   -767751.81249  20915016.9694   20915021.5014
  24173558.601    15484614.02149  12052810.00149  24173562.3974   24173569.3124
  24013004.350    -5934474.67249  -4607920.03649  24013006.5644   24013012.1724
  23901537.795    -7508340.85949  -5580332.09849  23901537.7744   23901542.1884
  21272590.300     5710908.82149   4453277.27249  21272590.1364   21272594.9614
  19881509.432   -14602326.32749 -11361189.02549  19881509.9514   19881514.8384
  23498281.951    -6828989.57049  -5306723.30449  23498279.8004   23498286.8424
 96  5 13 17 42 29.9980000  0  7 26  2  4  9 27  7 15
  22238986.658   -11456738.36449  -8895722.33049  22238986.9834   22238991.6814
  20916827.218     -983130.80949   -760343.19849  20916826.1554   20916831.0864
  23990967.673    -6050286.87149  -4698163.19249  23990967.2694   23990973.7004
  23880363.606    -7619620.66749  -5667043.60449  23880361.3184   23880365.7144
  21285474.172     5778621.18949   4506040.11549  21285474.9904   21285480.2754
  19877154.780   -14625212.06349 -11379022.05649  19877154.8234   19877159.9384
  23502083.787    -6809005.13949  -5291151.03349  23502083.2994   23502089.4954
 96  5 13 17 42 59.9980000  0  7 26  2  4  9 27  7 15
  22238412.790   -11459763.38949  -8898079.50149  22238411.5854   22238416.0684
  20918647.503     -973562.23649   -752887.17649  20918646.9804   20918651.6374
  23968911.542    -6166202.31749  -4788486.83749  23968910.3054   23968915.7564
  23859182.747    -7730927.29149  -5753776.01549  23859179.7144   23859185.8374
  21298420.235     5846649.73249   4559049.33249  21298420.6584   21298425.7134
  19872876.205   -14647696.20849 -11396542.16049  19872876.2624   19872881.1654
  23505976.724    -6788547.95649  -5275210.38949  23505975.4944   23505982.8444
 96  5 13 17 43 29.9980000  0  7 26  2  4  9 27  7 15
  22237929.416   -11462297.42249  -8900054.09549  22237929.1964   22237934.4854
  20920486.196     -963902.56649   -745360.18149  20920485.1874   20920489.4974
  23946834.718    -6282207.13049  -4878880.08849  23946833.8904   23946839.2124
  23837997.526    -7842233.31949  -5840507.93949  23838000.2514   23838006.5654
  21311428.259     5915006.47749   4612314.28149  21311428.3844   21311433.5854
  19868676.343   -14669766.63649 -11413739.88549  19868676.4164   19868681.1584
  23509964.174    -6767593.43449  -5258882.20649  23509962.9284   23509969.0744
 96  5 13 17 43 59.9980000  0  7 26  2  4  9 27  7 15
  22237537.396   -11464349.54149  -8901653.17749  22237538.5904   22237543.7434
  20922341.676     -954146.27049   -737757.88349  20922341.7974   20922346.1944
  23924741.967    -6398300.66749  -4969342.54449  23924743.0184   23924749.3674
  23816823.500    -7953520.57749  -5927225.25249  23816822.1764   23816829.0924
  21324496.367     5983683.94549   4665829.15449  21324496.7494   21324502.5264
  19864555.377   -14691423.14049 -11430615.07249  19864555.3214   19864560.3494
  23514044.566    -6746140.88449  -5242165.95249  23514045.0404   23514052.1394
 96  5 13 17 44 29.9980000  0  7 26  2  4  9 27  7 15
  22237238.162   -11465931.33649  -8902885.76449  22237237.8004   22237242.9684
  20924218.857     -944278.61149   -730068.81049  20924219.4904   20924223.8064
  23902640.345    -6514448.63249  -5059847.30549  23902640.2304   23902645.7314
  23795650.196    -8064783.94249  -6013923.94549  23795649.4194   23795654.2684
  21337627.828     6052685.65549   4719596.69349  21337627.4464   21337633.2974
  19860513.234   -14712664.72449 -11447166.94249  19860513.6004   19860518.1534
  23518224.017    -6724185.59849  -5225057.94649  23518223.6944   23518230.0714
 96  5 13 17 44 59.9980000  0  7 26  2  4  9 27  7 15
  22237025.858   -11467035.25249  -8903745.98449  22237027.7114   22237032.7864
  20926124.141     -934273.24349   -722272.42749  20926123.6264   20926127.9864
  23880530.984    -6630636.68449  -5150383.41749  23880530.1394   23880538.2294
  23774484.477    -8175997.05949  -6100583.47549  23774485.4774   23774491.8814
  21350818.910     6122002.38149   4773609.70249  21350817.7264   21350824.1814
  19856551.699   -14733481.61949 -11463387.89449  19856551.8894   19856556.5174
  23522500.097    -6701709.38749  -5207544.03649  23522500.8364   23522506.0764
 96  5 13 17 45 29.9980000  0  7 26  2  4  9 27  7 15
  22236901.715   -11467697.41549  -8904261.97349  22236901.5554   22236907.1124
  20928054.524     -924126.56949   -714365.94049  20928054.1734   20928058.7524
  23858407.037    -6746899.99449  -5240978.09949  23858406.8854   23858412.3704
  23753331.515    -8287177.21249  -6187217.31549  23753328.2994   23753333.9954
  21364065.596     6191617.90349   4827855.53949  21364065.7994   21364071.5104
  19852668.064   -14753890.81849 -11479291.15449  19852668.1554   19852673.0084
  23526870.545    -6678735.07549  -5189641.98549  23526872.1394   23526878.2594
 96  5 13 17 45 59.9980000  0  7 26  2  4  9 27  7 15
  22236861.364   -11467917.49649  -8904433.48149  22236859.6774   22236865.0114
  20930016.488     -913818.76649   -706333.89849  20930015.7534   20930020.1514
  23836270.239    -6863214.83549  -5331612.97449  23836272.6054   23836279.6144
  23732176.966    -8398324.98549  -6273825.92949  23732178.4224   23732183.2564
  21377373.547     6261544.78249   4882343.97449  21377372.7634   21377377.6934
  19848867.208   -14773868.25649 -11494857.97549  19848866.6244   19848871.1144
  23531344.631    -6655250.98549  -5171342.71149  23531341.3184   23531347.6394
 96  5 13 17 46 29.9980000  0  7 26  2  4  9 27  7 15
  22236902.353   -11467696.55849  -8904261.34449  22236901.6234   22236907.5014
  20932004.321     -903373.77049   -698194.95349  20932003.6244   20932007.8514
  23814123.690    -6979597.47549  -5422300.66549  23814123.9424   23814130.2174
  23711029.547    -8509472.48149  -6360434.31949  23711026.8024   23711032.8194
  21390737.188     6331771.49449   4937066.03949  21390736.4884   21390741.6004
  19845144.416   -14793429.23749 -11510100.28749  19845144.5504   19845148.9524
  23535906.165    -6631274.00149  -5152659.36549  23535904.1394   23535910.6924
 96  5 13 17 46 59.9980000  0  7 26  2  4  9 27  7 15
  22237029.047   -11467019.27349  -8903733.60149  22237030.4484   22237036.3284
  20934015.792     -892797.62349   -689953.80649  20934015.9474   20934020.8054
  23791961.372    -7096064.75749  -5513054.31149  23791962.0934   23791970.0764
  23689880.184    -8620612.50049  -6447036.89649  23689877.0634   23689884.5644
  21404158.347     6402307.37649   4992029.01549  21404159.1744   21404164.8374
  19841502.834   -14812563.30349 -11525009.94149  19841503.1514   19841507.8804
  23540562.629    -6606801.07449  -5133589.55849  23540561.6454   23540567.8584
 96  5 13 17 47 29.9980000  0  7 26  2  4  9 27  7 15
  22237244.702   -11465881.24149  -8902846.83949  22237247.3834   22237252.2504
  20936054.352     -882089.66049   -681609.94049  20936053.7994   20936058.3754
  23769786.644    -7212595.08149  -5603857.09949  23769787.2404   23769793.4164
  23668729.824    -8731746.73449  -6533634.96849  23668730.4724   23668736.6224
  21417644.858     6473178.39849   5047253.14749  21417645.1784   21417650.6194
  19837945.951   -14831255.54449 -11539575.31749  19837946.1034   19837951.1984
  23545315.459    -6581823.95149  -5114126.88949  23545314.0934   23545320.1594
 96  5 13 17 47 59.9980000  0  7 26  2  4  9 27  7 15
  22237552.147   -11464279.06949  -8901598.41349  22237552.3334   22237556.4294
  20938112.031     -871275.85149   -673183.60549  20938111.6434   20938116.2894
  23747599.073    -7329183.26749  -5694704.92149  23747601.4514   23747608.4364
  23647584.549    -8842871.32549  -6620225.52649  23647583.8294   23647589.8804
  21431191.703     6544366.13949   5102724.07849  21431191.9194   21431197.3634
  19834468.460   -14849528.82649 -11553814.22949  19834468.5784   19834473.6524
  23550163.031    -6556350.56249  -5094277.50549  23550161.2554   23550167.7254
 96  5 13 17 48 29.9980000  0  7 26  2  4  9 27  7 15
  22237942.881   -11462227.54949  -8899999.85649  22237942.8254   22237947.5224
  20940182.549     -860393.24549   -664703.66049  20940182.3924   20940186.9804
  23725400.869    -7445839.50549  -5785605.84449  23725402.1354   23725409.2274
  23626443.306    -8953978.11049  -6706802.20949  23626440.5894   23626447.1084
  21444795.150     6615847.44149   5158423.77149  21444794.2504   21444799.6724
  19831066.241   -14867408.07249 -11567746.09349  19831066.4084   19831071.6044
  23555097.083    -6530406.33449  -5074061.23049  23555097.8324   23555105.7004
 96  5 13 17 48 59.9980000  0  7 26  2  4  9 27  7 15
  22238421.766   -11459700.64349  -8898030.86449  22238423.9284   22238428.4374
  20942276.491     -849388.21549   -656128.31949  20942276.6064   20942281.1434
  23703199.958    -7562511.80949  -5876519.25849  23703199.1884   23703206.0084
  23605312.952    -9065008.35249  -6793319.24249  23605311.8684   23605317.4914
  21458458.482     6687659.54049   5214381.22849  21458459.5534   21458464.8194
  19827747.967   -14884847.54149 -11581335.28449  19827748.0814   19827752.9074
  23560133.846    -6503948.64449  -5053444.86349  23560133.9504   23560138.3034
 96  5 13 17 49 29.9980000  0  7 26  2  4  9 27  7 15
  22238987.722   -11456728.08749  -8895714.60649  22238989.2654   22238993.6524
  20944392.014     -838272.92649   -647467.05849  20944391.9124   20944396.1684
  23680990.650    -7679221.99549  -5967462.16949  23680990.7554   23680996.9964
  23584194.974    -9175984.75049  -6879794.32049  23584195.0494   23584199.6654
  21472183.852     6759775.89149   5270575.75849  21472182.7244   21472188.2024
  19824506.747   -14901878.51249 -11594606.16449  19824507.4064   19824512.0694
  23565259.496    -6477002.13849  -5032447.58749  23565261.5844   23565266.9454
 96  5 13 17 49 59.9980000  0  7 26  2  4  9 27  7 15
  22239641.633   -11453291.05349  -8893036.40649  22239642.9364   22239648.7274
  20946532.553     -827025.90249   -638703.14249  20946532.2734   20946536.7314
  23658777.128    -7795950.36749  -6058419.27249  23658776.8014   23658783.2984
  23563089.017    -9286892.25449  -6966215.70749  23563089.1544   23563094.9814
  21485965.764     6832204.77549   5327013.80849  21485965.5034   21485971.3914
  19821345.733   -14918493.35449 -11607552.79149  19821345.5944   19821350.1584
  23570485.039    -6449555.37449  -5011060.51149  23570483.6194   23570490.1764
 96  5 13 17 50 29.9980000  0  7 26  2  4  9 27  7 15
  22240382.272   -11449408.01649  -8890010.68249  22240382.3644   22240386.9404
  20948696.458     -815650.38949   -629839.11049  20948696.8314   20948701.9344
  23636557.314    -7912711.90749  -6149402.21149  23636557.8064   23636565.6474
  23541990.266    -9397765.02949  -7052610.03949  23541991.4584   23541997.4794
  21499807.053     6904944.38749   5383693.98649  21499807.6034   21499812.7904
  19818261.397   -14934700.35249 -11620181.62149  19818261.5364   19818265.8494
  23575802.570    -6421619.58949  -4989292.38249  23575800.0794   23575806.6504
 96  5 13 17 50 59.9980000  0  7 26  2  4  9 27  7 15
  22241198.481   -11445115.11749  -8886665.57249  22241199.1724   22241203.8524
  20950879.396     -804180.84649   -620901.79949  20950879.1174   20950884.5044
  23614322.544    -8029551.09949  -6240445.68049  23614325.4024   23614332.4134
  23520889.991    -9508653.10449  -7139016.27149  23520890.6374   23520896.0914
  21513702.510     6977961.79049   5440590.62249  21513703.1534   21513708.0084
  19815246.495   -14950544.03449 -11632527.33849  19815246.1364   19815251.0944
  23581203.266    -6393227.09049  -4967168.36249  23581202.2594   23581210.1724
 96  5 13 17 51 29.9980000  0  7 26  2  4  9 27  7 15
  22242097.029   -11440395.09549  -8882987.64949  22242097.6504   22242102.1954
  20953078.522     -792627.69849   -611899.34849  20953077.6984   20953082.5494
  23592076.421    -8146463.17549  -6331545.88949  23592077.5074   23592083.4354
  23499786.143    -9619542.45949  -7225423.53249  23499787.4264   23499793.4614
  21527651.717     7051265.21849   5497710.12849  21527652.2604   21527657.3784
  19812300.216   -14966020.86649 -11644587.19749  19812300.5384   19812305.9614
  23586694.508    -6364371.88949  -4944683.81949  23586693.6244   23586699.9214
 96  5 13 17 51 59.9980000  0  7 26  2  4  9 27  7 15
  22243077.006   -11435250.48449  -8878978.87249  22243076.3804   22243081.7834
  20955291.041     -781000.98449   -602839.57149  20955290.1384   20955294.8384
  23569814.864    -8263434.95749  -6422692.63549  23569817.4394   23569825.5724
  23478688.147    -9730418.21649  -7311820.19149  23478688.5454   23478694.8954
  21541654.626     7124851.50349   5555050.05249  21541654.9304   21541660.0144
  19809426.046   -14981128.77749 -11656359.59249  19809426.1124   19809431.1384
  23592272.987    -6335054.73249  -4921839.30649  23592272.5984   23592277.9954
 96  5 13 17 52 29.9980000  0  7 26  2  4  9 27  7 15
  22244135.873   -11429675.10449  -8874634.42949  22244136.8994   22244142.6964
  20957517.135     -769302.91049   -593724.19449  20957516.1104   20957520.8104
  23547546.240    -8380461.50849  -6513882.05249  23547548.1524   23547555.1494
  23457596.755    -9841254.97749  -7398186.46349  23457598.0094   23457601.5004
  21555714.467     7198737.86649   5612623.81049  21555715.1204   21555720.0714
  19806627.192   -14995841.41149 -11667823.97349  19806626.5954   19806631.0934
  23597942.070    -6305262.27149  -4898624.41449  23597941.8884   23597948.9624
 96  5 13 17 52 59.9980000  0  7 26  2  4  9 27  7 15
  22245281.128   -11423666.10349  -8869952.11049  22245280.2444   22245285.8404
  20959757.720     -757528.34549   -584549.21649  20959756.9044   20959761.6614
  23525270.049    -8497538.06849  -6605110.45049  23525269.5444   23525276.3594
  23436518.845    -9952028.43149  -7484503.39849  23436518.2124   23436523.3544
  21569832.960     7272919.22449   5670427.42449  21569830.7074   21569836.1174
  19803901.804   -15010161.80849 -11678982.71849  19803901.6514   19803906.3714
  23603701.294    -6274997.72749  -4875041.66749  23603701.2144   23603708.6574
 96  5 13 17 53 29.9980000  0  7 26  2  4  9 27  7 15
  22246509.063   -11417209.30049  -8864920.85249  22246509.5554   22246514.5184
  20962019.773     -745631.27449   -575278.77249  20962020.7784   20962025.8464
  23502985.723    -8614644.79349  -6696362.34249  23502986.2374   23502991.7004
  23415454.815   -10062717.70849  -7570754.75249  23415455.4974   23415459.2244
  21584004.605     7347407.14949   5728469.92549  21584005.1164   21584011.6494
  19801255.299   -15024066.14449 -11689817.26749  19801255.8324   19801260.3054
  23609553.778    -6244246.87649  -4851079.98449  23609553.4414   23609560.6774
 96  5 13 17 53 59.9980000  0  7 26  2  4  9 27  7 15
  22247816.948   -11410336.42449  -8859565.38549  22247817.1984   22247822.0484
  20964308.061     -733617.93249   -565917.72849  20964306.9704   20964311.9434
  23480687.783    -8731804.92649  -6787655.83949  23480689.8504   23480696.8684
  23394399.660   -10173364.15549  -7656972.71049  23394399.9074   23394403.9794
  21598233.756     7422173.90849   5786729.70349  21598233.2664   21598239.0284
  19798685.990   -15037571.56649 -11700340.96949  19798685.3954   19798690.0734
  23615494.268    -6213036.39449  -4826760.14649  23615493.1654   23615500.2264
 96  5 13 17 54 29.9980000  0  7 26  2  4  9 27  7 15
  22249207.495   -11403023.28449  -8853866.85249  22249208.7634   22249213.9194
  20966621.537     -721455.34949   -556440.39649  20966621.1634   20966626.1664
  23458386.720    -8849004.71649  -6878980.28049  23458387.8434   23458393.8004
  23373349.481   -10283955.70349  -7743147.90549  23373354.0634   23373358.2874
  21612516.365     7497232.28249   5845216.71549  21612516.6534   21612522.6434
  19796193.585   -15050661.90249 -11710541.22749  19796194.4084   19796199.2594
  23621525.329    -6181349.12649  -4802068.80849  23621522.8314   23621528.9434
 96  5 13 17 54 59.9980000  0  7 26  2  4  9 27  7 15
  22250683.103   -11395266.55949  -8847822.67149  22250685.4954   22250690.4654
  20968968.491     -709121.80949   -546829.85749  20968968.3574   20968973.0684
  23436083.041    -8966225.59449  -6970321.12849  23436081.6554   23436087.7934
  23352321.429   -10394492.44049  -7829280.39549  23352318.9174   23352324.5694
  21626854.779     7572578.77749   5903928.24549  21626855.0124   21626859.9804
  19793782.212   -15063341.96849 -11720421.79949  19793781.4984   19793786.4804
  23627643.123    -6149183.64349  -4777004.82749  23627643.9504   23627650.5244
 96  5 13 17 55 29.9980000  0  7 26  2  4  9 27  7 15
  22252245.400   -11387065.80449  -8841432.49149  22252245.4774   22252250.5684
  20971345.244     -696629.66449   -537095.71849  20971345.5724   20971349.8224
  23413770.005    -9083453.45749  -7061667.43049  23413773.3074   23413780.0344
  23331297.000   -10504974.41749  -7915370.19949  23331295.6164   23331299.6174
  21641249.104     7648222.75849   5962871.59249  21641249.0864   21641254.4224
  19791450.011   -15075593.15149 -11729968.17249  19791450.0384   19791454.9004
  23633858.623    -6116534.42449  -4751563.90149  23633856.4524   23633863.1304
 96  5 13 17 55 59.9980000  0  7 26  2  4  9 27  7 15
  22253885.434   -11378442.34549  -8834712.93249  22253886.2594   22253891.1604
  20973746.369     -684020.50149   -527270.39349  20973745.1354   20973749.7674
  23391461.506    -9200690.09949  -7153020.58449  23391464.1064   23391470.7214
  23310279.022   -10615411.75049  -8001425.20749  23310279.0944   23310285.3544
  21655698.653     7724153.06449   6022038.04849  21655698.4204   21655703.4794
  19789197.611   -15087429.22649 -11739191.08049  19789197.9334   19789202.6844
  23640159.011    -6083417.04149  -4725758.16849  23640158.0234   23640163.4714
 96  5 13 17 56 29.9980000  0  7 26  2  4  9 27  7 15
  22255609.919   -11369386.90349  -8827656.76749  22255609.8704   22255614.2384
  20976167.301     -671292.10649   -517352.16549  20976167.1304   20976171.8054
  23369153.670    -9317925.64749  -7244372.88149  23369155.0114   23369160.6424
  23289274.557   -10725784.90649  -8087430.21849  23289276.6664   23289283.8064
  21670203.200     7800371.83949   6081429.26249  21670202.8374   21670208.0584
  19787022.079   -15098866.86749 -11748103.52549  19787021.5564   19787026.3974
  23646549.628    -6049829.87549  -4699586.38949  23646548.3174   23646556.1694
 96  5 13 17 56 59.9980000  0  7 26  2  4  9 27  7 15
  22257413.178   -11359905.66849  -8820268.81549  22257414.0944   22257419.1114
  20978609.320     -658455.57949   -507349.68249  20978609.7454   20978614.1484
  23346846.219    -9435152.87449  -7335718.71449  23346847.2654   23346854.1204
  23268287.898   -10836090.11249  -8173382.28149  23268286.4984   23268291.7824
  21684761.484     7876882.14949   6141047.64149  21684761.9884   21684767.6054
  19784919.494   -15109910.69849 -11756709.10349  19784920.0554   19784924.5904
  23653027.764    -6015776.30249  -4673051.17349  23653028.8894   23653036.6794
 96  5 13 17 57 29.9980000  0  7 26  2  4  9 27  7 15
  22259302.965   -11349975.16349  -8812530.77649  22259303.7374   22259308.1794
  20981077.892     -645489.72549   -497246.42249  20981076.9614   20981081.5554
  23324541.809    -9552358.84549  -7427047.96549  23324544.3104   23324549.3804
  23247316.710   -10946295.92349  -8259256.89349  23247313.7354   23247319.5404
  21699377.015     7953693.51749   6200900.62049  21699378.7784   21699384.7254
  19782896.099   -15120547.67149 -11764997.64949  19782895.6064   19782900.5084
  23659602.473    -5981238.44049  -4646138.59349  23659602.1014   23659608.2024
 96  5 13 17 57 59.9980000  0  7 26  2  4  9 27  7 15
  22261282.824   -11339571.46549  -8804424.02349  22261283.7474   22261287.9294
  20983575.367     -632363.49849   -487018.19749  20983575.0764   20983579.5844
  23302244.866    -9669537.15749  -7518355.68049  23302245.4044   23302251.4394
  23226361.685   -11056398.50749  -8345051.06449  23226362.9524   23226368.3964
  21714051.650     8030800.37149   6260983.84049  21714051.3624   21714057.0974
  19780946.705   -15130787.83949 -11772977.00049  19780946.8904   19780951.8004
  23666269.515    -5946206.41649  -4618840.93549  23666267.8774   23666275.7414
 96  5 13 17 58 29.9980000  0  7 26  2  4  9 27  7 15
  22263350.066   -11328719.95949  -8795968.31949  22263348.5664   22263353.7424
  20986099.506     -619100.48949   -476683.39649  20986098.9214   20986104.0314
  23279944.625    -9786726.49149  -7609671.98649  23279945.3094   23279951.3434
  23205421.889   -11166437.53549  -8430795.71549  23205423.1524   23205429.7694
  21728773.420     8108161.37949   6321265.10549  21728772.7244   21728778.5554
  19779066.939   -15140669.55549 -11780677.03549  19779066.7944   19779071.3034
  23673022.257    -5910716.31649  -4591186.35049  23673021.7314   23673028.6494
 96  5 13 17 58 59.9980000  0  7 26  2  4  9 27  7 15
  22265494.794   -11317443.81149  -8787181.73449  22265494.4494   22265499.7504
  20988644.677     -605723.92949   -466260.10549  20988644.4174   20988649.4114
  23257641.814    -9903932.43549  -7701001.23749  23257641.3494   23257647.5304
  23184491.901   -11276429.27949  -8516503.51849  23184492.5944   23184497.5944
  21743540.063     8185766.78949   6381736.83249  21743540.5104   21743546.2094
  19777254.195   -15150191.23149 -11788096.51949  19777254.4804   19777259.3714
  23679863.647    -5874776.68949  -4563181.47949  23679861.0734   23679868.0214
 96  5 13 17 59 29.9980000  0  7 26  2  4  9 27  7 15
  22267723.007   -11305729.56749  -8778053.76549  22267723.2374   22267729.0944
  20991216.773     -592207.20249   -455727.59249  20991216.5344   20991221.3524
  23235338.750   -10021135.40549  -7792328.18449  23235338.2344   23235345.7244
  23163575.290   -11386360.26949  -8602163.98949  23163572.8514   23163577.6434
  21758358.599     8263636.97949   6442414.87349  21758358.3954   21758364.6434
  19775515.432   -15159331.36949 -11795218.70049  19775515.4424   19775520.0344
  23686790.708    -5838365.65149  -4534809.25949  23686790.4684   23686796.1534
 96  5 13 17 59 59.9980000  0  7 26  2  4  9 27  7 15
  22270033.704   -11293589.23849  -8768593.79149  22270033.4114   22270038.9834
  20993813.240     -578565.32349   -445097.56549  20993812.5804   20993817.0254
  23213035.441   -10138329.22149  -7883647.97649  23213036.5304   23213043.2634
  23142664.754   -11496242.36449  -8687786.35949  23142663.5604   23142669.2464
  21773232.713     8341796.27449   6503318.17449  21773232.0614   21773238.2084
  19773851.450   -15168076.80049 -11802033.31849  19773851.2074   19773855.9194
  23693807.538    -5801480.57949  -4506067.66449  23693809.5914   23693815.1534
 96  5 13 18  0 29.9980000  0  7 26  2  4  9 27  7 15
  22272414.259   -11281070.09749  -8758838.63949  22272416.3284   22272420.7244
  20996424.431     -564838.33449   -434401.21949  20996424.7244   20996429.2984
  23190735.681   -10255516.70049  -7974962.84949  23190736.3764   23190742.8834
  23121762.317   -11606079.90049  -8773374.00849  23121761.8324   23121766.8004
  21788161.178     8420244.00449   6564446.22749  21788160.7344   21788165.4124
  19772260.315   -15176438.40249 -11808548.85149  19772260.2384   19772264.6694
  23700914.521    -5764144.45349  -4476974.61349  23700913.7384   23700919.0184
 96  5 13 18  0 59.9980000  0  7 26  2  4  9 27  7 15
  22274874.665   -11268153.20349  -8748773.54549  22274874.2934   22274878.1154
  20999057.940     -551001.25349   -423619.07649  20999057.7544   20999062.7184
  23168446.517   -10372654.94349  -8066239.35549  23168446.8604   23168452.8804
  23100879.442   -11715828.49249  -8858892.36049  23100876.9464   23100882.8174
  21803148.802     8499011.48849   6625823.44749  21803148.6064   21803155.5154
  19770747.518   -15184385.28349 -11814741.22349  19770747.7854   19770752.5944
  23708109.940    -5726326.34749  -4447505.98449  23708110.6344   23708115.5724
 96  5 13 18  1 29.9980000  0  7 26  2  4  9 27  7 15
  22277405.087   -11254848.30249  -8738406.11449  22277406.0254   22277410.3364
  21001707.479     -537077.91449   -412769.72949  21001707.5194   21001712.1944
  23146162.495   -10489758.97849  -8157489.19049  23146161.8804   23146168.6764
  23080009.374   -11825495.95849  -8944347.48449  23080007.9604   23080013.8434
  21818195.627     8578080.97049   6687435.99149  21818195.6514   21818202.1234
  19769311.211   -15191934.93349 -11820624.06249  19769311.3364   19769316.1394
  23715392.038    -5688048.36549  -4417678.99849  23715394.4764   23715400.1904
 96  5 13 18  1 59.9980000  0  7 26  2  4  9 27  7 15
  22280013.619   -11241145.18049  -8727728.38049  22280013.4844   22280017.9834
  21004373.252     -523074.64349   -401858.10149  21004372.2054   21004377.0174
  23123885.003   -10606818.58249  -8248704.41249  23123886.3364   23123891.1324
  23059157.545   -11935070.01549  -9029729.82249  23059156.5584   23059162.9184
  21833297.682     8657440.27049   6749274.36149  21833296.9054   21833302.3624
  19767949.459   -15199089.46349 -11826199.01549  19767949.7304   19767954.6884
  23722764.165    -5649317.48149  -4387499.13449  23722764.7014   23722770.4264
 96  5 13 18  2 29.9980000  0  7 26  2  4  9 27  7 15
  22282695.193   -11227048.53649  -8716744.00049  22282696.5084   22282700.6644
  21007052.518     -508993.82249   -390886.03949  21007051.7184   21007056.3844
  23101612.982   -10723853.42949  -8339900.34949  23101614.8224   23101621.4774
  23038325.679   -12044551.35649  -9115039.91049  23038323.9034   23038329.4174
  21848444.394     8737043.11249   6811302.51549  21848445.2644   21848451.1014
  19766657.379   -15205884.14249 -11831493.56449  19766656.8464   19766661.3504
  23730217.847    -5610159.45549  -4356986.40849  23730216.5394   23730223.0124
 96  5 13 18  2 59.9980000  0  7 26  2  4  9 27  7 15
  22285461.707   -11212514.83849  -8705419.05949  22285461.5844   22285467.0744
  21009754.970     -494791.67249   -379819.44849  21009754.3234   21009758.9724
  23079348.156   -10840867.38949  -8431079.98949  23079347.4184   23079354.7794
  23017513.220   -12153924.03049  -9200265.32749  23017510.2644   23017516.2244
  21863641.207     8816895.39449   6873525.02549  21863640.7324   21863646.6524
  19765436.215   -15212293.52849 -11836487.88949  19765436.9834   19765441.6984
  23737752.717    -5570552.81249  -4326124.10949  23737753.8174   23737759.4674
 96  5 13 18  3 29.9980000  0  7 26  2  4  9 27  7 15
  22288312.487   -11197534.69849  -8693746.23449  22288312.4244   22288317.4534
  21012481.301     -480462.15949   -368653.61249  21012481.2314   21012485.6264
  23057080.467   -10957878.20749  -8522257.19949  23057080.7804   23057088.4834
  22996717.003   -12263199.23049  -9285414.79049  22996715.8024   22996721.8174
  21878882.335     8896992.64449   6935938.41749  21878882.7614   21878888.4634
  19764289.791   -15218324.27549 -11841187.16649  19764289.5484   19764293.8734
  23745374.677    -5530508.25849  -4294920.58249  23745373.8334   23745380.3314
 96  5 13 18  3 59.9980000  0  7 26  2  4  9 27  7 15
  22291248.835   -11182106.19449  -8681724.03549  22291248.3664   22291253.0034
  21015238.559     -465974.69949   -357364.69649  21015238.2414   21015243.1394
  23034817.379   -11074882.64349  -8613429.42649  23034816.2734   23034822.4904
  22975941.861   -12372371.78949  -9370484.27349  22975942.1334   22975946.4244
  21894170.910     8977334.74049   6998542.60649  21894170.7954   21894176.2584
  19763214.502   -15223974.84349 -11845590.21049  19763214.2604   19763218.9314
  23753078.392    -5490023.86149  -4263374.33649  23753077.1664   23753083.8324
 96  5 13 18  4 29.9980000  0  7 26  2  4  9 27  7 15
  22294269.038   -11166230.28249  -8669353.20749  22294269.3494   22294274.9054
  21018027.343     -451318.20649   -345944.05749  21018027.0184   21018031.9704
  23012553.007   -11191869.20649  -8704587.73149  23012554.7894   23012560.3804
  22955188.026   -12481436.13649  -9455469.43049  22955186.9734   22955192.0604
  21909509.015     9057937.09249   7061349.58749  21909509.8664   21909514.5044
  19762213.363   -15229232.81749 -11849687.33049  19762213.5894   19762218.2544
  23760869.194    -5449085.17749  -4231474.08949  23760866.9714   23760875.6644
 96  5 13 18  4 59.9980000  0  7 26  2  4  9 27  7 15
  22297367.374   -11149945.94249  -8656664.12849  22297368.0464   22297373.4324
  21020842.051     -436528.04149   -334419.26549  21020841.6084   21020846.1494
  22990296.494   -11308842.60149  -8795735.77349  22990295.1284   22990300.8614
  22934448.914   -12590417.89649  -9540390.23149  22934448.7814   22934453.1034
  21924895.475     9138785.77349   7124348.50349  21924894.9734   21924899.8084
  19761284.445   -15234116.27849 -11853492.62549  19761284.2264   19761289.1744
  23768741.451    -5407711.04249  -4199234.53749  23768741.7104   23768747.3114
 96  5 13 18  5 29.9980000  0  7 26  2  4  9 27  7 15
  22300538.011   -11133283.87149  -8643680.70949  22300539.1374   22300544.0984
  21023677.612     -421627.74449   -322808.66049  21023676.9114   21023681.2894
  22968044.639   -11425774.94149  -8886851.81849  22968044.3514   22968050.1504
  22913726.993   -12699318.79549  -9625248.02249  22913725.5274   22913730.3604
  21940322.065     9219865.60549   7187527.54049  21940323.4524   21940328.2244
  19760422.257   -15238643.57949 -11857020.39749  19760423.1454   19760427.8174
  23776696.330    -5365914.14349  -4166665.55849  23776695.1374   23776701.2564
 96  5 13 18  5 59.9980000  0  7 26  2  4  9 27  7 15
  22303775.540   -11116277.37749  -8630428.91049  22303775.3444   22303781.3644
  21026530.084     -406634.97649   -311125.99749  21026529.8344   21026534.5584
  22945800.145   -11542655.66149  -8977927.63849  22945801.7094   22945807.9504
  22893016.473   -12808141.77649  -9710045.11949  22893016.7514   22893022.4204
  21955794.923     9301164.32849   7250877.13649  21955794.4754   21955800.6114
  19759627.600   -15242823.76549 -11860277.68449  19759627.9244   19759632.0474
  23784728.589    -5323700.24249  -4133771.63349  23784728.7374   23784734.0484
 96  5 13 18  6 29.9980000  0  7 26  2  4  9 27  7 15
  22307081.211   -11098890.40549  -8616880.64649  22307083.6074   22307089.3514
  21029409.145     -391507.28649   -299338.19449  21029408.4944   21029413.7004
  22923582.716   -11659427.14949  -9068918.34149  22923581.2074   22923587.3194
  22872332.721   -12916836.42149  -9794742.18449  22872333.2024   22872338.6154
  21971315.127     9382730.37749   7314435.03849  21971315.4474   21971321.4884
  19758906.346   -15246609.06149 -11863227.27149  19758907.3374   19758911.5894
  23792849.457    -5281019.88349  -4100514.23549  23792849.7784   23792855.4144
 96  5 13 18  6 59.9980000  0  7 26  2  4  9 27  7 15
  22310464.612   -11081121.95649  -8603035.11149  22310465.1064   22310470.5694
  21032314.505     -376243.50949   -287444.35449  21032313.2414   21032318.6154
  22901379.105   -11776095.90149  -9159828.98849  22901379.8834   22901386.3754
  22851671.515   -13025409.46349  -9879344.51349  22851672.6134   22851678.0574
  21986885.977     9464553.90649   7378193.58849  21986885.9464   21986892.1224
  19758261.339   -15250000.27449 -11865869.77649  19758261.6094   19758266.2074
  23801056.171    -5237884.31049  -4066902.14849  23801057.9554   23801064.7724
 96  5 13 18  7 29.9980000  0  7 26  2  4  9 27  7 15
  22313918.515   -11062965.44249  -8588887.19049  22313920.1654   22313925.5944
  21035244.988     -360842.32849   -275443.44849  21035244.2104   21035248.8964
  22879191.475   -11892682.51949  -9250675.63449  22879194.0924   22879200.2194
  22831030.663   -13133871.99249  -9963860.72749  22831031.9974   22831037.2594
  22002502.922     9546618.26349   7442139.80049  22002503.0844   22002507.5994
  19757688.915   -15253013.24049 -11868217.54349  19757688.4994   19757693.3864
  23809349.157    -5194309.78049  -4032947.99349  23809350.7024   23809357.3854
 96  5 13 18  7 59.9980000  0  7 26  2  4  9 27  7 15
  22317446.889   -11044423.94049  -8574439.28649  22317448.1614   22317453.7854
  21038199.313     -345316.97949   -263345.79249  21038198.4614   21038203.0614
  22857016.826   -12009228.30649  -9341490.46149  22857015.3674   22857022.5654
  22810409.789   -13242246.88449 -10048308.64949  22810409.3974   22810415.4624
  22018161.905     9628899.20549   7506254.77649  22018161.0604   22018166.3224
  19757182.050   -15255673.96749 -11870290.83849  19757182.0604   19757186.7134
  23817722.065    -5150319.88949  -3998670.19449  23817721.6144   23817728.1584
 96  5 13 18  8 29.9980000  0  7 26  2  4  9 27  7 15
  22321058.587   -11025448.22249  -8559653.02549  22321059.5114   22321064.3954
  21041182.226     -329631.39349   -251123.28049  21041183.0904   21041188.0164
  22834849.073   -12125719.46449  -9432262.72249  22834848.2224   22834853.7474
  22789809.397   -13350502.27049 -10132663.44549  22789808.8634   22789813.9364
  22033862.909     9711419.79049   7570556.47449  22033863.8864   22033869.2214
  19756747.444   -15257957.74949 -11872070.40949  19756747.3504   19756752.0864
  23826175.992    -5105885.39049  -3964045.92749  23826175.9624   23826181.7254
 96  5 13 18  8 59.9980000  0  7 26  2  4  9 27  7 15
  22324753.213   -11006045.83149  -8544534.29549  22324752.1044   22324756.5624
  21044195.518     -313806.55449   -238792.25849  21044194.5174   21044199.4244
  22812684.313   -12242173.33249  -9523005.93749  22812686.4544   22812693.1764
  22769228.771   -13458661.71349 -10216943.48749  22769226.8324   22769232.2064
  22049609.189     9794162.77749   7635031.47149  22049609.1454   22049614.7914
  19756378.779   -15259895.37449 -11873580.24249  19756378.8484   19756383.5554
  23834711.660    -5061024.58949  -3929089.48949  23834712.6344   23834718.2264
 96  5 13 18  9 29.9980000  0  7 26  2  4  9 27  7 15
  22328522.170   -10986226.83149  -8529090.94249  22328523.3104   22328527.5664
  21047235.050     -297835.44849   -226347.25549  21047234.2524   21047238.9324
  22790535.400   -12358584.42949  -9613715.82549  22790534.5254   22790540.8064
  22748666.420   -13566707.98149 -10301135.33849  22748666.1974   22748670.6324
  22065399.941     9877139.59549   7699688.67949  22065399.1124   22065404.7944
  19756075.510   -15261488.98749 -11874822.02349  19756075.6154   19756080.1444
  23843333.065    -5015728.66949  -3893793.99949  23843334.5384   23843340.5514
 96  5 13 18  9 59.9980000  0  7 26  2  4  9 27  7 15
  22332372.785   -10966005.89049  -8513334.38349  22332371.0034   22332376.0394
  21050302.125     -281715.97849   -213786.64449  21050301.5574   21050306.1974
  22768394.146   -12474930.96549  -9704375.40949  22768395.6334   22768400.5864
  22728128.139   -13674637.61249 -10385236.30649  22728127.9304   22728132.6034
  22081237.013     9960368.86649   7764542.60049  22081236.4604   22081242.5304
  19755841.571   -15262717.74149 -11875779.49349  19755841.5474   19755846.1094
  23852035.700    -4969990.71149  -3858154.07849  23852038.2284   23852042.5384
 96  5 13 18 10 29.9980000  0  7 26  2  4  9 27  7 15
  22336286.855   -10945428.17649  -8497299.81449  22336286.8894   22336291.9524
  21053389.460     -265484.03449   -201138.38849  21053389.8314   21053394.8794
  22746267.035   -12591224.06249  -9794993.33649  22746263.9924   22746271.6194
  22707608.280   -13782471.68449 -10469262.80549  22707607.1234   22707614.0014
  22097120.342    10043832.30749   7829578.99849  22097119.3884   22097124.9494
  19755674.644   -15263596.02349 -11876463.86749  19755674.5754   19755679.0934
  23860818.152    -4923838.70749  -3822191.49049  23860819.8564   23860825.5514
 96  5 13 18 10 59.9980000  0  7 26  2  4  9 27  7 15
  22340268.076   -10924501.18149  -8480993.07549  22340268.8814   22340273.9264
  21056500.033     -249144.99249   -188406.68749  21056499.2494   21056503.9524
  22724151.543   -12707433.46749  -9885546.05749  22724151.0604   22724157.7154
  22687110.589   -13890186.66049 -10553196.51649  22687109.8164   22687116.0854
  22113048.467    10127543.39349   7894808.34849  22113049.1514   22113054.3024
  19755578.075   -15264103.24449 -11876859.10749  19755578.0724   19755582.6144
  23869679.246    -4877272.67549  -3785906.31449  23869680.9294   23869685.6684
 96  5 13 18 11 29.9980000  0  7 26  2  4  9 27  7 15
  22344322.092   -10903209.17049  -8464401.91849  22344320.9694   22344325.7574
  21059632.167     -232686.48549   -175581.89149  21059631.4874   21059636.0164
  22702054.910   -12823544.31349  -9976021.99549  22702057.1784   22702062.9714
  22666640.909   -13997746.41849 -10637009.28449  22666642.1254   22666647.1394
  22129026.188    10211499.02349   7960228.25549  22129025.9194   22129030.2404
  19755558.158   -15264208.89549 -11876941.43949  19755557.7254   19755562.6784
  23878623.477    -4830284.52249  -3749292.20449  23878622.2934   23878627.1914
 96  5 13 18 11 59.9980000  0  7 26  2  4  9 27  7 15
  22348444.134   -10881538.24949  -8447515.50049  22348445.0544   22348449.8094
  21062785.564     -216113.70449   -162668.05049  21062785.0354   21062789.9684
  22679983.451   -12939545.75549 -10066412.67149  22679982.8114   22679986.8844
  22646203.179   -14105155.75349 -10720704.82049  22646203.0964   22646208.4904
  22145047.087    10295688.26149   8025830.19449  22145045.7004   22145051.3524
  19755613.519   -15263916.53749 -11876713.62549  19755613.6154   19755618.6694
  23887641.980    -4782881.50249  -3712354.82249  23887642.7394   23887646.8904
 96  5 13 18 12 29.9980000  0  7 26  2  4  9 27  7 15
  22352642.560   -10859493.90649  -8430338.10949  22352639.9824   22352644.6604
  21065959.941     -199432.78949   -149669.95049  21065959.3454   21065964.1234
  22657925.796   -13055456.69549 -10156732.81349  22657926.2964   22657930.3734
  22625793.578   -14212411.93149 -10804281.01549  22625792.6584   22625797.3364
  22161103.687    10380076.46449   8091587.18849  22161104.9694   22161110.8364
  19755738.664   -15263259.36149 -11876201.53849  19755738.7314   19755743.3034
  23896739.742    -4735079.65049  -3675106.63949  23896738.3994   23896743.8374
 96  5 13 18 12 59.9980000  0  7 26  2  4  9 27  7 15
  22356908.198   -10837061.91949  -8412858.64849  22356908.3704   22356912.5064
  21069159.051     -182622.51649   -136571.05749  21069158.5264   21069162.9864
  22635886.605   -13171265.06449 -10246973.03949  22635886.4394   22635891.2324
  22605411.505   -14319513.19849 -10887736.51449  22605412.1064   22605416.6004
  22177202.478    10464662.80349   8157498.56449  22177201.4814   22177206.3684
  19755931.174   -15262247.17049 -11875412.81749  19755931.2004   19755936.0454
  23905913.847    -4686871.76949  -3637542.09049  23905913.5834   23905917.9594
 96  5 13 18 13 29.9980000  0  7 26  2  4  9 27  7 15
  22361253.595   -10814224.60449  -8395063.36449  22361254.2644   22361258.3854
  21072386.313     -165658.71649   -123352.52749  21072386.4914   21072391.3034
  22613867.583   -13286963.40849 -10337127.53749  22613870.3674   22613876.7554
  22585057.548   -14426477.02049 -10971084.92649  22585057.0354   22585061.9444
  22193336.280    10549454.47049   8223569.93649  22193336.7764   22193341.3404
  19756189.800   -15260886.41849 -11874352.48949  19756189.8554   19756195.1544
  23915167.566    -4638246.12249  -3599652.01749  23915165.6224   23915172.1744
 96  5 13 18 13 59.9980000  0  7 26  2  4  9 27  7 15
  22365677.039   -10790987.85949  -8376956.83749  22365676.0554   22365680.4174
  21075645.364     -148537.03049   -110010.97049  21075644.4654   21075649.3834
  22591878.879   -13402532.87849 -10427181.60149  22591877.1994   22591883.6074
  22564728.043   -14533299.76749 -11054323.38849  22564729.7244   22564734.6134
  22209518.474    10634482.27149   8289825.32049  22209516.9084   22209522.3744
  19756513.596   -15259186.93449 -11873028.21449  19756513.6624   19756518.4224
  23924502.318    -4589191.29849  -3561427.48249  23924501.7414   23924508.3664
 96  5 13 18 14 29.9980000  0  6 26  2  4  9 27  7
  22370170.197   -10767369.81949  -8358553.20149  22370170.4624   22370175.5744
  21078929.997     -131269.76449    -96555.96849  21078930.4374   21078935.4904
  22569906.507   -13517989.15749 -10517147.47449  22569907.4254   22569912.4474
  22544429.149   -14639976.88649 -11137448.38649  22544429.7894   22544434.7304
  22225743.912    10719751.03849   8356268.45849  22225743.8374   22225747.7614
  19756900.953   -15257156.92749 -11871446.39149  19756899.7324   19756904.5354
 96  5 13 18 14 59.9980000  0  6 26  2  4  9 27  7
  22374735.579   -10743381.80649  -8339861.26549  22374735.1964   22374740.8844
  21082240.648     -113881.63749    -83006.78849  21082239.3544   21082244.5494
  22547954.925   -13633344.19149 -10607034.44849  22547955.7164   22547962.1464
  22524155.626   -14746522.73349 -11220471.09449  22524154.6654   22524159.9424
  22242018.070    10805270.71949   8422907.12549  22242016.6614   22242022.2474
  19757349.573   -15254793.11749 -11869604.46349  19757349.4794   19757354.0484
 96  5 13 18 15 29.9980000  0  6 26  2  4  9 27  7
  22379365.205   -10719050.83449  -8320902.09249  22379364.9624   22379371.0004
  21085565.556      -96402.39949    -69386.61449  21085565.3954   21085570.6584
  22526016.801   -13748628.92149 -10696866.65049  22526018.0234   22526023.9914
  22503903.328   -14852946.08949 -11303398.35249  22503902.9724   22503908.2884
  22258337.828    10891029.96849   8489732.46449  22258337.3174   22258342.9744
  19757861.353   -15252099.52349 -11867505.56049  19757862.2404   19757867.1164
 96  5 13 18 15 59.9980000  0  6 26  2  4  9 27  7
  22384059.152   -10694382.76049  -8301680.24349  22384059.3764   22384064.8914
  21088909.640      -78828.42749    -55692.62649  21088909.5054   21088914.2664
  22504092.171   -13863845.20849 -10786645.52649  22504092.9634   22504098.4384
  22483681.364   -14959216.22449 -11386206.21449  22483680.0074   22483685.3434
  22274701.861    10977029.87649   8556745.32749  22274702.4284   22274707.4464
  19758439.479   -15249063.36049 -11865139.72449  19758439.7804   19758444.6174
 96  5 13 18 16 29.9980000  0  6 26  2  4  9 27  7
  22388819.432   -10669368.65849  -8282188.76049  22388819.3224   22388824.9354
  21092275.829      -61142.13549    -41911.10549  21092275.3764   21092280.2484
  22482179.096   -13978997.61449 -10876374.60549  22482180.2524   22482185.9354
  22463483.831   -15065342.39049 -11468901.90049  22463485.0714   22463490.5814
  22291108.508    11063248.61849   8623928.71649  22291108.8414   22291114.1234
  19759087.347   -15245663.98749 -11862490.87049  19759086.4814   19759091.6944
 96  5 13 18 16 59.9980000  0  6 26  2  4  9 27  7
  22393645.196   -10644005.63549  -8262425.39449  22393646.1714   22393650.9184
  21095664.807      -43331.09249    -28032.37749  21095664.7594   21095669.6384
  22460281.641   -14094067.48749 -10966039.39749  22460283.2714   22460288.9124
  22443316.229   -15171332.08849 -11551491.24349  22443315.8244   22443320.6204
  22307552.422    11149664.59449   8691265.77049  22307553.2104   22307559.0964
  19759802.558   -15241901.10849 -11859558.76149  19759802.9214   19759807.7514
 96  5 13 18 17 29.9980000  0  6 26  2  4  9 27  7
  22398539.099   -10618282.25249  -8242381.21749  22398540.7794   22398546.1634
  21099082.238      -25371.60649    -14037.98549  21099082.2294   21099087.4584
  22438405.919   -14209026.70449 -11055617.95149  22438406.2014   22438412.0654
  22423175.165   -15277172.33449 -11633964.12949  22423174.9954   22423179.7504
  22324031.952    11236258.54449   8758741.52949  22324031.4484   22324038.4744
  19760586.449   -15237778.37249 -11856346.24649  19760587.1254   19760592.4244
 96  5 13 18 17 59.9980000  0  6 26  2  4  9 27  7
  22403504.814   -10592197.28549  -8222055.28849  22403504.3434   22403510.3434
  21102529.170       -7258.57549        76.05249  21102529.0294   21102534.1574
  22416553.006   -14323857.84649 -11145096.69649  22416555.7984   22416560.9784
  22403060.890   -15382869.02049 -11716325.16749  22403061.0714   22403067.0084
  22340538.723    11323007.23349   8826337.85749  22340539.7264   22340546.2504
  19761435.463   -15233318.23949 -11852870.81749  19761435.7814   19761440.8404
 96  5 13 18 18 29.9980000  0  6 26  2  4  9 27  7
  22408544.550   -10565711.38549  -8201416.95349  22408544.1204   22408550.0854
  21106011.143       11039.98949     14334.66449  21106011.3054   21106016.0884
  22394738.389   -14438503.06849 -11234430.57949  22394738.3264   22394744.4794
  22382984.135   -15488386.50149 -11798546.55249  22382982.5014   22382987.7934
  22357084.664    11409948.72749   8894084.41449  22357083.6804   22357090.6804
  19762353.794   -15228497.19749 -11849114.16449  19762353.5054   19762358.2894
 96  5 13 18 18 59.9980000  0  6 26  2  4  9 27  7
  22413653.077   -10538868.94649  -8180500.78749  22413652.5924   22413658.8194
  21109519.068       29469.70749     28695.47949  21109518.2454   21109522.9234
  22372954.906   -14552978.78049 -11323632.38849  22372955.6184   22372961.4194
  22362932.675   -15593743.63549 -11880642.99249  22362933.2744   22362938.9704
  22373658.938    11497059.76749   8961963.07349  22373660.9584   22373666.3184
  19763331.080   -15223359.69449 -11845110.91649  19763331.2134   19763335.7074
 96  5 13 18 19 29.9980000  0  6 26  2  4  9 27  7
  22418830.742   -10511658.28149  -8159297.70449  22418831.4154   22418836.6544
  21113052.725       48042.35849     43167.67349  21113052.4544   21113057.6314
  22351204.450   -14667272.20149 -11412692.13949  22351206.7924   22351211.6544
  22342917.882   -15698922.98149 -11962600.89949  22342918.4764   22342923.8804
  22390276.131    11584370.76649   9029997.54649  22390275.0714   22390280.9334
  19764373.793   -15217880.93549 -11840841.75749  19764373.8664   19764378.7494
 96  5 13 18 19 59.9980000  0  6 26  2  4  9 27  7
  22424076.916   -10484094.75349  -8137819.65749  22424076.1634   22424081.4854
  21116612.218       66746.29349     57742.15849  21116612.2834   21116616.3644
  22329488.039   -14781400.69649 -11501623.37849  22329487.9194   22329493.3994
  22322936.088   -15803934.03149 -12044427.65949  22322935.2944   22322941.1094
  22406929.846    11671897.90749   9098200.44449  22406931.1844   22406936.5714
  19765481.822   -15212059.13149 -11836305.29349  19765481.8444   19765486.1374
 96  5 13 18 20 29.9980000  0  6 26  2  4  9 27  7
  22429378.558   -10456223.32549  -8116101.68849  22429379.7954   22429384.7544
  21120190.624       85545.39149     72390.79949  21120189.5994   21120194.0064
  22307793.366   -14895401.79149 -11590455.34149  22307794.4384   22307800.7164
  22302979.161   -15908800.87749 -12126142.05749  22302980.3984   22302984.9244
  22423625.128    11759622.04249   9166556.85249  22423623.6114   22423630.5224
  19766650.917   -15205913.10049 -11831516.18349  19766651.2984   19766655.8154
 96  5 13 18 20 59.9980000  0  6 26  2  4  9 27  7
  22434746.227   -10428022.66349  -8094127.17749  22434746.4554   22434751.5324
  21123789.442      104465.65249     87133.84849  21123789.5304   21123794.6434
  22286125.691   -15009261.02349 -11679176.76949  22286127.0324   22286134.1054
  22283056.698   -16013500.87649 -12207726.43949  22283056.3704   22283061.2624
  22440358.602    11847560.73649   9235080.45149  22440358.8614   22440364.6634
  19767888.623   -15199412.93649 -11826451.12349  19767888.1644   19767892.9894
 96  5 13 18 21 29.9980000  0  6 26  2  4  9 27  7
  22440166.022   -10399533.90749  -8071928.17049  22440167.3384   22440172.5584
  21127408.516      123482.48149    101952.14849  21127407.9264   21127413.4154
  22264475.687   -15123034.30249 -11767831.20449  22264476.4554   22264482.9914
  22263154.842   -16118074.24949 -12289212.14749  22263156.6204   22263162.4974
  22457121.444    11935659.51949   9303728.79649  22457123.2694   22457128.8234
  19769181.247   -15192614.78149 -11821153.85949  19769181.6194   19769186.6234
 96  5 13 18 21 59.9980000  0  6 26  2  4  9 27  7
  22445653.402   -10370707.18849  -8049465.80849  22445652.8274   22445658.6354
  21131055.560      142649.78549    116887.69849  21131055.4204   21131061.1214
  22242851.293   -15236676.39149 -11856383.43249  22242852.1474   22242857.2634
  22243294.974   -16222457.47049 -12370549.69149  22243293.4034   22243298.1984
  22473924.198    12023960.65449   9372534.82649  22473926.4524   22473932.4734
  19770537.557   -15185488.63749 -11815601.01549  19770537.6394   19770542.4484
 96  5 13 18 22 29.9980000  0  6 26  2  4  9 27  7
  22451201.752   -10341547.31749  -8026743.85549  22451201.4784   22451207.1504
  21134730.416      161962.12249    131936.26749  21134730.6504   21134735.9234
  22221251.512   -15350185.21449 -11944831.82349  22221251.8584   22221256.4684
  22223466.506   -16326642.87749 -12451733.09449  22223467.7494   22223472.3874
  22490762.570    12112447.83649   9441485.82849  22490764.6294   22490771.4394
  19771954.627   -15178044.52249 -11809800.40549  19771954.4034   19771959.0504
 96  5 13 18 22 59.9980000  0  6 26  2  4  9 27  7
  22456812.219   -10312066.86849  -8003772.11749  22456811.7244   22456817.5184
  21138428.609      181390.09349    147074.94049  21138427.9974   21138432.9694
  22199669.587   -15463592.83249 -12033201.36049  22199670.1904   22199676.0274
  22203672.112   -16430664.56649 -12532788.91049  22203672.9564   22203677.7724
  22507632.551    12201083.86149   9510552.78549  22507630.9514   22507637.5544
  19773424.266   -15170319.58649 -11803780.97449  19773424.6594   19773428.8124
 96  5 13 18 23 29.9980000  0  6 26  2  4  9 27  7
  22462486.101   -10282252.86849  -7980540.46349  22462485.3104   22462490.9334
  21142147.800      200943.44149    162311.30349  21142148.2754   21142153.5244
  22178112.148   -15576880.61549 -12121477.50749  22178112.3864   22178118.3244
  22183910.043   -16534516.77749 -12613712.67949  22183910.0614   22183915.7214
  22524530.204    12289885.98849   9579749.19949  22524530.4604   22524537.0064
  19774948.366   -15162308.92749 -11797538.90549  19774948.8044   19774953.3644
 96  5 13 18 23 59.9980000  0  6 26  2  4  9 27  7
  22468223.462   -10252099.35649  -7957044.25049  22468222.9924   22468229.2734
  21145894.703      220627.30849    177649.36549  21145894.1914   21145899.0984
  22156582.498   -15690016.44649 -12209635.24349  22156583.2664   22156588.8404
  22164179.615   -16638189.26049 -12694496.38649  22164182.2544   22164187.1994
  22541462.856    12378871.65649   9649088.60449  22541463.1894   22541469.8344
  19776532.927   -15153984.43549 -11791052.28749  19776532.8924   19776537.3804
 96  5 13 18 24 29.9980000  0  6 26  2  4  9 27  7
  22474023.992   -10221610.74549  -7933286.92749  22474025.4354   22474031.2294
  21149665.924      240445.64749    193092.21049  21149665.6054   21149670.6244
  22135086.437   -15802977.21149 -12297656.58049  22135087.4644   22135093.6864
  22144490.002   -16741679.00449 -12775137.70749  22144488.4274   22144493.9164
  22558431.693    12468039.63349   9718570.06649  22558432.1594   22558438.9064
  19778180.339   -15145324.32949 -11784304.15549  19778180.8044   19778185.5544
 96  5 13 18 24 59.9980000  0  6 26  2  4  9 27  7
  22479886.819   -10190802.40749  -7909280.46049  22479887.6544   22479893.4864
  21153461.546      260394.67749    208636.89549  21153462.1424   21153467.1924
  22113625.047   -15915763.60549 -12385542.02949  22113625.6774   22113631.8194
  22124826.687   -16845005.26249 -12855651.63249  22124826.0914   22124831.1594
  22575433.129    12557380.77749   9788186.45849  22575433.7204   22575439.0224
  19779890.839   -15136338.41549 -11777302.14749  19779890.6414   19779895.3374
 96  5 13 18 25 29.9980000  0  6 26  2  4  9 27  7
  22485807.598   -10159697.83449  -7885043.16849  22485807.1894   22485812.1774
  21157285.943      280490.36849    224295.87049  21157286.1734   21157290.9964
  22092197.073   -16028368.29549 -12473285.89649  22092197.6784   22092204.3284
  22105195.281   -16948158.17749 -12936030.48849  22105196.7004   22105201.7574
  22592465.733    12646891.20149   9857934.75149  22592466.4804   22592472.6624
  19781663.619   -15127020.70649 -11770041.59349  19781663.9074   19781668.5534
 96  5 13 18 25 59.9980000  0  6 26  2  4  9 27  7
  22491783.888   -10128288.90849  -7860568.71549  22491784.1714   22491789.0864
  21161141.661      300754.27049    240085.90549  21161142.0724   21161146.8854
  22070806.632   -16140777.54749 -12560877.47049  22070806.6464   22070812.8724
  22085604.611   -17051105.29749 -13016248.98549  22085606.2144   22085611.6084
  22609533.548    12736579.47749   9927821.62849  22609533.8524   22609539.6994
  19783504.462   -15117347.05549 -11762503.68849  19783504.8014   19783509.1354
 96  5 13 18 26 29.9980000  0  6 26  2  4  9 27  7
  22497826.196   -10096523.33349  -7835816.35749  22497828.8744   22497833.5534
  21165037.063      321223.37349    256035.84249  21165037.2164   21165042.5304
  22049459.690   -16252957.49949 -12648290.38649  22049460.1564   22049464.9994
  22066064.687   -17153803.53849 -13096273.54549  22066063.4634   22066068.3694
  22626639.737    12826477.80849   9997872.19649  22626640.8414   22626647.4674
  19785418.532   -15107291.69149 -11754668.34149  19785418.3294   19785422.6714
 96  5 13 18 26 59.9980000  0  6 26  2  4  9 27  7
  22503925.440   -10064484.24149  -7810850.86749  22503925.9234   22503930.4274
  21168955.449      341811.86149    272078.79549  21168955.2224   21168960.1864
  22028139.157   -16364992.40749 -12735590.25949  22028140.2184   22028145.8214
  22046553.384   -17256325.89149 -13176161.05849  22046554.1654   22046559.4184
  22643771.641    12916502.85049  10068021.51149  22643771.8224   22643778.2424
  19787384.711   -15096955.31049 -11746614.02349  19787385.4084   19787389.9064
 96  5 13 18 27 29.9980000  0  6 26  2  4  9 27  7
  22510077.835   -10032151.71549  -7785656.72549  22510078.0474   22510083.6244
  21172898.546      362533.72249    288225.68149  21172897.9594   21172903.2004
  22006850.278   -16476866.95649 -12822765.19249  22006851.5954   22006856.5584
  22027082.911   -17358640.00749 -13255886.30849  22027084.1104   22027089.1834
  22660928.117    13006655.19049  10138269.99749  22660927.9954   22660934.0384
  19789404.968   -15086339.88949 -11738342.27049  19789405.0924   19789409.7474
 96  5 13 18 27 59.9980000  0  6 26  2  4  9 27  7
  22516287.805    -9999512.06849  -7760223.27149  22516289.1024   22516295.3374
  21176863.867      383376.30849    304466.63049  21176864.5004   21176869.5514
  21985593.737   -16588567.89449 -12909804.83049  21985594.8874   21985601.2044
  22007655.822   -17460741.10549 -13335445.57849  22007655.7324   22007660.6704
  22678109.224    13096942.47649  10208623.65449  22678108.9664   22678114.6934
  19791477.223   -15075453.82049 -11729859.62549  19791476.8934   19791481.2514
 96  5 13 18 28 29.9970000  0  6 26  2  4  9 27  7
  22522567.929    -9966520.00849  -7734515.21549  22522567.7604   22522573.3874
  21180862.369      404382.32249    320834.93549  21180862.0574   21180867.0844
  21964384.408   -16700032.68249 -12996660.47349  21964383.2274   21964389.1874
  21988274.521   -17562577.52549 -13414798.60449  21988276.0524   21988281.5034
  22695320.941    13187406.60249  10279115.08249  22695324.2184   22695329.5644
  19793607.462   -15064257.07249 -11721134.90049  19793607.9144   19793612.0404
 96  5 13 18 28 59.9970000  0  6 26  2  4  9 27  7
  22528908.567    -9933197.81849  -7708549.89449  22528908.8724   22528913.8164
  21184890.864      425556.56449    337334.32349  21184891.4754   21184896.5264
  21943211.996   -16811284.06749 -13083349.81749  21943213.5644   21943218.4004
  21968946.031   -17664168.06949 -13493960.03249  21968944.1604   21968949.8614
  22712573.939    13278053.10549  10349748.63449  22712573.7484   22712580.4834
  19795796.280   -15052754.24149 -11712171.66149  19795796.5304   19795800.9614
 96  5 13 18 29 29.9970000  0  6 26  2  4  9 27  7
  22535301.982    -9899590.27349  -7682362.21849  22535303.7324   22535310.2234
  21188941.602      446839.46449    353918.37949  21188941.4134   21188946.5294
  21922072.704   -16922375.52749 -13169914.54649  21922073.8764   21922078.5804
  21949646.746   -17765578.88949 -13572981.41149  21949646.2144   21949651.6464
  22729846.851    13368836.79749  10420489.08649  22729848.3384   22729854.5764
  19798035.125   -15040986.22149 -11703001.77949  19798035.7534   19798040.3624
 96  5 13 18 29 59.9970000  0  6 26  2  4  9 27  7
  22541751.713    -9865708.23249  -7655960.66249  22541751.6834   22541757.3324
  21193008.950      468215.63549    370575.11849  21193008.9084   21193014.2344
  21900963.392   -17033302.53149 -13256351.12049  21900964.4894   21900969.2904
  21930382.565   -17866818.49049 -13651869.37549  21930381.1674   21930386.3314
  22747152.310    13459774.44549  10491349.50249  22747151.8504   22747158.8954
  19800331.051   -15028926.40649 -11693604.52349  19800330.8844   19800335.1024
 96  5 13 18 30 29.9970000  0  6 26  2  4  9 27  7
  22548255.577    -9831523.48049  -7629323.22849  22548257.1594   22548261.7274
  21197100.489      489717.42849    387329.74049  21197100.8394   21197106.2384
  21879891.083   -17144038.94849 -13342639.19349  21879891.5714   21879897.5184
  21911153.359   -17967860.44449 -13730603.34049  21911154.2194   21911158.4034
  22764490.134    13550879.31349  10562340.20549  22764490.2584   22764496.6334
  19802687.536   -15016542.16749 -11683954.47949  19802687.2984   19802691.8404
 96  5 13 18 30 59.9970000  0  6 26  2  4  9 27  7
  22554813.688    -9797066.35049  -7602473.54649  22554814.3884   22554819.5674
  21201210.272      511317.25449    404160.76149  21201211.1594   21201216.4594
  21858848.660   -17254614.38449 -13428801.82349  21858849.6824   21858855.2194
  21891955.883   -18068736.35549 -13809207.91449  21891957.3464   21891962.8894
  22781853.875    13642129.05849  10633443.82549  22781854.2224   22781860.7264
  19805099.353   -15003866.18549 -11674077.09449  19805099.4424   19805104.0824
 96  5 13 18 31 29.9970000  0  6 26  2  4  9 27  7
  22561427.667    -9762307.18649  -7575388.51549  22561428.3574   22561433.5194
  21205342.880      533032.08849    421081.39449  21205343.1704   21205348.5824
  21837847.875   -17364978.03449 -13514799.41849  21837847.2494   21837854.4154
  21872803.322   -18169402.31849 -13887648.90049  21872801.9344   21872806.8514
  22799247.618    13733542.64049  10704675.09449  22799249.5284   22799256.5434
  19807572.958   -14990865.07649 -11663946.36049  19807573.6064   19807578.2474
 96  5 13 18 31 59.9970000  0  7 26  2  4 24  9 27  7
  22568093.513    -9727274.22549  -7548090.14649  22568094.8774   22568099.6624
  21209498.989      554867.68749    438096.12849  21209498.4994   21209503.7254
  21816885.047   -17475130.13849 -13600632.18349  21816887.3524   21816892.5734
  24053737.707    -4798261.50759  -3418626.25859  24053741.5024   24053748.6364
  21853686.564   -18269849.00849 -13965919.02449  21853687.0234   21853691.9944
  22816672.278    13825089.19649  10776010.00449  22816671.4504   22816677.5434
  19810105.107   -14977561.85549 -11653580.22049  19810105.1184   19810109.6104
 96  5 13 18 32 29.9970000  0  7 26  2  4 24  9 27  7
  22574814.765    -9691959.06249  -7520571.86849  22574815.3654   22574819.4234
  21213683.575      576860.76549    455233.58649  21213683.8544   21213689.0914
  21795967.447   -17585062.01249 -13686293.34049  21795967.2794   21795973.5314
  24029595.663    -4925132.34649  -3517486.50949  24029596.1324   24029605.4484
  21834618.161   -18370057.40549 -14044003.45849  21834618.0034   21834623.5504
  22834115.206    13916761.71549  10847443.04649  22834114.8104   22834122.1364
  19812691.987   -14963967.96549 -11642987.58049  19812692.2794   19812696.4914
 96  5 13 18 32 59.9970000  0  7 26  2  4 24  9 27  7
  22581589.240    -9656354.70049  -7492828.23749  22581591.2304   22581595.2204
  21217903.271      599030.71349    472508.86049  21217902.6834   21217908.0494
  21775093.239   -17694750.53249 -13771764.87249  21775094.9394   21775099.3894
  24005436.738    -5052089.50949  -3616414.04249  24005437.5964   24005445.5634
  21815598.546   -18470010.33449 -14121888.83049  21815597.8104   21815602.5674
  22851586.249    14008580.57949  10918990.12249  22851587.7914   22851594.7854
  19815337.672   -14950067.22949 -11632155.84349  19815337.0404   19815341.5854
 96  5 13 18 33 29.9970000  0  7 26  2  4 24  9 27  7
  22588416.378    -9620476.51049  -7464871.23149  22588417.1494   22588422.7184
  21222154.719      621377.68149    489922.07549  21222154.6524   21222160.6824
  21754267.089   -17804205.45149 -13857054.37649  21754266.0194   21754271.4774
  23981258.756    -5179153.49549  -3715424.79949  23981258.8264   23981265.8234
  21796624.425   -18569710.28649 -14199577.08149  21796625.5864   21796630.6864
  22869081.930    14100517.51049  10990629.20749  22869083.6454   22869089.4134
  19818038.851   -14935870.48949 -11621093.45049  19818038.6904   19818043.2464
 96  5 13 18 33 59.9970000  0  7 26  2  4 24  9 27  7
  22595297.134    -9584326.98949  -7436702.80549  22595296.9524   22595301.7834
  21226445.293      643914.72849    507483.40149  21226443.4954   21226449.1464
  21733479.331   -17913436.14749 -13942169.16149  21733480.5594   21733485.6874
  23957057.118    -5306325.76449  -3814519.96449  23957059.3924   23957066.1304
  21777699.210   -18669170.73849 -14277078.71449  21777698.7694   21777703.8724
  22886601.354    14192568.45249  11062357.13849  22886599.5984   22886606.4934
  19820794.986   -14921383.32049 -11609804.74949  19820795.3884   19820800.0204
 96  5 13 18 34 29.9970000  0  7 26  2  4 24  9 27  7
  22602232.059    -9547887.31649  -7408308.29149  22602231.3364   22602236.2124
  21230771.998      666658.43149    525205.75549  21230771.5404   21230776.9204
  21712741.393   -18022423.06149 -14027093.99449  21712741.1164   21712745.9524
  23932841.620    -5433578.37349  -3913677.71349  23932843.8974   23932850.5324
  21758818.581   -18768392.58449 -14354394.42049  21758817.3544   21758821.9534
  22904142.396    14284759.16049  11134193.95049  22904144.2454   22904151.0604
  19823610.537   -14906590.18749 -11598277.64049  19823610.5374   19823615.0674
 96  5 13 18 34 59.9970000  0  7 26  2  4 24  9 27  7
  22609215.628    -9511185.57349  -7379709.56149  22609215.2174   22609220.1764
  21235130.852      689567.36949    543056.87249  21235131.0584   21235136.4454
  21692042.468   -18131189.66149 -14111847.15049  21692043.3504   21692049.0634
  23908606.646    -5560924.50549  -4012908.39949  23908610.4584   23908617.7454
  21739972.360   -18867415.32849 -14431554.98249  21739973.8074   21739978.9104
  22921709.369    14377066.53749  11206121.68349  22921709.7084   22921714.7464
  19826477.849   -14891520.79849 -11586535.26449  19826478.1474   19826482.3544
 96  5 13 18 35 29.9970000  0  7 26  2  4 24  9 27  7
  22616248.690    -9474215.85249  -7350902.02549  22616249.7664   22616255.6194
  21239521.314      712641.14249    561036.43249  21239521.6674   21239526.8414
  21671388.262   -18239734.56649 -14196427.55849  21671387.3464   21671393.2594
  23884364.338    -5688338.70449  -4112192.07349  23884364.1764   23884371.2464
  21721170.613   -18966227.45249 -14508551.42349  21721170.0044   21721175.4714
  22939299.533    14469493.21749  11278142.40249  22939299.2234   22939303.7924
  19829398.243   -14876175.94449 -11574578.24649  19829397.8554   19829402.7054
 96  5 13 18 35 59.9970000  0  7 26  2  4 24  9 27  7
  22623339.071    -9436958.63649  -7321870.44949  22623339.5694   22623345.4014
  21243944.009      735880.05249    579144.67149  21243944.0774   21243949.0894
  21650778.929   -18348031.13549 -14280814.45949  21650778.9604   21650784.9064
  23860112.036    -5815788.83249  -4211503.77449  23860110.5714   23860119.4274
  21702411.151   -19064807.46549 -14585367.00149  21702411.4274   21702416.1764
  22956913.211    14562062.28849  11350274.05849  22956913.4924   22956917.8764
  19832375.435   -14860530.53849 -11562387.02349  19832375.4134   19832380.2224
 96  5 13 18 36 29.9970000  0  7 26  2  4 24  9 27  7
  22630485.064    -9399410.56749  -7292612.24949  22630485.0874   22630490.6204
  21248394.534      759268.38249    597369.32849  21248394.2814   21248399.8854
  21630216.805   -18456084.08949 -14365011.53049  21630217.9284   21630223.1434
  23835850.176    -5943290.19749  -4310855.39249  23835849.1174   23835856.0314
  21683697.118   -19163143.04049 -14661992.10249  21683698.9594   21683703.9074
  22974552.929    14654766.80049  11422511.24849  22974553.9154   22974560.7164
  19835407.848   -14844595.88049 -11549970.41049  19835407.7844   19835412.5774
 96  5 13 18 36 59.9970000  0  7 26  2  4 24  9 27  7
  22637685.009    -9361565.19949  -7263122.39549  22637687.6674   22637692.0474
  21252873.327      782799.71149    615705.42249  21252872.3354   21252877.9904
  21609700.866   -18563892.98649 -14449018.43249  21609702.6934   21609707.9394
  23811569.740    -6070851.03549  -4410253.35349  23811574.4644   23811582.2834
  21665039.097   -19261200.28049 -14738400.32049  21665038.8214   21665044.5064
  22992219.383    14747604.76249  11494852.42649  22992220.0864   22992226.3034
  19838497.198   -14828362.06649 -11537320.68649  19838496.8154   19838501.8484
 96  5 13 18 37 29.9970000  0  7 26  2  4 24  9 27  7
  22644948.267    -9323395.97549  -7233380.17449  22644950.2654   22644956.0604
  21257384.261      806511.50849    634182.14049  21257384.8754   21257389.8614
  21589240.008   -18671415.89649 -14532802.47549  21589240.8184   21589246.4854
  23787291.507    -6198441.63049  -4509674.52449  23787294.7944   23787302.6704
  21646442.891   -19358921.25949 -14814546.50749  21646443.2564   21646448.7264
  23009920.448    14840621.50049  11567332.91049  23009921.2494   23009928.7524
  19841652.349   -14811782.94749 -11524401.89449  19841651.9274   19841656.6514
 96  5 13 18 37 59.9970000  0  7 26  2  4 24  9 27  7
  22652264.453    -9284964.64849  -7203433.70449  22652263.4504   22652268.4914
  21261923.134      830359.68849    652765.12549  21261922.8144   21261928.0674
  21568824.926   -18778702.52449 -14616402.41449  21568825.0984   21568830.7284
  23762994.902    -6326129.80349  -4609171.72349  23762996.1654   23763002.4934
  21627898.843   -19456365.95149 -14890477.40449  21627900.1854   21627905.4064
  23027645.270    14933769.49549  11639915.65249  23027646.3644   23027654.1514
  19844861.613   -14794917.09749 -11511259.67949  19844861.5244   19844865.8524
 96  5 13 18 38 29.9970000  0  7 26  2  4 24  9 27  7
  22659633.449    -9246233.33649  -7173253.49249  22659633.1414   22659639.1884
  21266495.635      854394.37749    671493.43449  21266496.9344   21266501.7994
  21548462.300   -18885706.29949 -14699781.94349  21548463.4244   21548468.7984
  23738683.634    -6453878.88549  -4708716.38849  23738686.1684   23738694.5504
  21609414.109   -19553501.50649 -14966167.41849  21609415.7004   21609420.5404
  23045405.281    15027101.71549  11712641.95749  23045406.6794   23045414.7864
  19848130.659   -14777736.00449 -11497871.81149  19848130.6914   19848135.1184
 96  5 13 18 38 59.9970000  0  7 26  2  4 24  9 27  7
  22667042.971    -9207284.29249  -7142903.60549  22667045.6174   22667051.0794
  21271092.898      878548.13549    690314.53549  21271092.7704   21271097.7364
  21528142.828   -18992484.86549 -14782985.98649  21528144.0064   21528149.4864
  23714357.061    -6581732.29849  -4808342.33349  23714356.9894   23714363.5034
  21590976.294   -19650401.58449 -15041673.93249  21590975.9814   21590980.9004
  23063187.940    15120554.55049  11785462.23049  23063189.6514   23063198.6394
  19851447.723   -14760300.19149 -11484285.45949  19851448.6914   19851452.8944
 96  5 13 18 39 29.9970000  0  7 26  2  4 24  9 27  7
  22674500.246    -9168100.02249  -7112370.44249  22674501.9964   22674507.6414
  21275715.120      902838.75949    709242.27949  21275715.2214   21275720.1314
  21507871.077   -19099013.17549 -14865995.02749  21507872.8244   21507877.5294
  23690011.289    -6709647.20249  -4908016.21249  23690013.6754   23690022.6574
  21572581.531   -19747065.95749 -15116996.78749  21572581.4774   21572586.4454
  23080999.098    15214137.26749  11858383.71849  23080999.4114   23081007.3694
  19854818.072   -14742590.51549 -11470485.70749  19854818.5504   19854823.1124
 96  5 13 18 39 59.9970000  0  7 26  2  4 24  9 27  7
  22682012.387    -9128631.84549  -7081616.03849  22682011.3794   22682019.4194
  21280370.075      927303.80049    728305.92949  21280370.6994   21280375.6894
  21487658.076   -19205237.16049 -14948766.92649  21487658.4044   21487664.1914
  23665672.399    -6837565.00249  -5007692.32849  23665672.9934   23665679.6404
  21554237.526   -19843457.16049 -15192106.77349  21554238.9974   21554243.4704
  23098837.248    15307869.41849  11931421.62949  23098836.1074   23098843.7234
  19858247.327   -14724571.49649 -11456444.90049  19858247.2104   19858252.3444
 96  5 13 18 40 29.9970000  0  7 26  2  4 24  9 27  7
  22689570.220    -9088896.41849  -7050653.41349  22689574.6504   22689581.0354
  21285051.716      951911.68649    747480.89249  21285053.7194   21285058.8024
  21467499.208   -19311173.61449 -15031314.77549  21467499.5344   21467504.3844
  23641327.514    -6965488.71449  -5107373.06549  23641329.2004   23641337.1434
  21535947.152   -19939578.13549 -15267006.19349  21535947.6264   21535952.2174
  23116694.040    15401709.93649  12004543.99849  23116693.4194   23116700.5124
  19861728.864   -14706271.95449 -11442185.51949  19861729.4034   19861734.4114
 96  5 13 18 40 59.9970000  0  7 26  2  4 24  9 27  7
  22697179.800    -9048928.70649  -7019509.78149  22697180.2764   22697185.9234
  21289761.215      976656.42049    766762.48949  21289762.2804   21289767.4404
  21447390.344   -19416839.85449 -15113652.06749  21447391.7384   21447396.9774
  23616979.656    -7093429.35549  -5207066.97749  23616983.4494   23616989.8114
  21517705.669   -20035434.70349 -15341699.57649  21517707.0734   21517711.6244
  23134561.776    15495609.26949  12077712.19049  23134562.5864   23134568.5984
  19865261.555   -14687706.84049 -11427719.19349  19865262.5294   19865267.5174
 96  5 13 18 41 29.9970000  0  7 26  2  4 24  9 27  7
  22704826.114    -9008745.54449  -6988198.27049  22704827.0884   22704832.4614
  21294494.173     1001525.33349    786140.83949  21294494.8014   21294500.4074
  21427335.265   -19522233.18849 -15195776.70649  21427336.1784   21427340.8674
  23592629.020    -7221413.36549  -5306794.71549  23592629.9384   23592637.4914
  21499515.279   -20131036.42249 -15416194.38949  21499514.4544   21499519.1984
  23152437.668    15589540.28449  12150905.06149  23152436.9334   23152443.1864
  19868839.147   -14668910.76549 -11413072.90949  19868839.3454   19868844.0704
 96  5 13 18 41 59.9970000  0  7 26  2  4 24  9 27  7
  22712520.354    -8968314.91249  -6956693.91149  22712520.1624   22712526.0044
  21299259.223     1026559.48549    805647.96149  21299258.8764   21299264.0194
  21407339.759   -19627312.02849 -15277656.27749  21407340.0864   21407344.6564
  23568270.568    -7349416.76349  -5406537.52749  23568270.5204   23568277.1514
  21481378.087   -20226336.08449 -15490453.83749  21481379.5594   21481384.9754
  23170324.876    15683545.29949  12224155.61949  23170325.1104   23170332.3514
  19872463.431   -14649865.36749 -11398232.33749  19872463.8034   19872468.2794
 96  5 13 18 42 29.9970000  0  7 26  2  4 24  9 27  7
  22720259.408    -8927630.78249  -6924992.03749  22720262.5274   22720268.0794
  21304058.682     1051787.95149    825306.48649  21304059.1804   21304064.8304
  21387404.533   -19732070.01749 -15359285.84249  21387405.7904   21387410.6044
  23543909.220    -7477436.29649  -5506292.93449  23543908.0384   23543916.1364
  21463304.330   -20321320.19949 -15564467.40249  21463304.3184   21463309.5874
  23188234.409    15777652.14449  12297485.49549  23188233.4864   23188240.4844
  19876137.165   -14630559.41249 -11383188.73549  19876137.4554   19876141.9864
 96  5 13 18 42 59.9970000  0  7 26  2  4 24  9 27  7
  22728046.144    -8886730.66649  -6893121.84849  22728045.4004   22728050.3564
  21308890.952     1077181.48149    845093.63549  21308891.4924   21308897.0844
  21367528.411   -19836524.76449 -15440679.11449  21367528.7914   21367533.2164
  23519535.313    -7605499.66349  -5606082.46749  23519539.2684   23519546.5964
  21445281.987   -20416027.87449 -15638265.56749  21445281.7584   21445287.1974
  23206156.230    15871845.25349  12370882.60149  23206157.8764   23206164.3094
  19879857.444   -14611008.17149 -11367953.99749  19879857.8744   19879862.3464
 96  5 13 18 43 29.9970000  0  7 26  2  4 24  9 27  7
  22735869.905    -8845607.89949  -6861078.17249  22735870.5244   22735875.8254
  21313749.219     1102714.03749    864989.13149  21313750.1144   21313756.0644
  21347702.294   -19940702.57249 -15521856.58749  21347703.6534   21347709.2714
  23495156.160    -7733618.75749  -5705915.44849  23495158.5624   23495166.1584
  21427309.860   -20510467.12149 -15711854.56249  21427310.8554   21427315.6264
  23224098.704    15966144.82749  12444362.65749  23224103.3464   23224109.3374
  19883622.834   -14591220.44449 -11352534.97849  19883623.4914   19883627.9504
 96  5 13 18 43 59.9970000  0  7 26  2  4 24  9 27  7
  22743732.831    -8804276.60749  -6828871.99949  22743735.2654   22743740.6594
  21318632.207     1128375.83849    884985.32649  21318633.4264   21318638.9924
  21327924.065   -20044637.60349 -15602844.87649  21327925.1964   21327930.9954
  23470769.188    -7861793.94549  -5805792.13549  23470767.6784   23470774.8274
  21409387.056   -20604647.70349 -15785242.00749  21409388.6564   21409393.4864
  23242066.267    16060547.99249  12517923.43349  23242066.2934   23242072.9824
  19887433.904   -14571191.71449 -11336928.17249  19887434.7614   19887439.3354
 96  5 13 18 44 29.9970000  0  7 26  2  4 24  9 27  7
  22751640.403    -8762742.43649  -6796507.75349  22751638.8604   22751645.2134
  21323542.411     1154171.54349    905085.86349  21323541.9984   21323548.0034
  21308192.130   -20148335.88549 -15683648.69149  21308192.2864   21308198.2744
  23446366.298    -7990022.18349  -5905710.15349  23446366.6164   23446373.9514
  21391514.702   -20698568.25549 -15858426.82649  21391516.3214   21391521.4894
  23260046.792    16155043.67749  12591556.30849  23260049.1494   23260055.7284
  19891291.559   -14550919.39849 -11321131.55449  19891292.1264   19891296.8884
 96  5 13 18 44 59.9970000  0  7 26  2  4 24  9 27  7
  22759582.269    -8720994.00349  -6763976.56049  22759583.6614   22759589.5054
  21328476.380     1180102.10949    925291.47449  21328476.8654   21328482.4634
  21288503.553   -20251789.47449 -15764261.83549  21288505.4884   21288510.9294
  23421956.171    -8118289.66449  -6005658.76149  23421958.0164   23421963.4264
  21373695.191   -20792217.63249 -15931400.34149  21373695.8574   21373700.4264
  23278047.804    16249624.82349  12665255.77049  23278047.4954   23278054.0114
  19895197.709   -14530396.99149 -11305140.06849  19895197.5364   19895202.3024
 96  5 13 18 45 29.9970000  0  7 26  2  4 24  9 27  7
  22767572.469    -8679009.37049  -6731261.29449  22767573.5254   22767579.1204
  21333441.711     1206189.59749    945619.37549  21333441.2914   21333446.2424
  21268864.842   -20354989.44749 -15844677.35649  21268866.8764   21268873.0004
  23397544.310    -8246580.52749  -6105625.59449  23397545.4424   23397551.2624
  21355928.882   -20885583.24849 -16004152.74949  21355928.8064   21355933.1344
  23296060.963    16344289.78849  12739020.55549  23296060.9184   23296067.2524
  19899149.909   -14509623.62349 -11288953.02649  19899150.7054   19899155.2024
 96  5 13 18 45 59.9970000  0  7 26  2  4 24  9 27  7
  22775605.570    -8636797.54149  -6698368.99749  22775606.1544   22775611.8914
  21338438.455     1232451.85049    966083.45849  21338438.7234   21338444.0134
  21249282.715   -20457901.17449 -15924868.28149  21249283.7154   21249289.2734
  23373128.628    -8374877.87549  -6205597.49049  23373131.3114   23373137.8324
  21338215.876   -20978657.66149 -16076678.24249  21338217.3164   21338222.6624
  23314089.112    16439019.22749  12812835.57949  23314089.2214   23314096.0784
  19903151.363   -14488598.62249 -11272569.90949  19903151.7504   19903156.2794
 96  5 13 18 46 29.9970000  0  7 26  2  4 24  9 27  7
  22783685.150    -8594338.20649  -6665283.84249  22783685.1424   22783691.5264
  21343474.979     1258918.27049    986706.62849  21343475.1084   21343480.4374
  21229760.268   -20560493.63749 -16004810.42649  21229761.6424   21229766.6114
  23348718.311    -8503160.44449  -6305557.84049  23348719.7654   23348727.1304
  21320564.874   -21071424.78249 -16148964.29349  21320564.2464   21320569.1294
  23332131.751    16533831.40149  12886715.03149  23332129.7164   23332137.4434
  19907205.753   -14467293.41149 -11255968.45049  19907205.5154   19907210.6704
 96  5 13 18 46 59.9970000  0  7 26  2  4 24  9 27  7
  22791794.774    -8551720.18849  -6632075.03149  22791795.3334   22791802.7544
  21348532.425     1285498.03949   1007418.12649  21348533.1484   21348538.5964
  21210283.429   -20662846.33049 -16084565.72649  21210284.3274   21210289.6464
  23324296.396    -8631507.16449  -6405568.21349  23324294.9174   23324302.5264
  21302953.249   -21163971.00549 -16221078.21149  21302953.2814   21302958.0854
  23350170.520    16628651.97049  12960601.05049  23350173.7494   23350181.7054
  19911300.227   -14445776.79249 -11239202.25249  19911300.3554   19911305.0154
 96  5 13 18 47 29.9970000  0  7 26  2  4 24  9 27  7
  22799936.386    -8508937.87249  -6598738.20949  22799937.7864   22799943.3174
  21353614.056     1312200.75649   1028225.41249  21353614.4514   21353620.1944
  21190855.495   -20764949.33449 -16164126.47349  21190854.7204   21190859.8924
  23299862.823    -8759896.04149  -6505611.41249  23299863.1574   23299870.9384
  21285387.775   -21256271.43849 -16293000.60549  21285388.9294   21285394.0754
  23368220.522    16723498.23949  13034507.09349  23368222.8954   23368229.9804
  19915436.395   -14424038.83049 -11222263.58349  19915436.7344   19915441.8134
 96  5 13 18 47 59.9970000  0  7 26  2  4 24  9 27  7
  22808104.133    -8466015.75449  -6565292.44149  22808105.0774   22808111.8934
  21358715.920     1339012.98949   1049118.03949  21358716.4134   21358722.3074
  21171469.273   -20866814.16349 -16243501.63149  21171470.7624   21171475.8964
  23275418.150    -8888346.04949  -6605702.24649  23275421.3864   23275427.1884
  21267872.651   -21348318.59749 -16364725.63949  21267873.0004   21267878.3674
  23386275.675    16818364.69549  13108428.85649  23386275.6654   23386283.9854
  19919612.662   -14402093.70849 -11205163.49349  19919613.2514   19919617.8874
 96  5 13 18 48 29.9970000  0  7 26  2  4 24  9 27  7
  22816310.285    -8422895.93449  -6531692.63349  22816310.6004   22816316.5884
  21363846.510     1365975.73749   1070127.95649  21363847.6604   21363852.5504
  21152138.131   -20968404.11149 -16322662.59649  21152138.6104   21152143.2144
  23250972.319    -9016812.64649  -6705806.01949  23250974.5844   23250981.2204
  21250415.487   -21440057.36749 -16436210.37249  21250415.6744   21250420.8384
  23404342.295    16913306.57249  13182409.40649  23404343.2974   23404348.7504
  19923834.890   -14379908.34949 -11187876.20649  19923834.7714   19923839.8364
 96  5 13 18 48 59.9970000  0  7 26  2  4 24  9 27  7
  22824551.353    -8379581.55949  -6497941.20649  22824552.5744   22824559.3004
  21369005.589     1393079.03649   1091247.39749  21369005.0864   21369010.2214
  21132860.758   -21069707.23449 -16401600.04549  21132861.3774   21132866.1894
  23226525.973    -9145291.57749  -6805919.39649  23226525.6494   23226532.2074
  21233018.581   -21531475.90149 -16507445.56349  21233019.2514   21233023.8614
  23422422.515    17008321.68149  13256447.01249  23422423.8994   23422430.2694
  19928096.587   -14357513.07549 -11170425.35049  19928096.3894   19928101.1284
 96  5 13 18 49 29.9970000  0  7 26  2  4 24  9 27  7
  22832837.973    -8336042.37649  -6464014.60949  22832837.4454   22832844.3124
  21374197.110     1420356.62949   1112502.64049  21374196.3784   21374201.3614
  21113646.831   -21170676.85449 -16480277.64749  21113647.3194   21113652.1344
  23202079.226    -9273755.17449  -6906020.81249  23202080.7144   23202086.2024
  21215689.317   -21622543.03249 -16578406.94449  21215689.7854   21215694.8154
  23440522.669    17103434.82049  13330560.99949  23440523.2474   23440529.7934
  19932401.372   -14334890.47749 -11152797.36149  19932401.4244   19932406.1124
 96  5 13 18 49 59.9970000  0  8 26  2  5  4 24  9 27  7
  22841159.203    -8292317.61149  -6429943.41049  22841158.8054   22841164.7014
  21379414.185     1447775.63749   1133868.09049  21379413.6664   21379418.8794
  23934665.371    -5116272.08959  -3966920.87659  23934667.7314   23934674.5284
  21094492.495   -21271329.75949 -16558708.44449  21094493.0124   21094498.0474
  23177625.799    -9402254.25649  -7006149.89049  23177627.1734   23177634.4674
  21198415.965   -21713317.17049 -16649140.01249  21198415.7714   21198420.8544
  23458636.777    17198621.37049  13404732.19149  23458637.4304   23458643.5634
  19936743.192   -14312075.90749 -11135019.77949  19936743.1004   19936747.2304
 96  5 13 18 50 29.9970000  0  8 26  2  5  4 24  9 27  7
  22849513.868    -8248404.92049  -6395725.77249  22849514.8754   22849521.3594
  21384657.220     1475329.86449   1155338.89649  21384657.2214   21384662.4864
  23915217.003    -5218485.57949  -4046567.66049  23915217.1104   23915223.5054
  21075401.316   -21371652.54549 -16636882.01549  21075402.5474   21075407.7694
  23153168.369    -9530786.13449  -7106304.52249  23153168.3244   23153176.0264
  21181195.143   -21803816.12749 -16719658.65349  21181194.5834   21181199.1894
  23476761.545    17293873.28849  13478954.28549  23476762.1674   23476768.8584
  19941122.853   -14289057.68849 -11117083.50849  19941122.6934   19941127.3044
 96  5 13 18 50 59.9970000  0  8 26  2  5  4 24  9 27  7
  22857914.216    -8204259.90149  -6361327.10549  22857915.9554   22857921.7494
  21389937.321     1503078.02249   1176960.82349  21389937.2604   21389942.8844
  23895769.124    -5320681.08049  -4126200.43049  23895770.0444   23895777.5544
  21056388.087   -21471573.36249 -16714742.35849  21056388.0794   21056393.4834
  23128714.925    -9659289.20249  -7206436.70749  23128715.4384   23128721.0264
  21164038.296   -21893978.70349 -16789915.17749  21164037.3574   21164041.7714
  23494911.431    17389240.06049  13553265.91049  23494910.7004   23494917.3504
  19945557.161   -14265756.13749 -11098926.45649  19945557.2624   19945561.8944
 96  5 13 18 51 29.9970000  0  8 26  2  5  4 24  9 27  7
  22866358.654    -8159887.73649  -6326751.43249  22866359.3204   22866365.5744
  21395255.069     1531025.31749   1198737.91449  21395255.0334   21395260.6964
  23876322.233    -5422873.73849  -4205830.99149  23876323.0224   23876330.2094
  21037448.489   -21571095.10249 -16792291.73149  21037449.6334   21037455.7474
  23104267.596    -9787758.61149  -7306542.66949  23104268.1554   23104275.3834
  21146946.756   -21983796.62949 -16859903.14149  21146945.5304   21146950.2944
  23513080.764    17484725.99449  13627670.35849  23513079.1854   23513087.4904
  19950049.830   -14242147.89149 -11080530.42749  19950049.5944   19950054.3854
 96  5 13 18 51 59.9970000  0  8 26  2  5  4 24  9 27  7
  22874839.255    -8115329.63449  -6292030.88249  22874839.0714   22874844.4304
  21400605.376     1559139.19249   1220644.80649  21400605.7564   21400610.8514
  23856863.604    -5525129.13049  -4285510.41849  23856865.1524   23856870.3474
  21018579.977   -21670254.14849 -16869558.48949  21018580.5024   21018586.6184
  23079823.805    -9916213.09649  -7406636.99549  23079822.9474   23079830.6044
  21129914.535   -22073292.17849 -16929639.90149  21129915.2114   21129919.7504
  23531265.136    17580283.43849  13702130.54449  23531264.1924   23531271.2794
  19954594.037   -14218268.02649 -11061922.74349  19954593.7554   19954598.6704
 96  5 13 18 52 29.9970000  0  8 26  2  5  4 24  9 27  7
  22883355.066    -8070572.36249  -6257155.13849  22883355.0914   22883361.0074
  21405994.073     1587454.93149   1242709.00549  21405993.5284   21405999.3964
  23837395.319    -5627440.27249  -4365233.31249  23837394.2344   23837402.2294
  20999782.821   -21769035.01249 -16946530.55449  20999783.3104   20999788.5904
  23055392.564   -10044600.69849  -7506679.20249  23055392.4634   23055400.1774
  21112955.415   -22162411.38049 -16999083.40549  21112956.1654   21112960.9754
  23549461.061    17675915.91649  13776649.19649  23549462.7824   23549470.3984
  19959193.415   -14194095.92849 -11043087.34749  19959193.6424   19959198.4714
 96  5 13 18 52 59.9970000  0  8 26  2  5  4 24  9 27  7
  22891906.247    -8025634.02849  -6222138.29349  22891907.4564   22891912.6894
  21411421.012     1615976.03549   1264933.22349  21411421.3244   21411426.7204
  23817911.431    -5729823.70349  -4445012.52049  23817911.9264   23817919.7954
  20981054.357   -21867454.76449 -17023221.23849  20981054.1224   20981059.6334
  23030973.746   -10172921.64649  -7606669.46049  23030974.8204   23030980.4724
  21096069.800   -22251149.14649 -17068229.68649  21096069.8774   21096074.5464
  23567675.259    17771616.17649  13851220.62949  23567674.6614   23567681.7484
  19963845.592   -14169652.89749 -11024040.83549  19963844.7944   19963850.0604
 96  5 13 18 53 29.9970000  0  8 26  2  5  4 24  9 27  7
  22900502.786    -7980462.94349  -6186940.09449  22900503.4564   22900509.5314
  21416896.042     1644746.19349   1287351.50349  21416895.9814   21416901.8474
  23798423.263    -5832233.44449  -4524812.24349  23798422.9684   23798431.4064
  20962401.725   -21965472.92549 -17099598.99049  20962402.7774   20962407.2514
  23006572.698   -10301142.39149  -7706581.64949  23006574.5224   23006582.1224
  21079262.719   -22339472.28549 -17137052.88149  21079262.6684   21079267.2584
  23585904.715    17867424.79049  13925876.53649  23585906.2034   23585914.1554
  19968551.081   -14144922.33849 -11004770.27749  19968551.0364   19968555.8064
 96  5 13 18 53 59.9970000  0  8 26  2  5  4 24  9 27  7
  22909135.537    -7935095.98449  -6151589.26549  22909136.6084   22909141.1814
  21422408.973     1673718.29249   1309927.13649  21422409.3134   21422414.8884
  23778924.451    -5934710.99349  -4604664.79449  23778923.3884   23778931.2144
  20943818.990   -22063127.19549 -17175693.19049  20943819.8614   20943824.2574
  22982184.923   -10429310.82849  -7806453.09449  22982185.2184   22982190.0644
  21062523.973   -22427430.17249 -17205591.46849  21062524.8264   21062529.5464
  23604145.770    17963271.78349  14000562.32249  23604144.2754   23604153.0844
  19973299.216   -14119967.90249 -10985325.27449  19973299.6804   19973304.4244
 96  5 13 18 54 29.9970000  0  8 26  2  5  4 24  9 27  7
  22917806.060    -7889528.64149  -6116082.29349  22917806.9714   22917811.7434
  21427958.769     1702883.30149   1332653.09049  21427958.8374   21427964.4934
  23759413.252    -6037228.47849  -4684548.49149  23759414.4554   23759422.3484
  20925305.250   -22160424.48249 -17251509.21849  20925304.6914   20925309.2604
  22957802.468   -10557430.40549  -7906286.44949  22957803.4544   22957809.0894
  21045854.989   -22515027.10249 -17273848.79149  21045855.6294   21045860.3894
  23622396.249    18059161.98149  14075281.77349  23622393.0774   23622401.1004
  19978091.050   -14094788.48449 -10965704.95549  19978091.2444   19978095.9514
 96  5 13 18 54 59.9970000  0  8 26  2  5  4 24  9 27  7
  22926522.267    -7843730.55749  -6080395.52449  22926522.6074   22926527.8944
  21433546.558     1732243.66149   1355531.25949  21433546.1834   21433551.8074
  23739903.965    -6139765.80049  -4764447.62949  23739900.9914   23739909.4284
  20906861.594   -22257337.64949 -17327025.93149  20906862.4064   20906867.2294
  22933434.248   -10685493.27749  -8006075.62649  22933434.2014   22933440.0734
  21029254.970   -22602262.77549 -17341824.61749  21029255.1514   21029259.9944
  23640655.825    18155116.29649  14150051.18249  23640653.1584   23640658.2124
  19982929.200   -14069363.15649 -10945893.02049  19982929.5104   19982933.8914
 96  5 13 18 55 29.9970000  0  8 26  2  5  4 24  9 27  7
  22935280.640    -7797701.98249  -6044529.14749  22935281.4744   22935287.4194
  21439170.083     1761794.17149   1378557.61049  21439169.9924   21439175.3154
  23720387.679    -6242312.55049  -4844354.10649  23720388.0154   23720395.4644
  20888494.704   -22353854.57549 -17402233.88749  20888495.6604   20888500.6294
  22909077.037   -10813486.37049  -8105810.42549  22909078.0384   22909084.4194
  21012724.399   -22689135.32349 -17409517.48949  21012723.7014   21012728.6354
  23658926.610    18251140.27849  14224874.89949  23658926.2744   23658933.0494
  19987817.328   -14043676.79349 -10925877.67949  19987817.6204   19987822.1384
 96  5 13 18 55 59.9970000  0  7 26  2  5  4 24  9  7
  22944083.963    -7751444.57249  -6008484.46949  22944084.5144   22944089.9954
  21444833.085     1791552.15149   1401745.61149  21444833.0204   21444838.0814
  23700873.955    -6344857.65349  -4924259.30449  23700874.0374   23700881.1374
  20870206.241   -22449964.29949 -17477124.54549  20870206.6524   20870211.5574
  22884742.042   -10941369.53449  -8205459.56049  22884743.5334   22884749.5844
  20996262.545   -22775627.10649 -17476913.66349  20996264.6144   20996269.8484
  19992762.006   -14017692.93449 -10905630.52349  19992762.0384   19992766.9394
 96  5 13 18 56 29.9970000  0  7 26  2  5  4 24  9  7
  22952920.779    -7705003.29149  -5972296.51349  22952920.8224   22952926.7964
  21450532.002     1821502.98149   1425083.88849  21450532.0484   21450537.2834
  23681352.868    -6447438.12649  -5004192.05649  23681354.2544   23681360.3244
  20851986.394   -22545703.83949 -17551726.74449  20851987.6174   20851993.1114
  22860421.780   -11069173.46349  -8305046.95249  22860422.6554   22860428.8134
  20979873.207   -22861765.88249 -17544034.76449  20979873.3394   20979878.2434
  19997758.053   -13991441.30449 -10885174.71549  19997757.5624   19997762.3204
 96  5 13 18 56 59.9970000  0  7 26  2  5  4 24  9  7
  22961784.598    -7658422.28049  -5935999.67249  22961785.0314   22961791.1964
  21456263.682     1851620.76849   1448552.26449  21456263.3014   21456268.3624
  23661817.449    -6550104.46649  -5084191.69549  23661816.1194   23661823.8074
  20833834.621   -22641095.24249 -17626057.66849  20833835.9094   20833840.5714
  22836111.432   -11196933.73449  -8404600.31949  22836110.8374   22836115.6994
  20963543.863   -22947579.66749 -17610902.63049  20963543.9204   20963548.6974
  20002794.839   -13964971.15649 -10864548.62849  20002795.0234   20002799.5614
 96  5 13 18 57 29.9970000  0  7 26  2  5  4 24  9  7
  22970689.369    -7611634.79849  -5899541.94849  22970688.6464   22970694.3974
  21462042.172     1881986.11149   1472213.54749  21462041.8344   21462046.7674
  23642276.957    -6652784.30849  -5164201.84949  23642277.5674   23642284.6134
  20815761.631   -22736069.22049 -17700063.32849  20815762.4114   20815767.9724
  22811821.587   -11324579.68149  -8504064.61349  22811820.1074   22811827.3114
  20947291.868   -23032980.04549 -17677448.36549  20947292.3084   20947297.0164
  20007884.699   -13938222.62749 -10843705.62449  20007884.8424   20007889.2864
 96  5 13 18 57 59.9970000  0  7 26  2  5  4 24  9  7
  22979637.685    -7564608.03649  -5862897.77049  22979637.9914   22979642.9584
  21467871.756     1912627.29449   1496089.76549  21467872.5724   21467877.4884
  23622740.671    -6755452.51649  -5244202.95149  23622740.6724   23622747.5174
  20797772.521   -22830600.56949 -17773724.08049  20797774.1404   20797779.2364
  22787557.135   -11452087.42849  -8603421.21249  22787556.4754   22787562.9364
  20931128.477   -23117930.38749 -17743643.42449  20931126.9794   20931131.7204
  20013028.909   -13911192.98849 -10822643.57749  20013028.2874   20013033.1284
 96  5 13 18 58 29.9970000  0  7 26  2  5  4 24  9  7
  22988612.470    -7517446.91949  -5826148.89349  22988611.9434   22988617.7024
  21473734.054     1943430.60749   1520092.31349  21473733.6294   21473738.9614
  23603185.166    -6858210.66549  -5324274.14749  23603185.7094   23603193.7914
  20779851.702   -22924781.01349 -17847111.40149  20779851.8094   20779857.2804
  22763297.193   -11579570.42249  -8702758.52749  22763296.6654   22763302.9324
  20915028.740   -23202525.60949 -17809561.75949  20915029.0174   20915033.9194
  20018202.973   -13883998.35449 -10801452.96649  20018203.5614   20018208.1204
 96  5 13 18 58 59.9970000  0  7 26  2  5  4 24  9  7
  22997618.442    -7470126.29349  -5789275.73149  22997616.6994   22997623.5114
  21479627.255     1974399.77749   1544224.10749  21479627.0054   21479632.3734
  23583620.161    -6961024.69149  -5404388.88249  23583620.0334   23583628.5404
  20762001.729   -23018572.31549 -17920195.49549  20762003.8454   20762008.9984
  22739046.388   -11706994.04549  -8802049.59149  22739048.3944   22739054.8224
  20899002.390   -23286744.22649 -17875186.63849  20899002.4964   20899007.4834
  20023416.901   -13856595.57649 -10780100.16449  20023417.8764   20023422.3454
 96  5 13 18 59 29.9970000  0  7 26  2  5  4 24  9  7
  23006659.257    -7422614.23549  -5752253.41249  23006657.6094   23006664.1834
  21485557.326     2005562.70849   1568506.87849  21485558.0514   21485562.8974
  23564050.848    -7063867.93049  -5484526.38449  23564051.7504   23564057.6434
  20744234.696   -23111949.42449 -17992956.84549  20744234.6974   20744239.8644
  22714817.946   -11834328.91749  -8901271.49449  22714818.3594   22714825.2784
  20883050.528   -23370567.92049 -17940503.78649  20883051.1654   20883056.1114
  20028679.039   -13828945.32149 -10758554.51549  20028679.7804   20028684.2034
 96  5 13 18 59 59.9970000  0  7 26  2  5  4 24  9  7
  23015734.124    -7374920.94049  -5715089.84849  23015733.8614   23015740.4524
  21491524.988     2036918.09549   1592939.60849  21491524.2694   21491529.5554
  23544475.238    -7166732.75749  -5564680.70849  23544477.4194   23544482.9254
  20726548.277   -23204891.02149 -18065378.83949  20726548.5564   20726553.4914
  22690602.721   -11961564.75349  -9000416.21649  22690605.7324   22690612.9884
  20867175.385   -23453993.39949 -18005510.62849  20867175.6604   20867180.7564
  20033990.315   -13801036.08349 -10736807.06649  20033990.6934   20033995.2434
 96  5 13 19  0 29.9970000  0  7 26  2  5  4 24  9  7
  23024842.642    -7327045.62549  -5677784.46949  23024844.2624   23024851.1534
  21497530.498     2068481.01449   1617534.07049  21497530.7634   21497535.4774
  23524896.365    -7269620.64949  -5644853.00249  23524897.1024   23524903.2814
  20708946.939   -23297380.32349 -18137448.39049  20708948.3864   20708953.0084
  22666412.813   -12088693.54749  -9099477.54049  22666413.5624   22666421.2784
  20851376.888   -23537011.72749 -18070200.21649  20851377.7334   20851382.3254
  20039355.820   -13772843.19449 -10714838.59049  20039355.7234   20039360.4124
 96  5 13 19  0 59.9970000  0  7 26  2  5  4 24  9  7
  23033987.002    -7279007.17149  -5640351.96549  23033986.3224   23033993.1164
  21503575.464     2100247.73449   1642287.33049  21503575.7224   21503580.0974
  23505309.758    -7372550.11849  -5725057.68649  23505309.6324   23505316.3744
  20691428.211   -23389441.28949 -18209184.17449  20691429.8004   20691434.4414
  22642237.862   -12215729.56549  -9198466.58049  22642240.0804   22642247.8364
  20835653.527   -23619641.97749 -18134587.41149  20835653.8654   20835658.8044
  20044767.579   -13744398.09249 -10692673.59049  20044768.3694   20044773.0254
 96  5 13 19  1 29.9970000  0  7 26  2  5  4 24  9  7
  23043151.357    -7230831.09549  -5602812.22149  23043153.7994   23043161.3304
  21509656.836     2132208.22149   1667191.58349  21509656.8064   21509662.2544
  23485708.870    -7475545.58449  -5805313.83949  23485710.6134   23485716.1114
  20673987.056   -23481097.53849 -18280604.59149  20673988.1084   20673992.7264
  22618080.816   -12342686.64449  -9297394.11149  22618080.1514   22618087.5764
  20820002.255   -23701891.91549 -18198678.24849  20820002.3764   20820006.8084
  20050218.849   -13715754.46849 -10670353.88649  20050219.1604   20050223.6394
 96  5 13 19  1 59.9970000  0  7 26  2  5  4 24  9  7
  23052349.717    -7182496.81249  -5565149.21849  23052351.8844   23052358.4354
  21515782.622     2164396.19149   1692273.09849  21515782.0444   21515787.4844
  23466107.235    -7578554.15349  -5885580.16449  23466109.1034   23466116.0894
  20656630.616   -23572305.40949 -18351675.63049  20656632.1044   20656636.8924
  22593945.096   -12469512.04249  -9396219.03149  22593946.6574   22593953.6744
  20804432.758   -23783710.49349 -18262432.96649  20804432.9774   20804437.6824
  20055714.983   -13686875.61849 -10647850.89849  20055714.9214   20055719.5734
 96  5 13 19  2 29.9970000  0  7 26  2  5  4 24  9  7
  23061581.128    -7133994.79949  -5527355.48249  23061581.3954   23061587.4984
  21521953.655     2196825.02449   1717542.29949  21521953.4804   21521958.9144
  23446503.895    -7681583.99149  -5965863.06749  23446503.1604   23446510.4074
  20639357.500   -23663077.23849 -18422406.89849  20639358.3434   20639363.5764
  22569838.051   -12596192.16149  -9494930.73949  22569839.2184   22569846.9294
  20788943.872   -23865104.68349 -18325856.98449  20788944.2724   20788948.9544
  20061252.430   -13657769.43549 -10625170.76049  20061253.4374   20061258.0904
 96  5 13 19  2 59.9970000  0  7 26  2  5  4 24  9  7
  23070841.466    -7085328.29649  -5489433.59349  23070841.9384   23070848.2394
  21528166.852     2229478.05349   1742986.18749  21528167.3964   21528171.7244
  23426891.156    -7784632.78349  -6046160.74649  23426892.6184   23426899.9504
  20622167.460   -23753411.50149 -18492797.19949  20622168.4604   20622173.8234
  22545758.978   -12722717.64949  -9593521.96649  22545762.3084   22545769.4004
  20773533.396   -23946088.95349 -18388961.58749  20773533.2304   20773537.8704
  20066833.154   -13628446.66649 -10602321.85149  20066833.1724   20066838.0964
 96  5 13 19  3 29.9970000  0  7 26  2  5  4 24  9  7
  23080134.427    -7036498.84849  -5451384.72749  23080133.1664   23080140.1514
  21534417.882     2262330.94249   1768585.80649  21534418.9654   21534423.8584
  23407281.076    -7887695.52649  -6126469.29349  23407281.0534   23407287.2934
  20605062.004   -23843299.11549 -18562839.46749  20605062.9124   20605068.1024
  22521712.059   -12849097.99849  -9692000.10049  22521712.5864   22521720.6664
  20758199.755   -24026667.58849 -18451750.10549  20758199.6534   20758204.2144
  20072457.354   -13598891.72549 -10579292.03949  20072457.4554   20072462.2574
 96  5 13 19  3 59.9970000  0  7 26  2  5  4 24  9  7
  23089453.216    -6987524.52649  -5413222.95849  23089454.2614   23089460.3554
  21540705.891     2295364.40449   1794326.12349  21540705.0364   21540709.8244
  23387663.805    -7990781.50549  -6206795.92349  23387664.6324   23387671.0784
  20588038.440   -23932759.65149 -18632548.94249  20588039.2124   20588044.5664
  22497684.451   -12975359.79849  -9790385.84949  22497686.9894   22497695.2054
  20742937.553   -24106866.41649 -18514242.67449  20742938.6674   20742942.8994
  20078124.826   -13569107.74149 -10556083.75049  20078125.3384   20078129.1124
 96  5 13 19  4 29.9970000  0  7 26  2  5  4 24  9  7
  23098802.613    -6938389.43549  -5374935.93549  23098803.3904   23098810.2584
  21547025.611     2328581.41949   1820209.48549  21547025.5044   21547030.2484
  23368041.160    -8093902.56349  -6287149.91349  23368041.5464   23368047.8504
  20571094.234   -24021803.98949 -18701934.11149  20571094.7584   20571099.3814
  22473680.076   -13101505.18249  -9888680.90049  22473681.4774   22473687.7494
  20727747.401   -24186693.25849 -18576445.38749  20727748.0964   20727752.3474
  20083834.315   -13539105.30749 -10532705.24449  20083834.5154   20083838.9414
 96  5 13 19  4 59.9970000  0  7 26  2  5  4 24  9  7
  23108189.370    -6889073.86549  -5336508.26949  23108189.4744   23108194.3994
  21553385.278     2362000.13949   1846250.02049  21553385.9654   21553390.5954
  23348419.065    -8197010.48449  -6367493.65549  23348420.8544   23348426.4404
  20554234.791   -24110402.15349 -18770971.61349  20554235.7714   20554240.2224
  22449702.523   -13227515.95749  -9986871.05649  22449703.7044   22449710.2074
  20712634.778   -24266111.14349 -18638329.43549  20712635.0854   20712639.9414
  20089592.439   -13508849.37049 -10509129.19849  20089592.0614   20089596.4654
 96  5 13 19  5 29.9970000  0  7 26  2  5  4 24  9  7
  23117605.446    -6839581.61249  -5297942.92749  23117607.0974   23117613.4214
  21559786.557     2395636.55249   1872460.18449  21559786.6544   21559792.0014
  23328802.497    -8300105.47049  -6447827.31949  23328801.4674   23328808.9994
  20537457.617   -24198568.62249 -18839672.73449  20537457.9394   20537462.6184
  22425749.988   -13353395.36249 -10084958.85549  22425748.7014   22425755.7234
  20697604.577   -24345100.84749 -18699879.83749  20697603.8444   20697608.3474
  20095396.383   -13478343.56449 -10485358.44749  20095397.0544   20095401.8034
 96  5 13 19  5 59.9970000  0  7 26  2  5  4 24  9  7
  23127053.549    -6789933.39649  -5259256.06349  23127054.4094   23127059.9414
  21566230.450     2429498.79549   1898846.33149  21566230.5384   21566235.4824
  23309179.368    -8403230.24749  -6528184.20049  23309178.6134   23309185.2164
  20520755.182   -24286338.01649 -18908064.45049  20520756.0664   20520761.0154
  22401818.817   -13479151.20949 -10182950.36849  22401817.4704   22401825.6534
  20682651.263   -24423673.66149 -18761105.39749  20682652.1874   20682656.3724
  20101244.035   -13447620.81849 -10461418.65149  20101243.4534   20101248.0584
 96  5 13 19  6 29.9970000  0  7 26  2  5  4 24  9  7
  23136532.793    -6740116.91849  -5220438.09049  23136532.9304   23136539.5394
  21572719.966     2463597.11749   1925416.41749  21572719.0264   21572724.0834
  23289548.952    -8506381.16349  -6608561.44949  23289548.8744   23289556.0424
  20504131.364   -24373693.19749 -18976133.39149  20504132.6344   20504138.1804
  22377912.790   -13604772.58749 -10280837.12349  22377913.7524   22377920.1594
  20667783.754   -24501804.40949 -18821986.48549  20667784.1974   20667788.3664
  20107133.176   -13416665.67549 -10437297.76849  20107134.0624   20107138.6114
 96  5 13 19  6 59.9960000  0  7 26  2  5  4 24  9  7
  23146048.094    -6690115.23149  -5181475.79649  23146047.8124   23146055.0564
  21579256.285     2497953.19949   1952187.35649  21579257.0394   21579262.3284
  23269923.549    -8609506.05949  -6688918.42249  23269923.9304   23269930.7944
  20487597.225   -24460576.95949 -19043834.99249  20487599.1984   20487604.5074
  22354034.057   -13730237.96949 -10378602.29849  22354038.2354   22354044.3964
  20653010.305   -24579439.08449 -18882481.01949  20653010.6704   20653015.3934
  20113075.654   -13385440.24349 -10412966.26349  20113075.9304   20113080.5114
 96  5 13 19  7 29.9960000  0  7 26  2  5  4 24  9  7
  23155595.130    -6639955.94949  -5142390.69549  23155593.4014   23155598.8804
  21585837.816     2532539.90849   1979138.02249  21585838.3654   21585843.9104
  23250295.834    -8712655.87349  -6769294.82149  23250296.4664   23250302.0794
  20471151.180   -24547010.90349 -19111186.08949  20471151.4294   20471156.1074
  22330185.072   -13855578.28049 -10476270.02049  22330187.0584   22330192.9264
  20638326.067   -24656599.57849 -18942606.05949  20638327.3054   20638332.0614
  20119061.589   -13353981.75149 -10388453.15949  20119062.4314   20119066.6894
 96  5 13 19  7 59.9960000  0  7 26  2  5  4 24  9  7
  23165159.485    -6589682.06949  -5103216.30449  23165160.7994   23165166.4034
  21592457.798     2567319.76649   2006239.17949  21592457.0874   21592462.6354
  23230657.088    -8815852.08449  -6849707.37649  23230657.2554   23230664.1894
  20454786.882   -24633003.96949 -19178193.64449  20454787.6794   20454792.1384
  22306353.857   -13980816.36149 -10573858.07049  22306354.5594   22306362.1244
  20623729.546   -24733315.31749 -19002384.54049  20623728.9484   20623734.1154
  20125085.745   -13322325.78949 -10363786.18149  20125086.2484   20125090.5984
 96  5 13 19  8 29.9960000  0  7 26  2  5  4 24  9  7
  23174750.488    -6539289.07849  -5063949.10049  23174749.9414   23174755.2594
  21599110.883     2602291.20549   2033489.61549  21599111.7864   21599117.7664
  23211019.758    -8919052.87749  -6930123.49449  23211019.0864   23211026.3014
  20438515.470   -24718513.10349 -19244824.11549  20438515.6184   20438520.3034
  22282547.039   -14105916.94449 -10671339.00249  22282548.6654   22282555.5374
  20609217.186   -24809571.36749 -19061804.82349  20609218.0784   20609222.8394
  20131149.627   -13290457.41549 -10338953.69149  20131150.4114   20131155.1144
 96  5 13 19  8 59.9960000  0  7 26  2  5  4 24  9  7
  23184354.213    -6488815.30049  -5024618.94649  23184355.5584   23184361.8314
  21605798.719     2637441.20949   2060879.18649  21605800.5114   21605806.0264
  23191372.161    -9022297.29549  -7010573.61249  23191372.5594   23191380.0024
  20422328.762   -24803567.45549 -19311100.20749  20422330.3024   20422335.2954
  22258766.260   -14230888.53049 -10768719.39549  22258767.6544   22258774.4074
  20594787.486   -24885404.11549 -19120895.25849  20594787.5004   20594792.2084
  20137246.812   -13258419.53149 -10313989.11649  20137247.1734   20137251.6454
 96  5 13 19  9 29.9960000  0  7 26  2  5  4 24  9  7
  23193979.698    -6438231.60849  -4985203.14649  23193980.7494   23193986.7864
  21612531.969     2672821.24349   2088448.01949  21612532.9234   21612539.1524
  23171717.066    -9125582.42149  -7091055.44049  23171718.2084   23171725.4804
  20406235.007   -24888145.88749 -19377005.44449  20406235.2774   20406240.0844
  22235017.743   -14355685.41249 -10865963.65949  22235018.9204   22235025.7024
  20580439.094   -24960803.21149 -19179647.78649  20580439.1644   20580443.9554
  20143378.857   -13226193.14849 -10288877.65949  20143379.4744   20143384.1744
 96  5 13 19  9 59.9960000  0  7 26  2  5  4 24  9  7
  23203628.602    -6387526.96449  -4945693.10749  23203629.7724   23203635.3454
  21619310.322     2708450.04149   2116210.68049  21619312.7104   21619318.8894
  23152057.977    -9228895.97849  -7171559.43449  23152057.8344   23152065.2554
  20390231.450   -24972239.38549 -19442532.81949  20390232.6954   20390237.5894
  22211305.306   -14480298.82949 -10963064.96249  22211305.3054   22211312.7994
  20566172.071   -25035770.49749 -19238063.84249  20566173.5314   20566178.0504
  20149550.928   -13193760.20649 -10263605.24949  20149551.2374   20149555.8074
 96  5 13 19 10 29.9960000  0  7 26  2  5  4 24  9  7
  23213296.752    -6336721.92549  -4906104.82749  23213298.0774   23213304.1564
  21626132.611     2744290.93849   2144138.61349  21626132.7154   21626138.9204
  23132386.122    -9332271.98049  -7252112.07749  23132386.5904   23132393.3104
  20374314.132   -25055880.29649 -19507707.51949  20374315.8414   20374321.5604
  22187618.756   -14604764.18549 -11060050.89849  22187620.0364   22187628.2454
  20551983.629   -25110340.95149 -19296170.67249  20551983.2344   20551987.4084
  20155756.826   -13161145.03349 -10238190.83549  20155757.6024   20155762.9794
 96  5 13 19 10 59.9960000  0  7 26  2  5  4 24  9  7
  23222982.912    -6285811.44549  -4866434.37749  23222985.9074   23222993.1594
  21632996.314     2780355.60449   2172240.91249  21632996.0404   21633000.9254
  23112703.059    -9435710.12249  -7332713.13949  23112703.8784   23112708.9294
  20358486.251   -25139062.06549 -19572524.44849  20358487.6624   20358492.4724
  22163960.448   -14729090.10949 -11156928.18349  22163962.8734   22163968.8154
  20537870.189   -25184500.46849 -19353957.29349  20537871.2804   20537875.6214
  20161999.082   -13128340.28449 -10212628.70649  20161999.9584   20162005.3264
 96  5 13 19 11 29.9960000  0  7 26  2  5  4 24  9  7
  23232696.172    -6234773.04749  -4826664.25249  23232698.3054   23232705.8104
  21639900.119     2816638.81549   2200513.50849  21639900.9624   21639905.7444
  23093013.795    -9539167.63949  -7413329.29449  23093015.3944   23093021.5924
  20342751.887   -25221748.15949 -19636955.14649  20342752.9374   20342757.8234
  22140331.593   -14853254.85549 -11253679.86749  22140334.3124   22140341.5564
  20523842.058   -25258220.59949 -19411401.53449  20523842.9144   20523847.3754
  20168283.845   -13095315.68749 -10186895.26149  20168285.0754   20168289.6484
 96  5 13 19 11 59.9960000  0  7 26  2  5  4 24  9  7
  23242436.230    -6183599.21949  -4786788.60549  23242436.5284   23242443.0794
  21646845.055     2853133.46249   2228950.86349  21646845.4134   21646850.7114
  23073329.756    -9642607.30549  -7493931.53649  23073331.4424   23073337.4404
  20327114.159   -25303924.21249 -19700988.40249  20327115.3734   20327120.2284
  22116739.622   -14977232.87349 -11350286.05949  22116742.1624   22116749.0814
  20509903.132   -25331469.27649 -19468478.40649  20509903.8544   20509908.4344
  20174613.746   -13062056.61049 -10160979.10949  20174614.2304   20174618.7364
 96  5 13 19 12 29.9960000  0  7 26  2  5  4 24  9  7
  23252186.618    -6132350.08249  -4746854.27749  23252188.9954   23252195.9804
  21653818.809     2889781.05949   2257507.39649  21653819.7554   21653824.8264
  23053641.371    -9746074.85249  -7574555.51549  23053642.3964   23053647.2794
  20311564.020   -25385644.86649 -19764666.80249  20311564.4314   20311569.5644
  22093176.100   -15101059.50249 -11446774.28949  22093178.0244   22093185.2814
  20496045.129   -25404292.04649 -19525223.40849  20496046.5774   20496050.4344
  20180975.592   -13028626.29849 -10134929.52249  20180975.8014   20180979.9974
 96  5 13 19 12 59.9960000  0  7 26  2  5  4 24  9  7
  23261957.875    -6081001.95949  -4706842.82749  23261959.6924   23261967.1424
  21660829.338     2926620.96449   2286213.77049  21660829.7554   21660834.7384
  23033954.920    -9849533.76049  -7655172.75949  23033955.0974   23033960.9374
  20296105.894   -25466875.08349 -19827963.04649  20296106.8324   20296111.5894
  22069651.710   -15224687.96949 -11543108.10549  22069652.2024   22069659.6604
  20482277.252   -25476651.50549 -19581607.38449  20482276.7204   20482280.9504
  20187373.516   -12994998.54949 -10108726.08749  20187374.2774   20187379.3014
 96  5 13 19 13 29.9960000  0  7 26  2  5  4 24  9  7
  23271751.076    -6029544.37249  -4666746.07949  23271752.3544   23271759.1704
  21667877.150     2963662.54749   2315077.31449  21667878.0974   21667883.8034
  23014269.610    -9952978.98149  -7735779.32949  23014269.9314   23014276.2674
  20280739.580   -25547625.36149 -19890885.31049  20280740.3154   20280745.2354
  22046162.945   -15348110.36849 -11639281.33749  22046166.0754   22046172.6734
  20468593.174   -25548553.72949 -19637635.07649  20468594.1774   20468598.3194
  20193810.232   -12961173.36349 -10082368.80749  20193810.8924   20193816.2524
 96  5 13 19 13 59.9960000  0  7 26  2  5  4 24  9  7
  23281560.858    -5978001.55249  -4626582.91249  23281559.6404   23281566.6744
  21674965.910     3000908.94549   2344100.43349  21674966.2084   21674971.6834
  22994578.925   -10056443.07149  -7816400.60549  22994580.3804   22994588.5154
  20265457.427   -25627930.76649 -19953460.92149  20265459.1054   20265463.5674
  22022712.748   -15471355.12549 -11735316.14549  22022713.2364   22022720.0624
  20454992.272   -25620028.74649 -19693329.88149  20454993.0174   20454997.0434
  20200280.061   -12927173.67149 -10055875.54249  20200280.7644   20200286.0384
 96  5 13 19 14 29.9960000  0  7 26  2  5  4 24  9  7
  23291383.005    -5926367.03049  -4586348.31049  23291386.3254   23291392.8734
  21682093.123     3038357.73449   2373281.27749  21682092.6244   21682097.8964
  22974883.002   -10159942.07249  -7897049.07649  22974884.6064   22974892.0514
  20250261.943   -25707783.28049 -20015683.63049  20250263.5014   20250268.2434
  21999291.039   -15594437.19949 -11831224.19349  21999291.3994   21999298.9544
  20441470.912   -25691082.85449 -19748696.71449  20441471.6994   20441476.1084
  20206783.326   -12892996.54949 -10029244.02249  20206784.4584   20206789.8724
 96  5 13 19 14 59.9960000  0  7 26  2  5  4 24  9  7
  23301228.040    -5874641.97349  -4546043.15149  23301229.7644   23301236.4194
  21689255.588     3076004.64449   2402616.50349  21689256.7074   21689262.8534
  22955184.048   -10263475.98449  -7977724.77749  22955183.6614   22955190.2644
  20235154.720   -25787173.31049 -20077545.96449  20235155.7744   20235161.0104
  21975895.610   -15717367.31549 -11927013.84849  21975898.9544   21975905.6744
  20428031.409   -25761708.07849 -19803729.34749  20428032.1614   20428036.8704
  20213323.646   -12858633.68049 -10002467.76949  20213323.7884   20213328.5624
 96  5 13 19 15 29.9960000  0  7 26  2  5  4 24  9  7
  23311088.056    -5822825.36049  -4505666.65249  23311089.2184   23311095.9194
  21696459.154     3113855.14349   2432110.37449  21696458.8654   21696464.7184
  22935473.539   -10367046.63949  -8058429.10449  22935474.7344   22935480.7274
  20220135.764   -25866098.77449 -20139046.29349  20220136.9704   20220141.7014
  21952532.989   -15840146.34849 -12022685.75049  21952534.9234   21952541.9644
  20414675.651   -25831893.29549 -19858419.11449  20414676.3824   20414680.9674
  20219899.201   -12824075.67049  -9975539.45349  20219899.9894   20219904.9774
 96  5 13 19 15 59.9960000  0  7 26  2  5  4 24  9  7
  23320963.876    -5770941.53049  -4465237.77749  23320961.8964   23320968.9304
  21703696.193     3151886.84049   2461745.42849  21703696.2474   21703702.3984
  22915755.497   -10470661.53749  -8139167.90549  22915758.2554   22915763.3864
  20205205.313   -25944559.14849 -20200184.22149  20205206.3924   20205211.1494
  21929198.755   -15962775.40149 -12118240.79549  21929199.9584   21929206.1344
  20401407.475   -25901623.32049 -19912754.18349  20401407.2064   20401411.5094
  20226511.452   -12789331.00049  -9948465.68549  20226511.9824   20226516.8104
 96  5 13 19 16 29.9960000  0  7 26  2  5  4 24  9  7
  23330849.227    -5718977.70649  -4424746.56249  23330851.5534   23330859.4644
  21710969.678     3190108.19449   2491528.26849  21710969.8464   21710975.7394
  22896037.345   -10574286.53449  -8219914.58949  22896037.6794   22896043.0044
  20190370.992   -26022515.92349 -20260929.73949  20190371.4594   20190376.2964
  21905896.407   -16085215.67349 -12213648.74249  21905898.7214   21905905.9404
  20388231.498   -25970854.05649 -19966700.20049  20388232.9434   20388237.4254
  20233161.640   -12754384.97949  -9921235.02249  20233161.5284   20233166.2784
 96  5 13 19 16 59.9960000  0  7 26  2  5  4 24  9  7
  23340748.584    -5666956.32249  -4384210.49649  23340749.9964   23340757.3724
  21718284.296     3228541.75149   2521476.45049  21718283.0144   21718289.4424
  22876315.242   -10677912.74749  -8300662.20649  22876319.1824   22876325.0584
  20175630.072   -26099977.43149 -20321289.33249  20175630.7434   20175636.2464
  21882635.393   -16207453.96449 -12308899.29749  21882638.7284   21882644.5644
  20375150.580   -26039596.36749 -20020265.62249  20375151.8634   20375156.4454
  20239848.040   -12719241.81649  -9893850.73449  20239849.3584   20239854.5004
 96  5 13 19 17 29.9960000  0  7 26  2  5  4 24  9  7
  23350657.935    -5614894.34749  -4343642.79149  23350657.0164   23350666.5994
  21725636.289     3267182.71949   2551586.26349  21725636.3134   21725643.0834
  22856593.135   -10781555.59749  -8381422.79149  22856596.0534   22856601.4454
  20160978.163   -26176968.73549 -20381282.53249  20160979.8604   20160984.7864
  21859414.445   -16329492.13349 -12403993.92449  21859414.6544   21859421.7594
  20362156.163   -26107879.79649 -20073473.47649  20362157.3864   20362162.1754
  20246568.929   -12683927.02049  -9866332.71349  20246569.5784   20246574.5934
 96  5 13 19 17 59.9960000  0  7 26  2  5  4 24  9  7
  23360572.067    -5562790.22449  -4303042.23749  23360572.7844   23360580.9174
  21733025.600     3306022.81049   2581851.23149  21733027.4554   21733033.5494
  22836870.696   -10885213.88449  -8462195.38549  22836869.9484   22836876.8944
  20146417.227   -26253489.11549 -20440908.77749  20146418.8724   20146423.1794
  21836226.405   -16451334.18649 -12498935.73449  21836228.6164   21836235.6114
  20349247.000   -26175722.07149 -20126337.57349  20349247.7084   20349252.5234
  20253319.599   -12648452.91049  -9838690.55249  20253319.8344   20253324.5804
 96  5 13 19 18 29.9960000  0  7 26  2  5  4 24  9  7
  23370488.467    -5510677.93349  -4262435.32849  23370489.7964   23370497.2454
  21740452.662     3345038.71449   2612253.20349  21740452.2834   21740457.6834
  22817131.618   -10988941.20349  -8543021.80349  22817131.8374   22817138.2034
  20131938.853   -26329572.02049 -20500194.13049  20131940.7864   20131945.4494
  21813069.759   -16573032.66849 -12593765.66449  21813071.2784   21813077.2244
  20336409.872   -26243185.00649 -20178906.08249  20336409.9744   20336414.7454
  20260091.980   -12612861.81049  -9810957.22349  20260092.7924   20260097.4874
 96  5 13 19 18 59.9960000  0  7 26  2  5  4 24  9  7
  23380417.651    -5458502.65649  -4221779.33849  23380417.5704   23380425.3864
  21747919.990     3384284.68849   2642834.45049  21747920.6884   21747926.4224
  22797385.781   -11092694.67949  -8623868.60549  22797386.7184   22797393.2524
  20117553.987   -26405171.43549 -20559102.74049  20117554.5574   20117559.0594
  21789946.366   -16694545.40549 -12688450.85349  21789947.2424   21789953.9254
  20323651.415   -26310229.39849 -20231148.44949  20323651.7664   20323656.6094
  20266896.980   -12577099.64849  -9783090.60349  20266898.0324   20266902.8894
 96  5 13 19 19 29.9960000  0  7 26  2  5  4 24  9  7
  23390359.063    -5406255.87649  -4181067.64549  23390360.1864   23390368.1404
  21755427.699     3423737.71549   2673577.03649  21755427.8154   21755434.1784
  22777638.306   -11196478.89849  -8704739.36849  22777637.6434   22777642.9314
  20103259.995   -26480278.95449 -20617628.05449  20103261.9894   20103266.9114
  21766858.234   -16815874.56549 -12782993.01349  21766859.8154   21766866.2814
  20310976.549   -26376834.30449 -20283048.36149  20310977.2024   20310982.1124
  20273734.101   -12541176.04549  -9755098.18949  20273734.1794   20273738.9784
 96  5 13 19 19 59.9960000  0  7 26  2  5  4 24  9  7
  23400312.252    -5353960.73749  -4140318.23849  23400311.9884   23400319.8904
  21762971.281     3463378.83449   2704466.17849  21762972.1384   21762978.2224
  22757878.597   -11300312.82149  -8785648.82949  22757879.0634   22757885.7704
  20089062.058   -26554889.20249 -20675765.88349  20089063.9254   20089069.2014
  21743802.612   -16937035.54149 -12877404.11449  21743803.4574   21743810.5664
  20298386.366   -26442998.44649 -20334604.81949  20298386.9224   20298391.5994
  20280597.847   -12505104.97449  -9726990.86649  20280598.5894   20280603.4234
 96  5 13 19 20 29.9960000  0  7 26  2  5  4 24  9  7
  23410266.502    -5301643.28249  -4099551.48549  23410267.3704   23410275.6094
  21770549.406     3503197.07049   2735493.34549  21770548.9124   21770554.1084
  22738109.977   -11404201.61849  -8866601.06849  22738109.9114   22738116.7784
  20074957.310   -26629010.37549 -20733522.61749  20074959.1604   20074964.3934
  21720776.328   -17058027.37049 -12971683.42049  21720779.3744   21720785.8214
  20285880.638   -26508712.04949 -20385810.20749  20285881.9324   20285886.7454
  20287486.943   -12468900.32249  -9698779.45449  20287487.8194   20287492.7394
 96  5 13 19 20 59.9960000  0  7 26  2  5  4 24  9  7
  23420225.416    -5249312.04449  -4058773.98749  23420226.6184   23420233.0064
  21778157.490     3543178.87649   2766647.95649  21778158.0914   21778162.9954
  22718330.769   -11508132.35449  -8947585.97449  22718331.3204   22718337.8574
  20060942.333   -26702660.26049 -20790912.11649  20060943.9164   20060948.9804
  21697786.334   -17178841.01849 -13065823.88549  21697789.6574   21697795.7974
  20273463.078   -26573969.39649 -20436660.07349  20273463.6654   20273468.4104
  20294396.944   -12432583.07449  -9670480.29449  20294398.4404   20294403.7304
 96  5 13 19 21 29.9960000  0  7 26  2  5  4 24  9  7
  23430186.024    -5196960.75449  -4017980.82949  23430187.9774   23430196.1734
  21785798.763     3583338.16849   2797940.87449  21785798.5554   21785804.3334
  22698547.451   -11612095.92349  -9028596.49549  22698548.8984   22698553.9404
  20047017.980   -26775835.73949 -20847931.94149  20047019.1414   20047024.0114
  21674831.705   -17299476.02049 -13159825.14149  21674833.2124   21674840.1834
  20261131.654   -26638763.80649 -20487149.20749  20261133.3754   20261138.4354
  20301327.951   -12396158.57149  -9642097.56749  20301330.0354   20301335.1854
 96  5 13 19 21 59.9960000  0  7 26  2  5  4 24  9  7
  23440152.565    -5144586.21749  -3977169.55849  23440153.6414   23440161.8054
  21793476.952     3623688.79149   2829382.88349  21793477.7684   21793483.5604
  22678760.463   -11716084.18649  -9109626.22649  22678759.9204   22678765.5044
  20033185.261   -26848527.95849 -20904575.20449  20033186.6704   20033191.3524
  21651911.725   -17419927.75149 -13253683.58649  21651911.7764   21651918.9594
  20248891.594   -26703094.73549 -20537277.19649  20248892.1004   20248896.8254
  20308282.604   -12359619.69249  -9613625.72049  20308283.0724   20308288.0594
 96  5 13 19 22 29.9960000  0  7 26  2  5  4 24  9  7
  23450129.607    -5092161.00249  -3936318.82949  23450131.4194   23450138.5044
  21801197.001     3664259.45249   2860996.34149  21801198.1664   21801204.0284
  22658973.386   -11820061.21649  -9190647.22349  22658972.8794   22658979.4544
  20019446.646   -26920724.02449 -20960831.85249  20019447.8404   20019453.3364
  21629028.291   -17540176.28549 -13347383.69949  21629029.1454   21629035.8774
  20236742.223   -26766935.24449 -20587023.03649  20236743.8584   20236748.3244
  20315261.280   -12322940.60749  -9585044.62549  20315262.8224   20315268.1094
 96  5 13 19 22 59.9960000  0  7 26  2  5  4 24  9  7
  23460112.235    -5039702.44449  -3895442.10049  23460113.9974   23460121.0884
  21808953.734     3705025.98549   2892762.43049  21808955.5314   21808961.5554
  22639183.165   -11924058.44049  -9271683.94249  22639182.9614   22639190.0924
  20005797.185   -26992450.09149 -21016722.27049  20005799.1504   20005803.8064
  21606179.455   -17660241.64749 -13440941.07849  21606181.3254   21606187.8684
  20224680.761   -26830320.34049 -20636414.01649  20224681.9884   20224686.6154
  20322265.664   -12286136.42849  -9556366.05749  20322266.3074   20322271.7604
 96  5 13 19 23 29.9960000  0  7 26  2  5  4 24  9  7
  23470094.547    -4987236.67949  -3854559.78049  23470097.4304   23470106.4084
  21816745.476     3745971.27849   2924667.80349  21816746.5314   21816751.9314
  22619381.670   -12028104.64449  -9352758.83249  22619384.0924   22619390.5924
  19992239.804   -27063699.32549 -21072241.12449  19992240.7704   19992245.5264
  21583369.734   -17780115.64649 -13534349.35649  21583370.1074   21583375.8154
  20212704.853   -26893254.13549 -20685453.32349  20212706.1564   20212710.7324
  20329296.744   -12249193.14549  -9527579.09249  20329296.5994   20329301.5654
 96  5 13 19 23 59.9960000  0  7 26  2  5  4 24  9  7
  23480081.379    -4934753.57549  -3813663.92449  23480084.1504   23480091.9704
  21824573.889     3787105.44449   2956720.35849  21824574.4224   21824580.1934
  22599580.552   -12132182.28349  -9433858.22449  22599579.1164   22599584.8234
  19978777.193   -27134439.63949 -21127363.42449  19978778.7044   19978784.0644
  21560600.092   -17899760.15949 -13627578.79949  21560602.6764   21560609.4174
  20200821.171   -26955707.92149 -20734118.59749  20200821.3094   20200825.9454
  20336357.128   -12212082.85449  -9498661.99149  20336358.6464   20336363.3264
 96  5 13 19 24 29.9960000  0  7 26  2  5  4 24  9  7
  23490070.970    -4882266.20349  -3772764.74649  23490071.6204   23490080.1164
  21832434.329     3828411.10849   2988906.53949  21832435.4824   21832440.2294
  22579762.999   -12236312.97149  -9514998.93549  22579763.2424   22579769.7054
  19965409.741   -27204687.12449 -21182101.69849  19965411.3514   19965416.5784
  21537876.071   -18019174.48849 -13720628.88349  21537878.4314   21537884.2544
  20189024.446   -27017697.62849 -20782422.25349  20189024.9454   20189029.5724
  20343448.379   -12174818.99649  -9469625.23249  20343449.3764   20343454.0464
 96  5 13 19 24 59.9960000  0  7 26  2  5  4 24  9  7
  23500055.037    -4829795.63849  -3731878.67549  23500057.4364   23500066.3874
  21840324.902     3869876.22749   3021216.98249  21840325.5584   21840331.4984
  22559933.200   -12340520.01249  -9596199.15849  22559933.2164   22559939.9734
  19952135.207   -27274444.54149 -21236458.09349  19952137.0224   19952142.0064
  21515196.200   -18138358.15749 -13813499.23549  21515198.9824   21515204.7234
  20177312.639   -27079239.79749 -20830377.17649  20177313.9584   20177318.2614
  20350565.356   -12137425.31049  -9440487.30849  20350565.2224   20350570.2934
 96  5 13 19 25 29.9960000  0  7 26  2  5  4 24  9  7
  23510040.176    -4777327.45649  -3690994.44849  23510042.6524   23510050.4424
  21848252.099     3911533.33749   3053677.03649  21848252.2514   21848258.7754
  22540095.280   -12444774.35149  -9677436.23949  22540094.3874   22540101.4624
  19938959.906   -27343682.66849 -21290409.85449  19938961.7294   19938966.1494
  21492563.442   -18257297.15749 -13906178.92549  21492565.6224   21492571.5724
  20165692.836   -27140303.57549 -20877959.32649  20165694.2414   20165698.5164
  20357707.917   -12099885.31749  -9411235.37749  20357708.7354   20357714.0484
 96  5 13 19 25 59.9960000  0  7 26  2  5  4 24  9  7
  23520023.297    -4724862.21049  -3650112.50749  23520025.7584   23520033.9974
  21856215.299     3953380.86249   3086285.45449  21856215.4684   21856222.6024
  22520246.713   -12549066.88849  -9758703.08049  22520248.1874   22520254.8444
  19925880.702   -27412417.93849 -21343969.77949  19925881.9124   19925886.2764
  21469972.523   -18376021.51349 -13998691.36349  21469972.4144   21469978.2974
  20154161.540   -27200906.60449 -20925182.45749  20154161.5844   20154165.6994
  20364873.336   -12062230.41449  -9381893.90449  20364874.0174   20364879.8144
 96  5 13 19 26 29.9960000  0  7 26  2  5  4 24  9  7
  23530005.863    -4672418.69649  -3609247.49049  23530005.1204   23530012.9174
  21864211.785     3995405.73749   3119032.05649  21864213.2334   21864219.6824
  22500392.639   -12653406.33449  -9840006.47949  22500393.6884   22500399.5204
  19912890.906   -27480677.32049 -21397158.87849  19912892.6204   19912896.9824
  21447415.617   -18494555.53749 -14091055.50349  21447416.4614   21447421.7624
  20142711.345   -27261074.89749 -20972066.83049  20142711.9124   20142716.4224
  20372058.180   -12024473.98849  -9352473.32249  20372059.1394   20372064.5604
 96  5 13 19 26 59.9960000  0  7 26  2  5  4 24  9  7
  23539978.556    -4620002.18849  -3568403.54449  23539981.3084   23539987.2744
  21872246.321     4037618.72949   3151925.25649  21872246.4664   21872252.7544
  22480534.496   -12757764.22149  -9921324.26049  22480535.2084   22480540.6014
  19899993.167   -27548456.55449 -21449973.83049  19899994.6294   19899999.2804
  21424897.484   -18612891.75649 -14183265.50149  21424897.8984   21424903.7604
  20131346.738   -27320794.76649 -21018601.78549  20131347.6094   20131352.2634
  20379265.649   -11986600.13049  -9322961.23149  20379266.4344   20379271.3304
 96  5 13 19 27 29.9960000  0  7 26  2  5  4 24  9  7
  23549952.006    -4567603.35649  -3527573.36049  23549952.2874   23549957.4214
  21880313.164     4080016.09349   3184962.11949  21880314.2134   21880320.0304
  22460675.343   -12862127.46349 -10002646.19849  22460675.1694   22460681.2374
  19887186.736   -27615749.76949 -21502410.07149  19887188.6824   19887193.7784
  21402417.883   -18731021.79149 -14275314.83649  21402418.9704   21402424.7134
  20120069.891   -27380053.54849 -21064777.45249  20120070.9844   20120075.4744
  20386497.430   -11948595.42949  -9293347.19049  20386498.6524   20386503.4894
 96  5 13 19 27 59.9960000  0  7 26  2  5  4 24  9  7
  23559920.997    -4515212.72749  -3486749.59349  23559922.6814   23559928.1224
  21888415.736     4122594.59149   3218140.12449  21888417.2724   21888423.3104
  22440814.633   -12966487.30349 -10083965.47949  22440816.1594   22440822.6314
  19874476.590   -27682543.05849 -21554456.75849  19874478.3174   19874482.7164
  21379980.585   -18848926.93549 -14367188.92149  21379981.8994   21379988.6334
  20108881.986   -27438841.53249 -21110586.26449  20108884.1504   20108888.6144
  20393755.793   -11910457.33449  -9263629.20649  20393755.7834   20393760.9024
 96  5 13 19 28 29.9960000  0  7 26  2  5  4 24  9  7
  23569884.364    -4462838.99149  -3445938.95149  23569887.9844   23569894.4104
  21896549.552     4165336.44949   3251445.42249  21896550.3354   21896555.8314
  22420954.337   -13070860.12649 -10165294.90049  22420954.9094   22420961.2854
  19861859.330   -27748849.49049 -21606124.07149  19861860.6744   19861865.5644
  21357586.069   -18966607.38449 -14458887.93149  21357587.9774   21357594.4764
  20097787.483   -27497149.69949 -21156021.19449  20097788.3514   20097793.0354
  20401036.832   -11872188.67049  -9233809.47649  20401037.6934   20401042.8114
 96  5 13 19 28 59.9960000  0  7 26  2  5  4 24  9  7
  23579846.555    -4410500.53549  -3405155.82349  23579847.3604   23579855.1574
  21904713.421     4208229.53649   3284868.56049  21904712.0574   21904718.3044
  22401085.101   -13175274.28249 -10246656.52049  22401084.5714   22401090.4824
  19849332.032   -27814679.22649 -21657419.94049  19849333.8924   19849338.5394
  21335235.620   -19084070.75849 -14550417.78349  21335235.9594   21335242.2184
  20086781.608   -27554985.63849 -21201088.15649  20086782.5854   20086787.2494
  20408337.202   -11833825.11949  -9203915.80849  20408338.2614   20408343.3404
 96  5 13 19 29 29.9960000  0  7 26  2  5  4 24  9  7
  23589810.588    -4358139.49249  -3364355.08349  23589812.0364   23589817.9784
  21912912.680     4251328.61449   3318452.20649  21912913.9334   21912919.0294
  22381215.363   -13279688.00449 -10328017.80449  22381215.4254   22381221.7154
  19836908.691   -27879965.12249 -21708292.02749  19836910.4334   19836915.1184
  21312930.401   -19201276.00349 -14641746.49649  21312932.9004   21312938.7684
  20075874.173   -27612304.65449 -21245752.31949  20075874.9684   20075879.6494
  20415661.742   -11795332.62249  -9173921.66749  20415663.4784   20415668.5354
 96  5 13 19 29 59.9960000  0  7 26  2  5  4 24  9  7
  23599771.548    -4305785.25649  -3323559.65049  23599773.0114   23599780.3944
  21921150.972     4294619.18249   3352185.07049  21921152.0684   21921158.0734
  22361339.056   -13384131.83349 -10409402.54149  22361340.4994   22361346.3544
  19824581.826   -27944743.13249 -21758768.35949  19824583.4134   19824588.0684
  21290670.634   -19318253.53549 -14732897.77849  21290672.2054   21290678.2074
  20065058.969   -27669140.93949 -21290040.32849  20065059.5564   20065063.9614
  20423006.416   -11756741.06149  -9143850.32649  20423007.3344   20423011.9784
 96  5 13 19 30 29.9960000  0  7 26  2  5  4 24  9  7
  23609730.471    -4253446.41749  -3282776.23549  23609732.9254   23609740.3004
  21929425.166     4338101.25149   3386067.14949  21929427.2144   21929431.9244
  22341457.344   -13488612.06449 -10490815.64549  22341457.4974   22341464.6964
  19812350.851   -28009016.40549 -21808851.39149  19812352.5934   19812357.1404
  21268453.344   -19435004.67749 -14823872.65449  21268454.5974   21268460.8354
  20054332.151   -27725505.87149 -21333961.05249  20054333.7234   20054338.2324
  20430367.878   -11718053.79249  -9113704.40749  20430368.9044   20430373.5484
 96  5 13 19 30 59.9960000  0  7 26  2  5  4 24  9  7
  23619685.779    -4201131.68549  -3242011.61249  23619688.7504   23619697.8414
  21937739.483     4381793.13749   3420112.72949  21937740.3034   21937746.7414
  22321569.154   -13593120.52849 -10572250.73149  22321572.0804   22321577.1224
  19800220.298   -28072757.35249 -21858519.62749  19800222.6704   19800227.6794
  21246281.296   -19551519.95949 -14914663.75149  21246282.3174   21246288.8234
  20043694.406   -27781411.21749 -21377523.65049  20043695.1444   20043699.6524
  20437749.807   -11679261.54849  -9083476.69549  20437751.0174   20437756.0574
 96  5 13 19 31 29.9960000  0  7 26  2  5  4 24  9  7
  23629635.710    -4148858.83349  -3201279.60049  23629636.7414   23629646.1464
  21946087.558     4425656.83749   3454292.19049  21946088.1994   21946093.6404
  22301672.680   -13697678.90249 -10653724.73649  22301674.0254   22301679.2354
  19788188.008   -28135991.37049 -21907792.85449  19788189.5994   19788194.8034
  21224147.527   -19667827.92049 -15005293.29549  21224150.0874   21224156.4584
  20033140.080   -27836874.38349 -21420741.70249  20033141.0344   20033145.7564
  20445147.833   -11640383.86549  -9053182.41349  20445148.9204   20445154.2864
 96  5 13 19 31 59.9960000  0  7 26  2  5  4 24  9  7
  23639571.315    -4096647.51449  -3160595.54949  23639573.4094   23639580.0684
  21954462.556     4469669.63949   3488587.81149  21954463.1794   21954469.2754
  22281763.824   -13802305.32049 -10735251.75549  22281764.2424   22281769.8004
  19776244.662   -28198750.19349 -21956695.80349  19776247.0654   19776252.0184
  21202052.733   -19783931.89649 -15095763.88949  21202054.9074   21202062.1934
  20022670.292   -27891891.65649 -21463612.29549  20022671.6084   20022675.9784
  20452561.497   -11601426.57749  -9022826.09549  20452562.4374   20452567.7854
 96  5 13 19 32 29.9960000  0  7 26  2  5  4 24  9  7
  23649497.784    -4044475.32349  -3119941.99349  23649500.5944   23649508.7694
  21962868.242     4513846.10149   3523010.97049  21962869.1594   21962875.6094
  22261845.640   -13906971.08949 -10816809.45049  22261846.7934   22261852.9784
  19764402.472   -28260992.36949 -22005196.17049  19764403.1934   19764407.8654
  21180001.063   -19899810.92049 -15186059.20349  21180004.2434   21180011.4314
  20012292.412   -27946430.31249 -21506109.94849  20012292.9704   20012297.2354
  20459995.298   -11562362.54649  -8992386.60549  20459996.3604   20460001.1954
 96  5 13 19 32 59.9960000  0  7 26  2  5  4 24  9  7
  23659418.324    -3992348.07549  -3079323.46249  23659419.9994   23659428.9814
  21971306.684     4558191.00749   3557565.39949  21971308.0094   21971314.6294
  22241925.648   -14011665.55549 -10898389.48549  22241925.0934   22241930.3104
  19752654.606   -28322723.85849 -22053298.59749  19752655.6674   19752660.8874
  21157995.757   -20015467.33949 -15276181.05549  21157996.1204   21158003.0714
  20002006.442   -28000480.11649 -21548226.67149  20002007.7274   20002012.1484
  20467448.547   -11523196.12849  -8961867.32849  20467449.5844   20467454.4154
 96  5 13 19 33 29.9960000  0  7 26  2  5  4 24  9  7
  23669320.147    -3940304.78549  -3038770.33649  23669323.4664   23669330.6484
  21979771.003     4602668.32349   3592222.99449  21979771.6054   21979777.5174
  22221987.208   -14116418.01549 -10980014.72749  22221991.2334   22221997.0164
  19740995.824   -28383989.81049 -22101038.27349  19740997.4204   19741002.1954
  21136022.067   -20130929.41949 -15366151.47549  21136024.8534   21136030.3614
  19991809.163   -28054067.78849 -21589983.29449  19991810.2064   19991814.8174
  20474913.862   -11483962.19849  -8931295.45149  20474915.6264   20474920.6604
 96  5 13 19 33 59.9960000  0  7 26  2  5  4 24  9  7
  23679209.613    -3888347.19949  -2998284.02349  23679210.3724   23679217.1434
  21988267.344     4647314.81849   3627012.43649  21988267.9394   21988275.1314
  22202051.255   -14221198.61949 -11061661.87749  22202051.4024   22202058.0414
  19729432.128   -28444758.55149 -22148390.50749  19729433.6314   19729437.9954
  21114094.956   -20246164.92949 -15455945.33149  21114095.9114   21114102.1084
  19981701.424   -28107186.22849 -21631374.27549  19981702.4264   19981706.5444
  20482399.156   -11444631.40949  -8900648.08849  20482400.0074   20482404.4344
 96  5 13 19 34 29.9960000  0  7 26  2  5  4 24  9  7
  23689095.401    -3836393.86149  -2957800.98549  23689096.4684   23689102.8884
  21996814.654     4692231.32949   3662012.26549  21996814.5954   21996821.9614
  22182124.863   -14325904.25449 -11143250.62749  22182126.3714   22182133.1934
  19717982.933   -28504926.10249 -22195274.29049  19717983.9364   19717988.4304
  21092228.256   -20361072.50749 -15545483.67349  21092229.7194   21092236.2964
  19971697.663   -28159755.78149 -21672337.56349  19971698.6064   19971703.2704
  20489917.759   -11405120.87849  -8869860.67249  20489918.9124   20489923.3784
 96  5 13 19 34 59.9960000  0  7 26  2  5  4 24  9  7
  23698972.493    -3784492.03549  -2917358.10049  23698974.6614   23698981.1764
  22005406.543     4737381.55749   3697194.21949  22005407.9644   22005413.4584
  22162209.953   -14430568.36749 -11224807.01949  22162210.6804   22162215.9034
  19706637.718   -28564543.09049 -22241729.05749  19706639.4044   19706643.5314
  21070422.481   -20475668.50349 -15634779.22449  21070423.0784   21070428.8514
  19961791.922   -28211810.74749 -21712899.86749  19961793.1514   19961797.4954
  20497461.152   -11365484.57349  -8838975.25449  20497461.3584   20497466.1654
 96  5 13 19 35 29.9960000  0  7 26  2  5  4 24  9  7
  23708835.270    -3732657.63549  -2876967.77249  23708837.7254   23708846.7714
  22014036.528     4782730.48749   3732531.00449  22014036.5594   22014042.9174
  22142293.384   -14535225.10849 -11306357.66849  22142294.4324   22142300.4334
  19695393.549   -28623635.67149 -22287775.19349  19695394.1514   19695398.5824
  21048671.132   -20589969.07449 -15723844.56449  21048672.4174   21048678.5644
  19951979.806   -28263377.69849 -21753081.90549  19951979.8624   19951984.5794
  20505021.302   -11325755.35049  -8808017.43149  20505021.5904   20505026.1454
 96  5 13 19 35 59.9960000  0  7 26  2  5  4 24  9  7
  23718695.236    -3680845.63349  -2836594.88549  23718696.0394   23718703.8504
  22022708.435     4828299.86349   3768039.56349  22022708.5774   22022714.2294
  22122385.352   -14639844.91149 -11387879.53249  22122385.6094   22122390.7224
  19684252.252   -28682180.41749 -22333394.45149  19684253.3344   19684257.7234
  21026981.285   -20703945.60249 -15812657.40549  21026983.3594   21026989.4024
  19942264.699   -28314422.81549 -21792857.31749  19942266.2494   19942271.1004
  20512602.529   -11285915.01449  -8776973.02349  20512602.5724   20512607.4704
 96  5 13 19 36 29.9960000  0  7 26  2  5  4 24  9  7
  23728564.163    -3628994.65049  -2796191.60449  23728564.0424   23728572.9454
  22031427.142     4874124.57449   3803747.08149  22031428.3464   22031433.8394
  22102493.092   -14744382.16149 -11469337.07849  22102493.3724   22102499.3544
  19673226.576   -28740119.38249 -22378541.67049  19673227.9244   19673232.3214
  21005364.540   -20817546.49849 -15901177.54849  21005365.6864   21005372.0734
  19932664.296   -28364884.34949 -21832177.99249  19932663.9254   19932668.1444
  20520212.653   -11245924.70849  -8745811.76249  20520212.4814   20520217.2054
 96  5 13 19 36 59.9960000  0  6  2  5  4 24  9  7
  22040192.811     4920182.85849   3839636.58949  22040194.2354   22040199.1984
  22082610.285   -14848860.65249 -11550748.83249  22082611.7994   22082616.8614
  19662314.443   -28797460.66349 -22423223.17749  19662316.2034   19662320.6144
  20983814.772   -20930792.32649 -15989421.01149  20983815.4034   20983822.0464
  19923169.765   -28414775.97049 -21871054.58749  19923170.2084   19923174.1534
  20527848.964   -11205788.36049  -8714536.70149  20527850.4004   20527854.9444
 96  5 13 19 37 29.9960000  0  6  2  5  4 24  9  7
  22049002.095     4966472.46949   3875706.36849  22049001.9324   22049008.3194
  22062738.093   -14953293.45749 -11632125.00549  22062739.1264   22062743.2774
  19651519.530   -28854193.11549 -22467430.26049  19651520.8644   19651524.9654
  20962330.378   -21043690.52349 -16077393.59149  20962331.7784   20962337.8104
  19913780.481   -28464110.95149 -21909497.42949  19913781.7174   19913786.1154
  20535519.690   -11165483.82549  -8683130.58849  20535520.1374   20535524.9444
 96  5 13 19 37 59.9960000  0  6  2  5  4 24  9  7
  22057852.654     5012985.95449   3911950.58149  22057853.3974   22057859.1804
  22042869.128   -15057701.04249 -11713481.50349  22042870.8634   22042876.0574
  19640838.707   -28910319.06249 -22511164.74049  19640840.0854   19640844.6384
  20940909.879   -21156256.37049 -16165107.20649  20940911.5804   20940917.6674
  19904497.248   -28512896.29749 -21947511.98249  19904498.2204   19904502.4584
  20543223.022   -11125007.62849  -8651590.71249  20543222.5134   20543227.2694
 96  5 13 19 38 29.9960000  0  6  2  5  4 24  9  7
  22066740.405     5059689.14049   3948342.62449  22066741.0454   22066746.9084
  22022997.379   -15162126.63849 -11794852.04949  22022998.9704   22023005.2824
  19630267.553   -28965874.67849 -22554454.81349  19630268.4034   19630272.8614
  20919547.507   -21268516.61349 -16252582.67949  20919548.7484   20919555.4224
  19895312.296   -28561171.69549 -21985129.17649  19895311.8404   19895315.8994
  20550951.029   -11084390.35249  -8619940.89649  20550951.8054   20550956.6014
 96  5 13 19 38 59.9960000  0  6  2  5  4 24  9  7
  22075672.586     5106622.97949   3984914.38549  22075672.9064   22075678.3764
  22003129.584   -15266538.64849 -11876212.00149  22003129.4314   22003134.9694
  19619805.879   -29020849.03649 -22597291.95549  19619807.0534   19619811.4784
  20898249.668   -21380438.36649 -16339794.39049  20898251.0824   20898257.0694
  19886226.099   -28608912.93549 -22022330.13549  19886226.7914   19886231.1034
  20558716.033   -11043588.97049  -8588147.62249  20558715.9814   20558720.8024
 96  5 13 19 39 29.9960000  0  6  2  5  4 24  9  7
  22084637.501     5153742.67949   4021630.97549  22084638.9984   22084644.9464
  21983252.932   -15370997.48249 -11957608.45349  21983252.0914   21983257.5334
  19609444.397   -29075298.19249 -22639719.85149  19609445.4964   19609450.2414
  20877005.762   -21492071.44449 -16426781.17149  20877007.8204   20877013.9604
  19877231.696   -28656178.15549 -22059160.17749  19877232.5614   19877236.8434
  20566501.004   -11002677.45849  -8556268.53949  20566501.0884   20566506.0264
 96  5 13 19 39 59.9960000  0  6  2  5  4 24  9  7
  22093654.293     5201122.25549   4058550.06449  22093655.4094   22093660.8374
  21963381.569   -15475417.36049 -12038974.53449  21963380.9414   21963386.9874
  19599196.251   -29129150.43249 -22681682.60849  19599197.5514   19599202.0734
  20855831.630   -21603343.82049 -16513486.86949  20855832.9344   20855839.2504
  19868343.915   -28702882.13949 -22095552.88349  19868345.0114   19868349.2574
  20574315.336   -10961611.61749  -8524269.19849  20574315.6114   20574320.9314
 96  5 13 19 40 29.9960000  0  6  2  5  4 24  9  7
  22102711.351     5248711.65549   4095632.64949  22102710.1514   22102716.9074
  21943512.361   -15579824.80549 -12120330.92949  21943513.2554   21943518.6064
  19589054.080   -29182449.41349 -22723214.26249  19589055.2554   19589059.8954
  20834718.243   -21714295.01249 -16599942.30449  20834719.4164   20834725.3594
  19859555.957   -28749067.47649 -22131541.45849  19859556.2374   19859560.6144
  20582148.406   -10920447.74049  -8492193.46149  20582148.7454   20582154.0344
 96  5 13 19 40 59.9960000  0  6  2  5  4 24  9  7
  22111820.497     5296589.87049   4132940.28649  22111821.1324   22111827.6724
  21923663.527   -15684139.35449 -12201614.93049  21923663.1674   21923667.4084
  19579034.608   -29235103.95949 -22764243.75949  19579035.6744   19579040.3324
  20813680.707   -21824850.32349 -16686089.25749  20813681.9704   20813687.0564
  19850882.075   -28794644.22349 -22167055.80149  19850883.0144   19850887.9414
  20590012.501   -10879119.00049  -8459989.25449  20590013.2374   20590018.6914
 96  5 13 19 41 29.9950000  0  6  2  5  4 24  9  7
  22120975.871     5344700.74949   4170429.24049  22120976.4634   22120982.8534
  21903822.535   -15788398.80749 -12282856.00949  21903823.1604   21903828.4954
  19569129.083   -29287159.05349 -22804806.14449  19569129.9864   19569134.3354
  20792707.045   -21935065.22349 -16771970.95449  20792708.6674   20792714.5854
  19842319.209   -28839646.17449 -22202122.25349  19842319.7354   19842324.2594
  20597894.529   -10837694.72749  -8427710.61549  20597896.4274   20597901.5704
 96  5 13 19 41 59.9950000  0  6  2  5  4 24  9  7
  22130181.199     5393073.29749   4208122.07149  22130181.7514   22130188.3094
  21884001.865   -15892558.29149 -12364019.20149  21884001.6024   21884006.7774
  19559339.631   -29338601.82849 -22844891.40949  19559340.5504   19559344.7414
  20771803.171   -22044911.04649 -16857565.05949  20771805.5204   20771811.9574
  19833873.025   -28884028.91349 -22236706.20749  19833873.9554   19833878.3294
  20605804.708   -10796127.39649  -8395320.49949  20605806.0364   20605811.3854
 96  5 13 19 42 29.9950000  0  6  2  5  4 24  9  7
  22139416.827     5441604.29749   4245938.35649  22139417.1864   22139423.1594
  21864180.319   -15996720.39949 -12445184.44049  21864180.4464   21864185.5704
  19549647.071   -29389536.40749 -22884580.66649  19549648.0224   19549652.2864
  20750953.008   -22154486.28649 -16942948.31949  20750954.3424   20750960.6994
  19825526.294   -28927891.64949 -22270884.95749  19825527.1284   19825531.5384
  20613724.106   -10754515.94749  -8362895.99949  20613724.3084   20613729.6654
 96  5 13 19 42 59.9950000  0  6  2  5  4 24  9  7
  22148699.918     5490390.82349   4283953.75349  22148701.5354   22148707.0554
  21844372.979   -16100800.00049 -12526285.37649  21844374.0974   21844379.7284
  19540068.482   -29439869.36149 -22923801.13549  19540069.8164   19540074.1354
  20730170.040   -22263702.19649 -17028051.58049  20730171.1824   20730177.4264
  19817293.350   -28971159.65049 -22304600.28649  19817293.6524   19817297.7494
  20621666.065   -10712781.96149  -8330376.02849  20621666.1604   20621671.5734
 96  5 13 19 43 29.9950000  0  6  2  5  4 24  9  7
  22158037.043     5539458.09849   4322187.91449  22158038.8764   22158044.7484
  21824590.857   -16204766.11949 -12607297.88249  21824591.0634   21824596.2054
  19530608.889   -29489578.49249 -22962535.50149  19530610.4894   19530614.7794
  20709459.264   -22372535.39249 -17112856.62449  20709461.0404   20709467.1454
  19809176.302   -29013817.43649 -22337840.12649  19809176.2594   19809180.1384
  20629638.053   -10670887.49549  -8297731.00249  20629638.6434   20629643.9464
 96  5 13 19 43 59.9950000  0  6  2  5  4 24  9  7
  22167416.518     5588739.07249   4360588.60049  22167417.1174   22167423.8054
  21804814.094   -16308688.55549 -12688276.35149  21804814.9574   21804820.2604
  19521258.937   -29538718.25249 -23000826.19649  19521259.6294   19521264.1404
  20688811.993   -22481040.56749 -17197406.06749  20688813.1894   20688819.1334
  19801160.903   -29055936.27849 -22370660.00549  19801161.1604   19801165.5114
  20637630.883   -10628885.64749  -8265002.30449  20637631.5734   20637636.4574
 96  5 13 19 44 29.9950000  0  6  2  5  4 24  9  7
  22176836.776     5638239.06949   4399159.95649  22176836.0864   22176842.2434
  21785046.122   -16412569.44049 -12769222.45149  21785046.5924   21785052.6354
  19512021.370   -29587256.87849 -23038648.48049  19512023.0104   19512027.4804
  20668229.729   -22589201.34449 -17281687.14449  20668230.6334   20668236.6684
  19793247.437   -29097521.71449 -22403064.24549  19793247.5984   19793252.1294
  20645644.378   -10586766.28349  -8232182.03649  20645646.5934   20645651.5294
 96  5 13 19 44 59.9950000  0  6  2  5  4 24  9  7
  22186306.405     5688010.52449   4437942.82949  22186307.3584   22186313.0284
  21765295.726   -16516361.60749 -12850099.41649  21765295.0694   21765302.2404
  19502908.292   -29635147.04449 -23075965.47349  19502909.6394   19502914.1074
  20647720.910   -22696969.67949 -17365662.42049  20647722.6334   20647728.6214
  19785441.025   -29138545.95649 -22435031.18949  19785440.9964   19785445.5494
  20653695.982   -10544463.97149  -8199219.21549  20653696.6924   20653701.2964
 96  5 13 19 45 29.9950000  0  6  2  5  4 24  9  7
  22195827.480     5738036.20049   4476923.79449  22195827.1494   22195833.2654
  21745555.670   -16620091.64149 -12930927.97049  21745556.1714   21745561.6664
  19493912.468   -29682423.96749 -23112804.60949  19493913.2154   19493917.8484
  20627284.212   -22804364.19049 -17449346.42049  20627285.8604   20627292.1294
  19777739.723   -29179009.56849 -22466561.28249  19777741.3354   19777745.6184
  20661781.539   -10501973.23949  -8166109.56149  20661781.8144   20661786.6584
 96  5 13 19 45 59.9950000  0  6  2  5  4 24  9  7
  22205393.860     5788313.23249   4516100.62049  22205394.1594   22205401.8694
  21725828.405   -16723756.91949 -13011706.06149  21725828.7284   21725835.3214
  19485032.719   -29729084.67249 -23149163.57349  19485034.2704   19485038.6114
  20606921.642   -22911370.83849 -17532728.18349  20606923.3374   20606929.5264
  19770148.043   -29218909.00749 -22497651.75349  19770148.7154   19770153.2174
  20669901.097   -10459307.41749  -8132863.47649  20669901.1274   20669905.7014
 96  5 13 19 46 29.9950000  0  6  2  5  4 24  9  7
  22215007.614     5838834.21149   4555467.54349  22215007.9754   22215015.2964
  21706113.660   -16827369.93949 -13092443.42549  21706111.8704   21706118.5834
  19476268.404   -29775144.36849 -23185054.22549  19476269.5344   19476273.4234
  20586631.575   -23018001.85749 -17615817.25249  20586631.9604   20586638.4504
  19762658.955   -29258260.19049 -22528315.02049  19762660.0834   19762664.6994
  20678047.685   -10416495.03449  -8099503.19449  20678047.4734   20678052.7584
 96  5 13 19 46 59.9950000  0  6  2  5  4 24  9  7
  22224666.720     5889601.81349   4595026.64549  22224668.7774   22224675.9664
  21686405.902   -16930926.36049 -13173136.70349  21686406.8074   21686412.5204
  19467615.162   -29820617.18349 -23220487.56549  19467615.9974   19467620.3104
  20566408.206   -23124268.92749 -17698622.71749  20566410.0864   20566416.8554
  19755280.948   -29297037.63049 -22558531.20949  19755281.0674   19755285.5834
  20686219.936   -10373552.21149  -8066041.27049  20686219.6494   20686224.2604
 96  5 13 19 47 29.9950000  0  6  2  5  4 24  9  7
  22234370.835     5940588.54449   4634756.50849  22234371.3264   22234377.6964
  21666710.177   -17034429.15449 -13253788.19149  21666711.0394   21666716.0014
  19459071.560   -29865513.37149 -23255471.58349  19459072.5864   19459076.6684
  20546255.285   -23230178.40649 -17781149.54549  20546256.0094   20546262.5404
  19748012.616   -29335230.73949 -22588292.07449  19748013.1024   19748017.6374
  20694409.047   -10330514.33649  -8032505.27949  20694409.8544   20694413.9984
 96  5 13 19 47 59.9950000  0  6  2  5  4 24  9  7
  22244114.833     5991789.22949   4674653.06049  22244114.7414   22244121.5544
  21647028.438   -17137857.49249 -13334381.64749  21647028.6054   21647035.0084
  19450641.230   -29909814.63449 -23289992.03349  19450641.8994   19450646.1284
  20526170.754   -23335723.40349 -17863392.35849  20526171.5454   20526177.9474
  19740853.276   -29372849.07649 -22617605.06649  19740854.3334   19740858.8274
  20702613.655   -10287403.85149  -7998912.70949  20702613.1454   20702617.9054
 96  5 13 19 48 29.9950000  0  6  2  5  4 24  9  7
  22253908.254     6043252.99749   4714754.61249  22253908.7674   22253913.9344
  21627365.828   -17241185.82849 -13414897.20149  21627365.9734   21627371.2104
  19442329.913   -29953488.26549 -23324023.41649  19442331.4624   19442335.7184
  20506160.014   -23440877.41849 -17945330.51049  20506161.5694   20506167.5774
  19733811.693   -29409858.37449 -22646443.48449  19733811.9864   19733816.4474
  20710837.907   -10244180.97249  -7965232.55949  20710838.3364   20710843.1874
 96  5 13 19 48 59.9950000  0  6  2  5  4 24  9  7
  22263750.310     6094984.28249   4755064.64649  22263751.8334   22263757.1514
  21607724.639   -17344397.81449 -13495322.08649  21607724.8494   21607730.2104
  19434140.335   -29996526.70349 -23357559.84849  19434141.1784   19434145.8394
  20486228.854   -23545620.92649 -18026948.78249  20486229.8204   20486235.7404
  19726887.416   -29446244.85649 -22674796.58949  19726887.8534   19726892.3604
  20719086.898   -10200828.69149  -7931451.57949  20719088.0954   20719093.2614
 96  5 13 19 49 29.9950000  0  6  2  5  4 24  9  7
  22273642.639     6146963.11149   4795567.56949  22273643.0814   22273650.4214
  21588103.303   -17447513.77749 -13575672.15249  21588102.5994   21588107.7824
  19426070.134   -30038936.26249 -23390606.24549  19426071.3344   19426075.4954
  20466373.304   -23649955.35449 -18108248.29949  20466375.4514   20466381.3234
  19720072.652   -29482055.72349 -22702701.16649  19720073.3804   19720077.8964
  20727361.195   -10157356.87149  -7897577.45449  20727360.6874   20727365.3944
 96  5 13 19 49 59.9950000  0  6  2  5  4 24  9  7
  22283583.371     6199202.57049   4836273.58249  22283583.9124   22283590.1354
  21568495.113   -17550548.72649 -13655959.07949  21568496.0274   21568501.6904
  19418120.258   -30080711.67749 -23423158.49949  19418121.7274   19418126.0604
  20446600.066   -23753869.88649 -18189220.62549  20446601.3444   20446607.0294
  19713366.235   -29517300.90249 -22730164.94449  19713366.6324   19713370.9334
  20735654.883   -10113765.16349  -7863609.90849  20735656.0244   20735660.4014
 96  5 13 19 50 29.9950000  0  6  2  5  4 24  9  7
  22293573.304     6251694.27749   4877176.15149  22293574.3424   22293580.2474
  21548898.889   -17653522.46949 -13736198.31849  21548900.4634   21548906.8064
  19410288.729   -30121865.39549 -23455226.31949  19410290.3064   19410294.7874
  20426904.421   -23857363.96849 -18269865.32549  20426907.1814   20426913.1884
  19706767.204   -29551978.57849 -22757186.51449  19706767.5554   19706772.1894
  20743975.109   -10070047.29349  -7829544.04849  20743974.7064   20743979.7014
 96  5 13 19 50 59.9950000  0  6  2  5  4 24  9  7
  22303604.780     6304403.77049   4918248.40049  22303603.1584   22303609.6724
  21529316.949   -17756435.06749 -13816389.92149  21529316.5934   21529322.1414
  19402575.298   -30162403.20549 -23486814.21149  19402576.0034   19402580.5824
  20407291.001   -23960438.92449 -18350183.44049  20407292.5794   20407298.5714
  19700274.520   -29586096.12949 -22783771.62849  19700275.3044   19700279.5894
  20752316.073   -10026208.00249  -7795383.58849  20752317.1844   20752322.2294
 96  5 13 19 51 29.9950000  0  6  2  5  4 24  9  7
  22313676.332     6357334.78149   4959493.26249  22313677.3224   22313682.5984
  21509741.649   -17859302.46449 -13896546.29549  21509742.6724   21509747.0584
  19394976.859   -30202329.24249 -23517925.40049  19394978.3624   19394983.2264
  20387754.817   -24063099.46849 -18430178.63049  20387756.8344   20387763.3184
  19693888.429   -29619652.95649 -22809919.81149  19693889.6604   19693894.0824
  20760681.547    -9982253.67349  -7761133.48149  20760681.5554   20760686.5924
 96  5 13 19 51 59.9950000  0  6  2  5  4 24  9  7
  22323803.410     6410555.47549   5000963.85349  22323804.5064   22323809.9084
  21490187.165   -17962049.89449 -13976609.19749  21490189.3084   21490195.2854
  19387504.046   -30241599.03249 -23548525.22749  19387505.8374   19387510.3894
  20368309.711   -24165288.22949 -18509806.20549  20368310.7534   20368317.0654
  19687626.272   -29652561.14549 -22835562.56149  19687627.0764   19687631.7934
  20769079.426    -9938114.97949  -7726739.70949  20769080.7434   20769086.2224
 96  5 13 19 52 29.9950000  0  6  2  5  4 24  9  7
  22333971.478     6463985.29249   5042597.40449  22333971.1864   22333977.0374
  21470650.037   -18064729.86149 -14056619.52049  21470650.7644   21470656.6604
  19380140.154   -30280293.20449 -23578676.52149  19380142.2394   19380146.9254
  20348940.135   -24267075.88049 -18589121.22449  20348941.4244   20348947.3434
  19681474.904   -29684887.14249 -22860751.65249  19681475.8484   19681480.5254
  20777503.555    -9893849.25749  -7692246.96049  20777504.1084   20777509.1564
 96  5 13 19 52 59.9950000  0  6  2  5  4 24  9  7
  22344172.440     6517601.14049   5084375.91349  22344174.0784   22344180.2754
  21451119.885   -18167365.07549 -14136594.96449  21451119.8904   21451125.0214
  19372880.869   -30318442.51349 -23608403.25049  19372882.6604   19372887.0554
  20329643.066   -24368483.66149 -18668140.23149  20329644.0474   20329650.1484
  19675429.254   -29716654.40949 -22885505.37049  19675430.5424   19675435.3794
  20785943.921    -9849497.19649  -7657686.92449  20785944.2204   20785949.1034
 96  5 13 19 53 29.9950000  0  6  2  5  4 24  9  7
  22354417.741     6571448.60749   5126334.89549  22354420.6214   22354428.4384
  21431604.127   -18269914.88949 -14216503.87249  21431605.4484   21431610.6524
  19365728.562   -30356028.52049 -23637691.04249  19365730.4554   19365734.6704
  20310422.356   -24469479.11149 -18746837.95349  20310424.7064   20310430.6614
  19669498.447   -29747826.15849 -22909795.05049  19669499.0714   19669503.5024
  20794405.213    -9805034.21849  -7623040.46349  20794405.3644   20794410.1264
 96  5 13 19 53 59.9950000  0  6  2  5  4 24  9  7
  22364711.308     6625534.08349   5168479.37249  22364712.7044   22364720.1154
  21412113.168   -18372346.34149 -14296320.55049  21412113.0594   21412118.6194
  19358688.107   -30393026.12549 -23666520.33849  19358690.0314   19358694.5304
  20291285.841   -24570051.49949 -18825206.00449  20291286.6374   20291292.7154
  19663680.590   -29778395.54349 -22933615.36149  19663681.8944   19663686.4894
  20802889.217    -9760444.16149  -7588294.99949  20802890.5784   20802895.3544
 96  5 13 19 54 29.9950000  0  6  2  5  4 24  9  7
  22375046.086     6679837.78049   5210793.86149  22375046.7724   22375053.1364
  21392636.689   -18474687.92549 -14376067.19649  21392637.5924   21392643.5784
  19351761.719   -30429423.60949 -23694882.00549  19351763.5084   19351768.5284
  20272224.777   -24670210.21949 -18903251.72349  20272227.0274   20272232.6174
  19657972.810   -29808392.51349 -22956989.62549  19657973.6984   19657978.2674
  20811393.261    -9715753.27649  -7553470.95149  20811394.6854   20811399.1594
 96  5 13 19 54 59.9950000  0  6  2  5  4 24  9  7
  22385415.870     6734338.21149   5253261.66849  22385416.3414   22385424.1334
  21373174.887   -18576969.13849 -14455766.81549  21373174.4864   21373179.6784
  19344947.629   -30465237.09349 -23722788.61549  19344948.6944   19344953.2214
  20253237.151   -24769992.60549 -18981004.19049  20253239.0514   20253244.7314
  19652368.014   -29837842.57049 -22979937.72749  19652369.5844   19652373.9164
  20819911.682    -9671000.25249  -7518598.49149  20819911.2454   20819916.3074
 96  5 13 19 55 29.9950000  0  6  2  5  4 24  9  7
  22395831.900     6789065.56149   5295906.28549  22395832.4144   22395838.1104
  21353727.360   -18679161.16649 -14535396.93249  21353727.8014   21353733.8044
  19338251.143   -30500426.60049 -23750209.00549  19338252.2334   19338256.8634
  20234323.583   -24869388.82349 -19058455.75649  20234324.8124   20234330.4864
  19646870.285   -29866735.20149 -23002451.47349  19646871.3174   19646875.6804
  20828445.625    -9626151.18649  -7483651.18649  20828446.1804   20828450.6234
 96  5 13 19 55 59.9950000  0  6  2  5  4 24  9  7
  22406293.045     6844043.97649   5338746.53949  22406294.4654   22406299.7954
  21334298.036   -18781261.50849 -14614955.60749  21334299.2004   21334304.1854
  19331682.222   -30534950.67049 -23777110.87849  19331682.8134   19331686.9534
  20215487.490   -24968370.98149 -19135584.67649  20215488.7524   20215494.6124
  19641480.839   -29895058.87249 -23024521.87049  19641481.6224   19641485.7754
  20837000.718    -9581190.48449  -7448616.89349  20837001.5574   20837006.7644
 96  5 13 19 56 29.9950000  0  6  2  5  4 24  9  7
  22416802.489     6899258.18849   5381770.50749  22416801.4334   22416806.9524
  21314881.885   -18883296.50849 -14694463.36649  21314882.2384   21314888.1754
  19325232.178   -30568842.75249 -23803520.28249  19325233.2914   19325237.4694
  20196728.645   -25066945.82049 -19212396.20949  20196730.4944   20196736.8224
  19636195.688   -29922833.14349 -23046164.17249  19636196.3294   19636200.7844
  20845572.833    -9536144.91049  -7413516.47249  20845573.6584   20845578.1774
 96  5 13 19 56 59.9950000  0  6  2  5  4 24  9  7
  22427355.509     6954720.50149   5424987.80849  22427355.9744   22427362.0614
  21295479.916   -18985248.07549 -14773906.10449  21295481.8424   21295487.8114
  19318901.575   -30602113.68549 -23829445.68149  19318902.2034   19318905.8704
  20178050.300   -25165103.00949 -19288882.30149  20178051.6854   20178058.0464
  19631017.984   -29950039.64649 -23067364.04949  19631019.1924   19631023.5704
  20854163.249    -9491003.60649  -7378341.45349  20854163.4494   20854168.4614
 96  5 13 19 57 29.9950000  0  6  2  5  4 24  9  7
  22437951.234     7010408.38849   5468380.87349  22437952.0924   22437959.2774
  21276090.715   -19087145.40149 -14853306.58849  21276091.0734   21276096.8464
  19312681.932   -30634795.72349 -23854912.19849  19312682.8334   19312687.0714
  20159451.797   -25262842.65349 -19365043.03149  20159452.7594   20159458.7304
  19625945.871   -29976697.01949 -23088136.03249  19625946.5134   19625950.7704
  20862766.641    -9445790.88449  -7343110.78049  20862767.1104   20862772.2764
 96  5 13 19 57 59.9950000  0  6  2  5  4 24  9  7
  22448589.089     7066302.39349   5511934.55149  22448589.0754   22448596.0774
  21256710.028   -19188991.68449 -14932667.29349  21256711.2194   21256716.0664
  19306569.779   -30666911.58049 -23879937.53149  19306571.3954   19306575.5564
  20140933.122   -25360154.84549 -19440870.68149  20140934.7534   20140940.9384
  19620979.526   -30002795.96049 -23108472.87649  19620979.8144   19620984.5194
  20871385.120    -9400505.86049  -7307823.77649  20871385.0114   20871389.7294
 96  5 13 19 58 29.9950000  0  6  2  5  4 24  9  7
  22459267.308     7122412.47049   5555656.59249  22459267.2064   22459272.4964
  21237346.992   -19290746.91149 -15011957.03849  21237346.9024   21237352.0454
  19300569.672   -30698448.38549 -23904511.65549  19300570.4994   19300574.2474
  20122499.839   -25457029.51749 -19516357.40549  20122500.4884   20122506.1444
  19616124.664   -30028311.03449 -23128354.76049  19616124.6474   19616129.3374
  20880021.389    -9355119.19449  -7272457.56049  20880022.0634   20880027.1734
 96  5 13 19 58 59.9950000  0  6  2  5  4 24  9  7
  22469988.294     7178761.99749   5599565.23149  22469988.5364   22469996.3574
  21218006.895   -19392379.74049 -15091151.42449  21218006.9834   21218012.3644
  19294685.677   -30729370.28349 -23928606.62849  19294686.3304   19294690.0154
  20104151.369   -25553447.85249 -19591488.54549  20104152.5954   20104158.1304
  19611386.389   -30053210.21149 -23147756.72549  19611386.6254   19611391.1134
  20888683.820    -9309598.43549  -7236986.87249  20888684.2034   20888689.1244
 96  5 13 19 59 29.9950000  0  6  2  5  4 24  9  7
  22480758.854     7235352.57049   5643661.68349  22480759.0594   22480766.3714
  21198689.127   -19493891.37849 -15170251.35449  21198690.0684   21198694.7584
  19288920.725   -30759663.33949 -23952211.58949  19288921.4184   19288925.7944
  20085890.452   -25649409.29549 -19666263.65449  20085891.6394   20085897.7564
  19606764.576   -30077498.00449 -23166682.28449  19606764.5694   19606769.1084
  20897371.546    -9263944.53949  -7201412.43349  20897371.8154   20897377.0964
 96  5 13 19 59 59.9950000  0  6  2  5  4 24  9  7
  22491574.326     7292176.68749   5687940.12649  22491571.4064   22491578.2954
  21179395.909   -19595285.55149 -15249259.77049  21179395.3884   21179400.2934
  19283277.431   -30789318.61849 -23975319.58049  19283278.1734   19283282.7924
  20067712.968   -25744935.40549 -19740699.55249  20067713.5784   20067719.2284
  19602256.406   -30101186.40049 -23185140.77649  19602256.7694   19602261.2954
  20906082.235    -9218165.26149  -7165740.28849  20906083.0934   20906088.6294
 96  5 13 20  0 29.9950000  0  6  2  5  4 24  9  7
  22502433.271     7349257.91549   5732418.90449  22502434.1934   22502441.7974
  21160124.272   -19696554.60149 -15328170.67949  21160123.7544   21160129.3994
  19277759.262   -30818317.07249 -23997915.76049  19277759.7974   19277764.4784
  20049618.274   -25840016.60249 -19814788.77249  20049620.1994   20049625.6414
  19597863.271   -30124271.00149 -23203128.78249  19597864.2304   19597868.5584
  20914817.553    -9172263.44749  -7129972.66949  20914817.8024   20914823.2414
 96  5 13 20  0 59.9950000  0  6  2  5  4 24  9  7
  22513346.900     7406609.78149   5777108.56949  22513347.7334   22513354.6604
  21140873.491   -19797712.15049 -15406994.70649  21140874.6364   21140879.8864
  19272366.027   -30846655.53249 -24019997.66349  19272367.0854   19272371.6854
  20031612.886   -25934642.47749 -19888523.19549  20031613.3604   20031618.9914
  19593587.559   -30146742.45549 -23220639.01349  19593588.2744   19593592.2064
  20923575.968    -9126232.60349  -7094104.50049  20923576.7814   20923582.7044
 96  5 13 20  1 29.9950000  0  6  2  5  4 24  9  7
  22524305.060     7464194.92949   5821980.02249  22524305.4984   22524314.1894
  21121638.875   -19898797.41849 -15485762.41749  21121638.9814   21121643.6094
  19267094.055   -30874362.97749 -24041587.86949  19267094.6034   19267099.1994
  20013687.511   -26028838.45149 -19961922.62649  20013688.5714   20013694.1794
  19589420.518   -30168641.37649 -23237703.11749  19589420.8864   19589425.2504
  20932353.048    -9080117.02949  -7058170.31449  20932352.7264   20932357.9074
 96  5 13 20  1 59.9950000  0  6  2  5  4 24  9  7
  22535312.416     7522047.26749   5867059.67349  22535315.3294   22535321.7064
  21102425.072   -19999764.36549 -15564437.92049  21102425.4244   21102430.5234
  19261948.726   -30901402.27949 -24062657.44049  19261949.5184   19261953.5124
  19995852.509   -26122563.50849 -20034955.12049  19995853.3204   19995859.0644
  19585368.122   -30189934.13349 -23254294.88349  19585369.0254   19585373.1244
  20941152.838    -9033877.67049  -7022139.68849  20941152.2424   20941156.9944
 96  5 13 20  2 29.9950000  0  6  2  5  4 24  9  7
  22546372.581     7580155.53349   5912338.76649  22546372.1374   22546380.7724
  21083233.847   -20100613.88249 -15643021.92149  21083234.3744   21083239.4304
  19256926.638   -30927792.83049 -24083221.48649  19256927.5534   19256931.2794
  19978107.755   -26215809.38449 -20107614.21449  19978109.2114   19978114.6684
  19581432.578   -30210617.37749 -23270411.70749  19581432.9814   19581437.5194
  20949973.077    -8987520.99749  -6986017.62949  20949973.4574   20949978.5444
 96  5 13 20  2 59.9950000  0  6  2  5  4 24  9  7
  22557473.058     7638500.81149   5957802.54649  22557475.4294   22557481.9894
  21064065.283   -20201342.55249 -15721511.76049  21064066.4034   21064071.2004
  19252026.590   -30953539.52349 -24103283.82349  19252027.7714   19252031.8154
  19960455.556   -26308572.44849 -20179897.08849  19960456.8024   19960462.4304
  19577612.446   -30230693.42549 -23286055.38749  19577612.6874   19577617.1554
  20958815.038    -8941059.10049  -6949813.56549  20958814.5324   20958819.6984
 96  5 13 20  3 29.9950000  0  6  2  5  4 24  9  7
  22568620.362     7697074.96849   6003444.66549  22568620.5344   22568628.7694
  21044927.720   -20301909.40149 -15799875.49949  21044928.6814   21044934.4404
  19247251.978   -30978630.31449 -24122835.07049  19247253.2874   19247257.1444
  19942901.524   -26400821.58449 -20251779.50349  19942902.6664   19942907.7754
  19573908.131   -30250152.98649 -23301218.69049  19573909.6464   19573913.9014
  20967675.379    -8894492.07349  -6913527.60049  20967675.9114   20967681.2494
 96  5 13 20  3 59.9950000  0  6  2  5  4 24  9  7
  22579805.256     7755864.46649   6049254.57849  22579807.4984   22579815.2424
  21025820.952   -20402321.96549 -15878119.03549  21025820.8444   21025825.8134
  19242594.495   -31003105.65649 -24141906.74949  19242595.6554   19242599.6234
  19925441.366   -26492576.22549 -20323276.58849  19925442.2114   19925447.7004
  19570323.183   -30268998.90049 -23315903.82849  19570323.2364   19570327.4484
  20976556.947    -8847822.57749  -6877161.78949  20976557.0034   20976562.3614
 96  5 13 20  4 29.9950000  0  6  2  5  4 24  9  7
  22591032.871     7814859.87649   6095224.94149  22591034.4764   22591042.8514
  21006743.632   -20502579.07149 -15956241.41849  21006743.2004   21006748.2544
  19238050.449   -31026983.81349 -24160513.09049  19238052.0764   19238055.7344
  19908073.767   -26583839.49749 -20394390.79549  19908075.4774   19908080.7534
  19566850.914   -30287239.11349 -23330116.99449  19566852.2084   19566856.6724
  20985458.827    -8801050.09649  -6840715.73349  20985457.3854   20985461.8714
 96  5 13 20  4 59.9950000  0  6  2  5  4 24  9  7
  22602298.174     7874072.81949   6141364.80349  22602302.4004   22602311.3184
  20987694.103   -20602675.16349 -16034238.33949  20987695.2564   20987700.3154
  19233619.791   -31050267.97549 -24178656.57349  19233621.3384   19233625.1124
  19890799.179   -26674620.96449 -20465129.56549  19890800.2694   19890805.7854
  19563492.709   -30304893.04349 -23343873.31049  19563492.8864   19563497.2324
  20994377.789    -8754168.73649  -6804184.82449  20994378.8384   20994383.6044
 96  5 13 20  5 29.9950000  0  6  2  5  4 24  9  7
  22613618.142     7933534.80749   6187698.73049  22613619.0054   22613625.7894
  20968678.735   -20702606.57349 -16112106.94449  20968678.7434   20968683.9204
  19229303.469   -31072950.22049 -24196331.03449  19229304.5464   19229308.9534
  19873615.544   -26764921.09749 -20535493.27549  19873616.3934   19873621.8314
  19560248.029   -30321941.80849 -23357158.07349  19560248.4204   19560252.8034
  21003322.629    -8707166.44749  -6767559.68749  21003322.9234   21003328.1554
 96  5 13 20  5 59.9950000  0  6  2  5  4 24  9  7
  22624986.534     7993277.45749   6234251.34449  22624988.1394   22624994.2164
  20949689.029   -20802393.32849 -16189862.83449  20949689.7294   20949694.9994
  19225102.520   -31095022.52049 -24213530.21649  19225104.2754   19225108.5424
  19856520.773   -26854749.32349 -20605489.26649  19856522.5994   19856528.3414
  19557119.821   -30338383.18649 -23369969.54949  19557120.0394   19557124.3394
  21012290.279    -8660039.01549  -6730837.03949  21012291.3284   21012296.0964
 96  5 13 20  6 29.9950000  0  6  2  5  4 24  9  7
  22636405.558     8053286.01449   6281011.16649  22636406.7344   22636414.3574
  20930723.096   -20902058.29749 -16267523.81249  20930724.4394   20930729.2504
  19221019.518   -31116482.01949 -24230251.89649  19221020.8814   19221024.7444
  19839515.242   -26944116.59849 -20675126.07149  19839516.5214   19839522.2564
  19554102.506   -30354238.15249 -23382324.07349  19554102.9604   19554107.1194
  21021276.150    -8612820.33349  -6694043.28849  21021276.9074   21021281.5064
 96  5 13 20  6 59.9950000  0  6  2  5  4 24  9  7
  22647874.416     8113534.89549   6327958.23949  22647871.8124   22647878.4334
  20911772.609   -21001646.64649 -16345125.09249  20911773.6154   20911778.4614
  19217049.375   -31137346.31849 -24246509.78049  19217050.7864   19217054.7854
  19822593.419   -27033045.17249 -20744421.02849  19822593.8054   19822599.7744
  19551196.302   -30369512.24049 -23394225.96749  19551196.3494   19551200.6034
  21030270.169    -8565551.93549  -6657210.78849  21030271.2004   21030276.5734
 96  5 13 20  7 29.9950000  0  6  2  5  4 24  9  7
  22659378.971     8174007.49849   6375079.64549  22659379.4454   22659387.1504
  20892833.898   -21101167.89849 -16422674.09549  20892834.9154   20892840.2434
  19213194.843   -31157603.59049 -24262294.65749  19213195.5214   19213199.9984
  19805754.304   -27121529.43749 -20813369.77349  19805755.8854   19805761.5094
  19548402.481   -30384187.75049 -23405661.43649  19548403.6004   19548407.8714
  21039275.787    -8518238.11749  -6620342.91049  21039275.2594   21039280.2924
 96  5 13 20  7 59.9950000  0  6  2  5  4 24  9  7
  22670931.500     8234720.80849   6422388.62249  22670932.3744   22670938.7684
  20873917.170   -21200576.55649 -16500135.36249  20873917.7594   20873923.0784
  19209462.955   -31177212.37949 -24277574.22749  19209464.0024   19209468.0234
  19789011.554   -27209516.67949 -20881931.22149  19789012.5924   19789018.1234
  19545729.745   -30398238.08749 -23416609.76349  19545729.9524   19545734.4674
  21048298.030    -8470819.60849  -6583393.44449  21048298.6124   21048303.7384
